<?xml version="1.0" encoding="UTF-8" standalone="no" ?>
<gpx xmlns="http://www.topografix.com/GPX/1/1" xmlns:xsi="http://www.w3.org/2001/XMLSchema-instance" xsi:schemaLocation="http://www.topografix.com/GPX/1/1 http://www.topografix.com/GPX/1/1/gpx.xsd" version="1.1" creator="VisuGPX - https://www.visugpx.com">
  <metadata>
    <name>25 Sept-2010 Voiron-Crossey-Tour Vouise</name>
    <desc><![CDATA[Parcours du 25 Septembre 2010 .  ]]></desc>
  </metadata>
  <trk>
    <name><![CDATA[ACTIVE LOG 002]]></name>
    <trkseg>
      <trkpt lat="45.35806" lon="5.57533">
        <ele>388.9906006</ele>
        <time>2010-09-25T16:51:28Z</time>
      </trkpt>
      <trkpt lat="45.35889" lon="5.57638">
        <ele>388.0292969</ele>
        <time>2010-09-25T16:53:49Z</time>
      </trkpt>
      <trkpt lat="45.35897" lon="5.5764">
        <ele>388.0292969</ele>
        <time>2010-09-25T16:53:55Z</time>
      </trkpt>
      <trkpt lat="45.35895" lon="5.57636">
        <ele>389.9519043</ele>
        <time>2010-09-25T16:54:04Z</time>
      </trkpt>
      <trkpt lat="45.35881" lon="5.57646">
        <ele>387.548584</ele>
        <time>2010-09-25T16:54:13Z</time>
      </trkpt>
      <trkpt lat="45.3587" lon="5.57661">
        <ele>386.5874023</ele>
        <time>2010-09-25T16:54:18Z</time>
      </trkpt>
      <trkpt lat="45.35871" lon="5.57686">
        <ele>384.184082</ele>
        <time>2010-09-25T16:54:23Z</time>
      </trkpt>
      <trkpt lat="45.35871" lon="5.57705">
        <ele>383.2226563</ele>
        <time>2010-09-25T16:54:28Z</time>
      </trkpt>
      <trkpt lat="45.35877" lon="5.57715">
        <ele>382.7420654</ele>
        <time>2010-09-25T16:54:32Z</time>
      </trkpt>
      <trkpt lat="45.35882" lon="5.57723">
        <ele>381.7806396</ele>
        <time>2010-09-25T16:54:36Z</time>
      </trkpt>
      <trkpt lat="45.35891" lon="5.57734">
        <ele>381.7806396</ele>
        <time>2010-09-25T16:54:40Z</time>
      </trkpt>
      <trkpt lat="45.35899" lon="5.57739">
        <ele>382.2613525</ele>
        <time>2010-09-25T16:54:44Z</time>
      </trkpt>
      <trkpt lat="45.35908" lon="5.57742">
        <ele>381.7806396</ele>
        <time>2010-09-25T16:54:47Z</time>
      </trkpt>
      <trkpt lat="45.35917" lon="5.57745">
        <ele>382.2613525</ele>
        <time>2010-09-25T16:54:50Z</time>
      </trkpt>
      <trkpt lat="45.35926" lon="5.57748">
        <ele>382.7420654</ele>
        <time>2010-09-25T16:54:55Z</time>
      </trkpt>
      <trkpt lat="45.35934" lon="5.57753">
        <ele>381.7806396</ele>
        <time>2010-09-25T16:54:58Z</time>
      </trkpt>
      <trkpt lat="45.35944" lon="5.57757">
        <ele>381.7806396</ele>
        <time>2010-09-25T16:55:01Z</time>
      </trkpt>
      <trkpt lat="45.35955" lon="5.57762">
        <ele>381.7806396</ele>
        <time>2010-09-25T16:55:05Z</time>
      </trkpt>
      <trkpt lat="45.35966" lon="5.57764">
        <ele>381.3000488</ele>
        <time>2010-09-25T16:55:08Z</time>
      </trkpt>
      <trkpt lat="45.35974" lon="5.57767">
        <ele>380.819458</ele>
        <time>2010-09-25T16:55:11Z</time>
      </trkpt>
      <trkpt lat="45.35983" lon="5.57772">
        <ele>380.819458</ele>
        <time>2010-09-25T16:55:14Z</time>
      </trkpt>
      <trkpt lat="45.35993" lon="5.57776">
        <ele>381.3000488</ele>
        <time>2010-09-25T16:55:17Z</time>
      </trkpt>
      <trkpt lat="45.36004" lon="5.57781">
        <ele>382.2613525</ele>
        <time>2010-09-25T16:55:20Z</time>
      </trkpt>
      <trkpt lat="45.36009" lon="5.57785">
        <ele>381.3000488</ele>
        <time>2010-09-25T16:55:23Z</time>
      </trkpt>
      <trkpt lat="45.36015" lon="5.57791">
        <ele>381.3000488</ele>
        <time>2010-09-25T16:55:26Z</time>
      </trkpt>
      <trkpt lat="45.36022" lon="5.57794">
        <ele>381.7806396</ele>
        <time>2010-09-25T16:55:29Z</time>
      </trkpt>
      <trkpt lat="45.36029" lon="5.57798">
        <ele>381.3000488</ele>
        <time>2010-09-25T16:55:33Z</time>
      </trkpt>
      <trkpt lat="45.36039" lon="5.57803">
        <ele>382.2613525</ele>
        <time>2010-09-25T16:55:36Z</time>
      </trkpt>
      <trkpt lat="45.36048" lon="5.57808">
        <ele>382.7420654</ele>
        <time>2010-09-25T16:55:39Z</time>
      </trkpt>
      <trkpt lat="45.36053" lon="5.57815">
        <ele>384.184082</ele>
        <time>2010-09-25T16:55:43Z</time>
      </trkpt>
      <trkpt lat="45.36063" lon="5.57815">
        <ele>384.184082</ele>
        <time>2010-09-25T16:55:46Z</time>
      </trkpt>
      <trkpt lat="45.36071" lon="5.57814">
        <ele>384.184082</ele>
        <time>2010-09-25T16:55:49Z</time>
      </trkpt>
      <trkpt lat="45.36078" lon="5.57812">
        <ele>384.184082</ele>
        <time>2010-09-25T16:55:52Z</time>
      </trkpt>
      <trkpt lat="45.36086" lon="5.57807">
        <ele>385.6259766</ele>
        <time>2010-09-25T16:55:55Z</time>
      </trkpt>
      <trkpt lat="45.36094" lon="5.57801">
        <ele>384.6647949</ele>
        <time>2010-09-25T16:55:58Z</time>
      </trkpt>
      <trkpt lat="45.361" lon="5.57792">
        <ele>383.7032471</ele>
        <time>2010-09-25T16:56:02Z</time>
      </trkpt>
      <trkpt lat="45.36111" lon="5.57782">
        <ele>382.2613525</ele>
        <time>2010-09-25T16:56:06Z</time>
      </trkpt>
      <trkpt lat="45.36115" lon="5.57772">
        <ele>380.3387451</ele>
        <time>2010-09-25T16:56:09Z</time>
      </trkpt>
      <trkpt lat="45.36122" lon="5.57763">
        <ele>378.8968506</ele>
        <time>2010-09-25T16:56:12Z</time>
      </trkpt>
      <trkpt lat="45.36128" lon="5.57753">
        <ele>377.9354248</ele>
        <time>2010-09-25T16:56:15Z</time>
      </trkpt>
      <trkpt lat="45.36132" lon="5.57742">
        <ele>376.4935303</ele>
        <time>2010-09-25T16:56:18Z</time>
      </trkpt>
      <trkpt lat="45.36138" lon="5.57734">
        <ele>376.0128174</ele>
        <time>2010-09-25T16:56:21Z</time>
      </trkpt>
      <trkpt lat="45.36144" lon="5.57725">
        <ele>375.0515137</ele>
        <time>2010-09-25T16:56:24Z</time>
      </trkpt>
      <trkpt lat="45.36147" lon="5.57714">
        <ele>374.0900879</ele>
        <time>2010-09-25T16:56:28Z</time>
      </trkpt>
      <trkpt lat="45.36152" lon="5.57705">
        <ele>373.1289063</ele>
        <time>2010-09-25T16:56:31Z</time>
      </trkpt>
      <trkpt lat="45.36161" lon="5.57702">
        <ele>371.6868896</ele>
        <time>2010-09-25T16:56:34Z</time>
      </trkpt>
      <trkpt lat="45.36168" lon="5.57708">
        <ele>371.2062988</ele>
        <time>2010-09-25T16:56:37Z</time>
      </trkpt>
      <trkpt lat="45.36175" lon="5.57716">
        <ele>371.6868896</ele>
        <time>2010-09-25T16:56:40Z</time>
      </trkpt>
      <trkpt lat="45.36185" lon="5.5772">
        <ele>370.7255859</ele>
        <time>2010-09-25T16:56:43Z</time>
      </trkpt>
      <trkpt lat="45.36196" lon="5.57721">
        <ele>369.2836914</ele>
        <time>2010-09-25T16:56:46Z</time>
      </trkpt>
      <trkpt lat="45.36205" lon="5.57723">
        <ele>368.8029785</ele>
        <time>2010-09-25T16:56:49Z</time>
      </trkpt>
      <trkpt lat="45.36214" lon="5.57725">
        <ele>367.3609619</ele>
        <time>2010-09-25T16:56:52Z</time>
      </trkpt>
      <trkpt lat="45.3622" lon="5.57729">
        <ele>364.9576416</ele>
        <time>2010-09-25T16:56:55Z</time>
      </trkpt>
      <trkpt lat="45.36228" lon="5.57737">
        <ele>363.9963379</ele>
        <time>2010-09-25T16:56:59Z</time>
      </trkpt>
      <trkpt lat="45.36235" lon="5.57742">
        <ele>363.0350342</ele>
        <time>2010-09-25T16:57:02Z</time>
      </trkpt>
      <trkpt lat="45.36241" lon="5.57748">
        <ele>362.5543213</ele>
        <time>2010-09-25T16:57:05Z</time>
      </trkpt>
      <trkpt lat="45.36249" lon="5.57756">
        <ele>361.5931396</ele>
        <time>2010-09-25T16:57:09Z</time>
      </trkpt>
      <trkpt lat="45.36259" lon="5.57764">
        <ele>361.1124268</ele>
        <time>2010-09-25T16:57:14Z</time>
      </trkpt>
      <trkpt lat="45.36269" lon="5.57764">
        <ele>359.1896973</ele>
        <time>2010-09-25T16:57:18Z</time>
      </trkpt>
      <trkpt lat="45.36279" lon="5.57764">
        <ele>357.7478027</ele>
        <time>2010-09-25T16:57:22Z</time>
      </trkpt>
      <trkpt lat="45.36288" lon="5.57768">
        <ele>357.7478027</ele>
        <time>2010-09-25T16:57:26Z</time>
      </trkpt>
      <trkpt lat="45.36298" lon="5.57776">
        <ele>357.7478027</ele>
        <time>2010-09-25T16:57:30Z</time>
      </trkpt>
      <trkpt lat="45.36307" lon="5.57784">
        <ele>356.786377</ele>
        <time>2010-09-25T16:57:34Z</time>
      </trkpt>
      <trkpt lat="45.36317" lon="5.57796">
        <ele>356.786377</ele>
        <time>2010-09-25T16:57:39Z</time>
      </trkpt>
      <trkpt lat="45.36326" lon="5.57803">
        <ele>356.786377</ele>
        <time>2010-09-25T16:57:44Z</time>
      </trkpt>
      <trkpt lat="45.36339" lon="5.57811">
        <ele>357.2670898</ele>
        <time>2010-09-25T16:57:49Z</time>
      </trkpt>
      <trkpt lat="45.3635" lon="5.5782">
        <ele>356.3057861</ele>
        <time>2010-09-25T16:57:54Z</time>
      </trkpt>
      <trkpt lat="45.36361" lon="5.57827">
        <ele>354.8637695</ele>
        <time>2010-09-25T16:57:58Z</time>
      </trkpt>
      <trkpt lat="45.36376" lon="5.57836">
        <ele>354.8637695</ele>
        <time>2010-09-25T16:58:02Z</time>
      </trkpt>
      <trkpt lat="45.36386" lon="5.57839">
        <ele>354.3831787</ele>
        <time>2010-09-25T16:58:06Z</time>
      </trkpt>
      <trkpt lat="45.36399" lon="5.57843">
        <ele>354.3831787</ele>
        <time>2010-09-25T16:58:10Z</time>
      </trkpt>
      <trkpt lat="45.36411" lon="5.57844">
        <ele>352.9411621</ele>
        <time>2010-09-25T16:58:14Z</time>
      </trkpt>
      <trkpt lat="45.3642" lon="5.57844">
        <ele>351.9798584</ele>
        <time>2010-09-25T16:58:18Z</time>
      </trkpt>
      <trkpt lat="45.36431" lon="5.57847">
        <ele>351.9798584</ele>
        <time>2010-09-25T16:58:22Z</time>
      </trkpt>
      <trkpt lat="45.36442" lon="5.57857">
        <ele>351.0184326</ele>
        <time>2010-09-25T16:58:27Z</time>
      </trkpt>
      <trkpt lat="45.36453" lon="5.57866">
        <ele>349.5765381</ele>
        <time>2010-09-25T16:58:31Z</time>
      </trkpt>
      <trkpt lat="45.36462" lon="5.57878">
        <ele>348.6152344</ele>
        <time>2010-09-25T16:58:35Z</time>
      </trkpt>
      <trkpt lat="45.36467" lon="5.57893">
        <ele>347.1732178</ele>
        <time>2010-09-25T16:58:39Z</time>
      </trkpt>
      <trkpt lat="45.36472" lon="5.57905">
        <ele>345.7313232</ele>
        <time>2010-09-25T16:58:43Z</time>
      </trkpt>
      <trkpt lat="45.36483" lon="5.57917">
        <ele>345.2506104</ele>
        <time>2010-09-25T16:58:47Z</time>
      </trkpt>
      <trkpt lat="45.3649" lon="5.57925">
        <ele>343.8085938</ele>
        <time>2010-09-25T16:58:51Z</time>
      </trkpt>
      <trkpt lat="45.36499" lon="5.57932">
        <ele>343.3278809</ele>
        <time>2010-09-25T16:58:55Z</time>
      </trkpt>
      <trkpt lat="45.36507" lon="5.5794">
        <ele>342.3666992</ele>
        <time>2010-09-25T16:58:59Z</time>
      </trkpt>
      <trkpt lat="45.36513" lon="5.57945">
        <ele>340.9246826</ele>
        <time>2010-09-25T16:59:04Z</time>
      </trkpt>
      <trkpt lat="45.36526" lon="5.57956">
        <ele>339.482666</ele>
        <time>2010-09-25T16:59:09Z</time>
      </trkpt>
      <trkpt lat="45.36535" lon="5.57966">
        <ele>338.5214844</ele>
        <time>2010-09-25T16:59:14Z</time>
      </trkpt>
      <trkpt lat="45.36546" lon="5.57979">
        <ele>337.5600586</ele>
        <time>2010-09-25T16:59:19Z</time>
      </trkpt>
      <trkpt lat="45.36561" lon="5.57988">
        <ele>336.598877</ele>
        <time>2010-09-25T16:59:23Z</time>
      </trkpt>
      <trkpt lat="45.36577" lon="5.58003">
        <ele>335.6373291</ele>
        <time>2010-09-25T16:59:27Z</time>
      </trkpt>
      <trkpt lat="45.36584" lon="5.58016">
        <ele>335.1567383</ele>
        <time>2010-09-25T16:59:31Z</time>
      </trkpt>
      <trkpt lat="45.36585" lon="5.58031">
        <ele>334.1954346</ele>
        <time>2010-09-25T16:59:35Z</time>
      </trkpt>
      <trkpt lat="45.36584" lon="5.58046">
        <ele>333.2341309</ele>
        <time>2010-09-25T16:59:39Z</time>
      </trkpt>
      <trkpt lat="45.36593" lon="5.58059">
        <ele>331.7921143</ele>
        <time>2010-09-25T16:59:43Z</time>
      </trkpt>
      <trkpt lat="45.36601" lon="5.58071">
        <ele>331.3115234</ele>
        <time>2010-09-25T16:59:46Z</time>
      </trkpt>
      <trkpt lat="45.36609" lon="5.58084">
        <ele>330.8309326</ele>
        <time>2010-09-25T16:59:49Z</time>
      </trkpt>
      <trkpt lat="45.36617" lon="5.58095">
        <ele>329.388916</ele>
        <time>2010-09-25T16:59:52Z</time>
      </trkpt>
      <trkpt lat="45.3662" lon="5.5811">
        <ele>328.4276123</ele>
        <time>2010-09-25T16:59:55Z</time>
      </trkpt>
      <trkpt lat="45.36626" lon="5.58118">
        <ele>328.9083252</ele>
        <time>2010-09-25T16:59:58Z</time>
      </trkpt>
      <trkpt lat="45.36632" lon="5.58128">
        <ele>328.4276123</ele>
        <time>2010-09-25T17:00:01Z</time>
      </trkpt>
      <trkpt lat="45.36641" lon="5.58136">
        <ele>326.9855957</ele>
        <time>2010-09-25T17:00:05Z</time>
      </trkpt>
      <trkpt lat="45.36651" lon="5.5814">
        <ele>326.5048828</ele>
        <time>2010-09-25T17:00:09Z</time>
      </trkpt>
      <trkpt lat="45.36661" lon="5.58141">
        <ele>326.9855957</ele>
        <time>2010-09-25T17:00:12Z</time>
      </trkpt>
      <trkpt lat="45.3667" lon="5.58144">
        <ele>327.4661865</ele>
        <time>2010-09-25T17:00:15Z</time>
      </trkpt>
      <trkpt lat="45.36679" lon="5.58148">
        <ele>327.4661865</ele>
        <time>2010-09-25T17:00:19Z</time>
      </trkpt>
      <trkpt lat="45.36687" lon="5.58149">
        <ele>327.9467773</ele>
        <time>2010-09-25T17:00:22Z</time>
      </trkpt>
      <trkpt lat="45.36699" lon="5.58151">
        <ele>327.4661865</ele>
        <time>2010-09-25T17:00:26Z</time>
      </trkpt>
      <trkpt lat="45.36709" lon="5.58153">
        <ele>327.9467773</ele>
        <time>2010-09-25T17:00:30Z</time>
      </trkpt>
      <trkpt lat="45.36718" lon="5.58157">
        <ele>328.4276123</ele>
        <time>2010-09-25T17:00:34Z</time>
      </trkpt>
      <trkpt lat="45.36728" lon="5.58159">
        <ele>328.4276123</ele>
        <time>2010-09-25T17:00:38Z</time>
      </trkpt>
      <trkpt lat="45.36738" lon="5.58163">
        <ele>328.9083252</ele>
        <time>2010-09-25T17:00:42Z</time>
      </trkpt>
      <trkpt lat="45.36748" lon="5.58168">
        <ele>328.9083252</ele>
        <time>2010-09-25T17:00:47Z</time>
      </trkpt>
      <trkpt lat="45.3676" lon="5.58168">
        <ele>329.8695068</ele>
        <time>2010-09-25T17:00:51Z</time>
      </trkpt>
      <trkpt lat="45.36771" lon="5.58171">
        <ele>329.8695068</ele>
        <time>2010-09-25T17:00:55Z</time>
      </trkpt>
      <trkpt lat="45.36785" lon="5.58173">
        <ele>329.8695068</ele>
        <time>2010-09-25T17:00:59Z</time>
      </trkpt>
      <trkpt lat="45.36794" lon="5.58174">
        <ele>329.8695068</ele>
        <time>2010-09-25T17:01:03Z</time>
      </trkpt>
      <trkpt lat="45.368" lon="5.58179">
        <ele>330.3502197</ele>
        <time>2010-09-25T17:01:07Z</time>
      </trkpt>
      <trkpt lat="45.36809" lon="5.58179">
        <ele>329.8695068</ele>
        <time>2010-09-25T17:01:11Z</time>
      </trkpt>
      <trkpt lat="45.36822" lon="5.58175">
        <ele>330.3502197</ele>
        <time>2010-09-25T17:01:15Z</time>
      </trkpt>
      <trkpt lat="45.36829" lon="5.58185">
        <ele>330.3502197</ele>
        <time>2010-09-25T17:01:20Z</time>
      </trkpt>
      <trkpt lat="45.36843" lon="5.58187">
        <ele>330.8309326</ele>
        <time>2010-09-25T17:01:25Z</time>
      </trkpt>
      <trkpt lat="45.36854" lon="5.58191">
        <ele>330.8309326</ele>
        <time>2010-09-25T17:01:29Z</time>
      </trkpt>
      <trkpt lat="45.36865" lon="5.58192">
        <ele>330.3502197</ele>
        <time>2010-09-25T17:01:33Z</time>
      </trkpt>
      <trkpt lat="45.36875" lon="5.58195">
        <ele>330.8309326</ele>
        <time>2010-09-25T17:01:37Z</time>
      </trkpt>
      <trkpt lat="45.36881" lon="5.58204">
        <ele>331.3115234</ele>
        <time>2010-09-25T17:01:41Z</time>
      </trkpt>
      <trkpt lat="45.36885" lon="5.58218">
        <ele>330.8309326</ele>
        <time>2010-09-25T17:01:45Z</time>
      </trkpt>
      <trkpt lat="45.36888" lon="5.58234">
        <ele>331.7921143</ele>
        <time>2010-09-25T17:01:49Z</time>
      </trkpt>
      <trkpt lat="45.3689" lon="5.58248">
        <ele>331.7921143</ele>
        <time>2010-09-25T17:01:53Z</time>
      </trkpt>
      <trkpt lat="45.36892" lon="5.58265">
        <ele>331.3115234</ele>
        <time>2010-09-25T17:01:57Z</time>
      </trkpt>
      <trkpt lat="45.36892" lon="5.5828">
        <ele>331.7921143</ele>
        <time>2010-09-25T17:02:00Z</time>
      </trkpt>
      <trkpt lat="45.36896" lon="5.5829">
        <ele>330.8309326</ele>
        <time>2010-09-25T17:02:03Z</time>
      </trkpt>
      <trkpt lat="45.36896" lon="5.58306">
        <ele>331.3115234</ele>
        <time>2010-09-25T17:02:06Z</time>
      </trkpt>
      <trkpt lat="45.36899" lon="5.58319">
        <ele>330.8309326</ele>
        <time>2010-09-25T17:02:10Z</time>
      </trkpt>
      <trkpt lat="45.36904" lon="5.58333">
        <ele>330.8309326</ele>
        <time>2010-09-25T17:02:14Z</time>
      </trkpt>
      <trkpt lat="45.36908" lon="5.58346">
        <ele>330.8309326</ele>
        <time>2010-09-25T17:02:18Z</time>
      </trkpt>
      <trkpt lat="45.36912" lon="5.58357">
        <ele>330.8309326</ele>
        <time>2010-09-25T17:02:22Z</time>
      </trkpt>
      <trkpt lat="45.36921" lon="5.58365">
        <ele>331.3115234</ele>
        <time>2010-09-25T17:02:26Z</time>
      </trkpt>
      <trkpt lat="45.36932" lon="5.58372">
        <ele>330.8309326</ele>
        <time>2010-09-25T17:02:29Z</time>
      </trkpt>
      <trkpt lat="45.36939" lon="5.5838">
        <ele>330.8309326</ele>
        <time>2010-09-25T17:02:33Z</time>
      </trkpt>
      <trkpt lat="45.36943" lon="5.58398">
        <ele>331.3115234</ele>
        <time>2010-09-25T17:02:38Z</time>
      </trkpt>
      <trkpt lat="45.36945" lon="5.58415">
        <ele>330.8309326</ele>
        <time>2010-09-25T17:02:44Z</time>
      </trkpt>
      <trkpt lat="45.36949" lon="5.58434">
        <ele>331.3115234</ele>
        <time>2010-09-25T17:02:48Z</time>
      </trkpt>
      <trkpt lat="45.36954" lon="5.58447">
        <ele>330.8309326</ele>
        <time>2010-09-25T17:02:52Z</time>
      </trkpt>
      <trkpt lat="45.36956" lon="5.58462">
        <ele>330.8309326</ele>
        <time>2010-09-25T17:02:56Z</time>
      </trkpt>
      <trkpt lat="45.36959" lon="5.58481">
        <ele>331.7921143</ele>
        <time>2010-09-25T17:03:01Z</time>
      </trkpt>
      <trkpt lat="45.36961" lon="5.58501">
        <ele>331.7921143</ele>
        <time>2010-09-25T17:03:06Z</time>
      </trkpt>
      <trkpt lat="45.36967" lon="5.58515">
        <ele>331.3115234</ele>
        <time>2010-09-25T17:03:12Z</time>
      </trkpt>
      <trkpt lat="45.36977" lon="5.58524">
        <ele>331.3115234</ele>
        <time>2010-09-25T17:03:16Z</time>
      </trkpt>
      <trkpt lat="45.36984" lon="5.58535">
        <ele>331.7921143</ele>
        <time>2010-09-25T17:03:21Z</time>
      </trkpt>
      <trkpt lat="45.36997" lon="5.58547">
        <ele>330.8309326</ele>
        <time>2010-09-25T17:03:26Z</time>
      </trkpt>
      <trkpt lat="45.37001" lon="5.58562">
        <ele>330.8309326</ele>
        <time>2010-09-25T17:03:31Z</time>
      </trkpt>
      <trkpt lat="45.37007" lon="5.58576">
        <ele>330.3502197</ele>
        <time>2010-09-25T17:03:36Z</time>
      </trkpt>
      <trkpt lat="45.37013" lon="5.58587">
        <ele>329.388916</ele>
        <time>2010-09-25T17:03:40Z</time>
      </trkpt>
      <trkpt lat="45.37024" lon="5.58591">
        <ele>328.9083252</ele>
        <time>2010-09-25T17:03:44Z</time>
      </trkpt>
      <trkpt lat="45.3703" lon="5.58604">
        <ele>328.9083252</ele>
        <time>2010-09-25T17:03:48Z</time>
      </trkpt>
      <trkpt lat="45.37027" lon="5.58624">
        <ele>327.9467773</ele>
        <time>2010-09-25T17:03:53Z</time>
      </trkpt>
      <trkpt lat="45.37021" lon="5.58636">
        <ele>327.9467773</ele>
        <time>2010-09-25T17:03:57Z</time>
      </trkpt>
      <trkpt lat="45.37015" lon="5.58653">
        <ele>327.9467773</ele>
        <time>2010-09-25T17:04:02Z</time>
      </trkpt>
      <trkpt lat="45.37013" lon="5.58677">
        <ele>327.9467773</ele>
        <time>2010-09-25T17:04:09Z</time>
      </trkpt>
      <trkpt lat="45.3701" lon="5.58694">
        <ele>327.9467773</ele>
        <time>2010-09-25T17:04:14Z</time>
      </trkpt>
      <trkpt lat="45.37003" lon="5.58713">
        <ele>328.4276123</ele>
        <time>2010-09-25T17:04:19Z</time>
      </trkpt>
      <trkpt lat="45.36999" lon="5.58729">
        <ele>327.4661865</ele>
        <time>2010-09-25T17:04:26Z</time>
      </trkpt>
      <trkpt lat="45.36994" lon="5.58749">
        <ele>328.4276123</ele>
        <time>2010-09-25T17:04:33Z</time>
      </trkpt>
      <trkpt lat="45.3699" lon="5.58768">
        <ele>328.4276123</ele>
        <time>2010-09-25T17:04:38Z</time>
      </trkpt>
      <trkpt lat="45.36985" lon="5.58787">
        <ele>329.388916</ele>
        <time>2010-09-25T17:04:42Z</time>
      </trkpt>
      <trkpt lat="45.36983" lon="5.58802">
        <ele>329.388916</ele>
        <time>2010-09-25T17:04:48Z</time>
      </trkpt>
      <trkpt lat="45.36986" lon="5.58818">
        <ele>329.8695068</ele>
        <time>2010-09-25T17:04:53Z</time>
      </trkpt>
      <trkpt lat="45.36983" lon="5.58835">
        <ele>329.8695068</ele>
        <time>2010-09-25T17:04:58Z</time>
      </trkpt>
      <trkpt lat="45.3698" lon="5.58854">
        <ele>330.8309326</ele>
        <time>2010-09-25T17:05:02Z</time>
      </trkpt>
      <trkpt lat="45.36973" lon="5.5887">
        <ele>331.3115234</ele>
        <time>2010-09-25T17:05:07Z</time>
      </trkpt>
      <trkpt lat="45.36969" lon="5.58888">
        <ele>331.7921143</ele>
        <time>2010-09-25T17:05:12Z</time>
      </trkpt>
      <trkpt lat="45.36969" lon="5.58909">
        <ele>331.7921143</ele>
        <time>2010-09-25T17:05:18Z</time>
      </trkpt>
      <trkpt lat="45.36972" lon="5.58928">
        <ele>332.2728271</ele>
        <time>2010-09-25T17:05:23Z</time>
      </trkpt>
      <trkpt lat="45.3697" lon="5.58946">
        <ele>332.75354</ele>
        <time>2010-09-25T17:05:29Z</time>
      </trkpt>
      <trkpt lat="45.3697" lon="5.58965">
        <ele>332.75354</ele>
        <time>2010-09-25T17:05:35Z</time>
      </trkpt>
      <trkpt lat="45.36968" lon="5.58984">
        <ele>332.2728271</ele>
        <time>2010-09-25T17:05:40Z</time>
      </trkpt>
      <trkpt lat="45.36967" lon="5.59006">
        <ele>332.2728271</ele>
        <time>2010-09-25T17:05:46Z</time>
      </trkpt>
      <trkpt lat="45.36967" lon="5.59026">
        <ele>331.7921143</ele>
        <time>2010-09-25T17:05:50Z</time>
      </trkpt>
      <trkpt lat="45.36966" lon="5.59046">
        <ele>331.3115234</ele>
        <time>2010-09-25T17:05:54Z</time>
      </trkpt>
      <trkpt lat="45.36967" lon="5.59063">
        <ele>330.8309326</ele>
        <time>2010-09-25T17:05:59Z</time>
      </trkpt>
      <trkpt lat="45.36968" lon="5.59082">
        <ele>328.9083252</ele>
        <time>2010-09-25T17:06:03Z</time>
      </trkpt>
      <trkpt lat="45.36967" lon="5.59103">
        <ele>327.9467773</ele>
        <time>2010-09-25T17:06:07Z</time>
      </trkpt>
      <trkpt lat="45.3697" lon="5.59119">
        <ele>327.9467773</ele>
        <time>2010-09-25T17:06:11Z</time>
      </trkpt>
      <trkpt lat="45.36973" lon="5.5914">
        <ele>326.9855957</ele>
        <time>2010-09-25T17:06:15Z</time>
      </trkpt>
      <trkpt lat="45.36978" lon="5.59153">
        <ele>326.5048828</ele>
        <time>2010-09-25T17:06:19Z</time>
      </trkpt>
      <trkpt lat="45.36984" lon="5.59164">
        <ele>326.9855957</ele>
        <time>2010-09-25T17:06:23Z</time>
      </trkpt>
      <trkpt lat="45.36992" lon="5.59174">
        <ele>326.9855957</ele>
        <time>2010-09-25T17:06:27Z</time>
      </trkpt>
      <trkpt lat="45.36998" lon="5.59184">
        <ele>326.9855957</ele>
        <time>2010-09-25T17:06:31Z</time>
      </trkpt>
      <trkpt lat="45.37003" lon="5.59195">
        <ele>327.4661865</ele>
        <time>2010-09-25T17:06:35Z</time>
      </trkpt>
      <trkpt lat="45.37007" lon="5.59214">
        <ele>327.4661865</ele>
        <time>2010-09-25T17:06:39Z</time>
      </trkpt>
      <trkpt lat="45.37013" lon="5.59224">
        <ele>327.9467773</ele>
        <time>2010-09-25T17:06:43Z</time>
      </trkpt>
      <trkpt lat="45.37023" lon="5.59228">
        <ele>327.4661865</ele>
        <time>2010-09-25T17:06:47Z</time>
      </trkpt>
      <trkpt lat="45.37027" lon="5.59241">
        <ele>327.9467773</ele>
        <time>2010-09-25T17:06:51Z</time>
      </trkpt>
      <trkpt lat="45.37029" lon="5.59258">
        <ele>327.4661865</ele>
        <time>2010-09-25T17:06:55Z</time>
      </trkpt>
      <trkpt lat="45.37033" lon="5.59273">
        <ele>328.4276123</ele>
        <time>2010-09-25T17:06:59Z</time>
      </trkpt>
      <trkpt lat="45.37035" lon="5.59288">
        <ele>327.9467773</ele>
        <time>2010-09-25T17:07:03Z</time>
      </trkpt>
      <trkpt lat="45.37038" lon="5.59302">
        <ele>328.4276123</ele>
        <time>2010-09-25T17:07:07Z</time>
      </trkpt>
      <trkpt lat="45.37043" lon="5.59311">
        <ele>328.9083252</ele>
        <time>2010-09-25T17:07:11Z</time>
      </trkpt>
      <trkpt lat="45.37046" lon="5.59328">
        <ele>329.388916</ele>
        <time>2010-09-25T17:07:16Z</time>
      </trkpt>
      <trkpt lat="45.37047" lon="5.5934">
        <ele>329.8695068</ele>
        <time>2010-09-25T17:07:21Z</time>
      </trkpt>
      <trkpt lat="45.37044" lon="5.59359">
        <ele>329.8695068</ele>
        <time>2010-09-25T17:07:26Z</time>
      </trkpt>
      <trkpt lat="45.37041" lon="5.59374">
        <ele>330.8309326</ele>
        <time>2010-09-25T17:07:31Z</time>
      </trkpt>
      <trkpt lat="45.3704" lon="5.59385">
        <ele>330.8309326</ele>
        <time>2010-09-25T17:07:35Z</time>
      </trkpt>
      <trkpt lat="45.3704" lon="5.59403">
        <ele>332.2728271</ele>
        <time>2010-09-25T17:07:39Z</time>
      </trkpt>
      <trkpt lat="45.37041" lon="5.59416">
        <ele>332.75354</ele>
        <time>2010-09-25T17:07:44Z</time>
      </trkpt>
      <trkpt lat="45.37045" lon="5.59431">
        <ele>333.2341309</ele>
        <time>2010-09-25T17:07:50Z</time>
      </trkpt>
      <trkpt lat="45.3705" lon="5.59447">
        <ele>334.1954346</ele>
        <time>2010-09-25T17:07:55Z</time>
      </trkpt>
      <trkpt lat="45.37054" lon="5.59467">
        <ele>335.1567383</ele>
        <time>2010-09-25T17:08:01Z</time>
      </trkpt>
      <trkpt lat="45.37057" lon="5.5948">
        <ele>336.598877</ele>
        <time>2010-09-25T17:08:07Z</time>
      </trkpt>
      <trkpt lat="45.37056" lon="5.59498">
        <ele>337.0794678</ele>
        <time>2010-09-25T17:08:12Z</time>
      </trkpt>
      <trkpt lat="45.3706" lon="5.59514">
        <ele>338.0407715</ele>
        <time>2010-09-25T17:08:18Z</time>
      </trkpt>
      <trkpt lat="45.37063" lon="5.59532">
        <ele>339.482666</ele>
        <time>2010-09-25T17:08:25Z</time>
      </trkpt>
      <trkpt lat="45.37067" lon="5.59549">
        <ele>339.482666</ele>
        <time>2010-09-25T17:08:29Z</time>
      </trkpt>
      <trkpt lat="45.37075" lon="5.59562">
        <ele>340.4440918</ele>
        <time>2010-09-25T17:08:34Z</time>
      </trkpt>
      <trkpt lat="45.37079" lon="5.59577">
        <ele>340.9246826</ele>
        <time>2010-09-25T17:08:39Z</time>
      </trkpt>
      <trkpt lat="45.37084" lon="5.59587">
        <ele>341.8859863</ele>
        <time>2010-09-25T17:08:43Z</time>
      </trkpt>
      <trkpt lat="45.37087" lon="5.59603">
        <ele>342.3666992</ele>
        <time>2010-09-25T17:08:50Z</time>
      </trkpt>
      <trkpt lat="45.37089" lon="5.5962">
        <ele>343.3278809</ele>
        <time>2010-09-25T17:08:55Z</time>
      </trkpt>
      <trkpt lat="45.37091" lon="5.59639">
        <ele>344.2894287</ele>
        <time>2010-09-25T17:08:59Z</time>
      </trkpt>
      <trkpt lat="45.3709" lon="5.59653">
        <ele>344.2894287</ele>
        <time>2010-09-25T17:09:02Z</time>
      </trkpt>
      <trkpt lat="45.37091" lon="5.59667">
        <ele>344.7700195</ele>
        <time>2010-09-25T17:09:07Z</time>
      </trkpt>
      <trkpt lat="45.37092" lon="5.59683">
        <ele>345.7313232</ele>
        <time>2010-09-25T17:09:13Z</time>
      </trkpt>
      <trkpt lat="45.37091" lon="5.59698">
        <ele>347.6539307</ele>
        <time>2010-09-25T17:09:19Z</time>
      </trkpt>
      <trkpt lat="45.37087" lon="5.59713">
        <ele>348.1346436</ele>
        <time>2010-09-25T17:09:24Z</time>
      </trkpt>
      <trkpt lat="45.37089" lon="5.59729">
        <ele>349.0958252</ele>
        <time>2010-09-25T17:09:29Z</time>
      </trkpt>
      <trkpt lat="45.37089" lon="5.59747">
        <ele>349.5765381</ele>
        <time>2010-09-25T17:09:35Z</time>
      </trkpt>
      <trkpt lat="45.37087" lon="5.59761">
        <ele>350.057251</ele>
        <time>2010-09-25T17:09:40Z</time>
      </trkpt>
      <trkpt lat="45.37087" lon="5.59779">
        <ele>351.0184326</ele>
        <time>2010-09-25T17:09:45Z</time>
      </trkpt>
      <trkpt lat="45.37085" lon="5.59791">
        <ele>351.4991455</ele>
        <time>2010-09-25T17:09:49Z</time>
      </trkpt>
      <trkpt lat="45.37081" lon="5.59802">
        <ele>351.4991455</ele>
        <time>2010-09-25T17:09:54Z</time>
      </trkpt>
      <trkpt lat="45.37075" lon="5.59815">
        <ele>352.4605713</ele>
        <time>2010-09-25T17:09:59Z</time>
      </trkpt>
      <trkpt lat="45.37072" lon="5.59829">
        <ele>353.421875</ele>
        <time>2010-09-25T17:10:05Z</time>
      </trkpt>
      <trkpt lat="45.3707" lon="5.59844">
        <ele>354.3831787</ele>
        <time>2010-09-25T17:10:11Z</time>
      </trkpt>
      <trkpt lat="45.37067" lon="5.59861">
        <ele>354.8637695</ele>
        <time>2010-09-25T17:10:16Z</time>
      </trkpt>
      <trkpt lat="45.37059" lon="5.59874">
        <ele>355.8251953</ele>
        <time>2010-09-25T17:10:21Z</time>
      </trkpt>
      <trkpt lat="45.37055" lon="5.59884">
        <ele>355.8251953</ele>
        <time>2010-09-25T17:10:25Z</time>
      </trkpt>
      <trkpt lat="45.37051" lon="5.59899">
        <ele>355.8251953</ele>
        <time>2010-09-25T17:10:30Z</time>
      </trkpt>
      <trkpt lat="45.37045" lon="5.59912">
        <ele>356.3057861</ele>
        <time>2010-09-25T17:10:34Z</time>
      </trkpt>
      <trkpt lat="45.37041" lon="5.59926">
        <ele>355.8251953</ele>
        <time>2010-09-25T17:10:39Z</time>
      </trkpt>
      <trkpt lat="45.37037" lon="5.59939">
        <ele>356.3057861</ele>
        <time>2010-09-25T17:10:43Z</time>
      </trkpt>
      <trkpt lat="45.37031" lon="5.59953">
        <ele>356.3057861</ele>
        <time>2010-09-25T17:10:48Z</time>
      </trkpt>
      <trkpt lat="45.3703" lon="5.59969">
        <ele>356.786377</ele>
        <time>2010-09-25T17:10:53Z</time>
      </trkpt>
      <trkpt lat="45.37021" lon="5.59983">
        <ele>356.786377</ele>
        <time>2010-09-25T17:10:57Z</time>
      </trkpt>
      <trkpt lat="45.37013" lon="5.59999">
        <ele>356.786377</ele>
        <time>2010-09-25T17:11:02Z</time>
      </trkpt>
      <trkpt lat="45.37006" lon="5.60015">
        <ele>357.2670898</ele>
        <time>2010-09-25T17:11:08Z</time>
      </trkpt>
      <trkpt lat="45.37001" lon="5.60028">
        <ele>357.2670898</ele>
        <time>2010-09-25T17:11:12Z</time>
      </trkpt>
      <trkpt lat="45.36997" lon="5.60044">
        <ele>356.3057861</ele>
        <time>2010-09-25T17:11:18Z</time>
      </trkpt>
      <trkpt lat="45.36993" lon="5.60063">
        <ele>355.8251953</ele>
        <time>2010-09-25T17:11:24Z</time>
      </trkpt>
      <trkpt lat="45.36994" lon="5.60078">
        <ele>355.8251953</ele>
        <time>2010-09-25T17:11:28Z</time>
      </trkpt>
      <trkpt lat="45.36993" lon="5.60095">
        <ele>355.8251953</ele>
        <time>2010-09-25T17:11:34Z</time>
      </trkpt>
      <trkpt lat="45.36997" lon="5.60114">
        <ele>355.8251953</ele>
        <time>2010-09-25T17:11:40Z</time>
      </trkpt>
      <trkpt lat="45.36992" lon="5.60133">
        <ele>355.8251953</ele>
        <time>2010-09-25T17:11:46Z</time>
      </trkpt>
      <trkpt lat="45.36988" lon="5.60152">
        <ele>356.786377</ele>
        <time>2010-09-25T17:11:52Z</time>
      </trkpt>
      <trkpt lat="45.36981" lon="5.60172">
        <ele>356.786377</ele>
        <time>2010-09-25T17:11:59Z</time>
      </trkpt>
      <trkpt lat="45.36971" lon="5.60198">
        <ele>356.786377</ele>
        <time>2010-09-25T17:12:08Z</time>
      </trkpt>
      <trkpt lat="45.36957" lon="5.60216">
        <ele>356.3057861</ele>
        <time>2010-09-25T17:12:14Z</time>
      </trkpt>
      <trkpt lat="45.36948" lon="5.60228">
        <ele>356.786377</ele>
        <time>2010-09-25T17:12:20Z</time>
      </trkpt>
      <trkpt lat="45.36938" lon="5.60244">
        <ele>357.2670898</ele>
        <time>2010-09-25T17:12:26Z</time>
      </trkpt>
      <trkpt lat="45.36928" lon="5.60257">
        <ele>357.2670898</ele>
        <time>2010-09-25T17:12:31Z</time>
      </trkpt>
      <trkpt lat="45.36919" lon="5.60269">
        <ele>357.7478027</ele>
        <time>2010-09-25T17:12:36Z</time>
      </trkpt>
      <trkpt lat="45.36904" lon="5.60277">
        <ele>357.2670898</ele>
        <time>2010-09-25T17:12:41Z</time>
      </trkpt>
      <trkpt lat="45.36892" lon="5.60288">
        <ele>357.7478027</ele>
        <time>2010-09-25T17:12:46Z</time>
      </trkpt>
      <trkpt lat="45.36885" lon="5.603">
        <ele>357.2670898</ele>
        <time>2010-09-25T17:12:50Z</time>
      </trkpt>
      <trkpt lat="45.36875" lon="5.60309">
        <ele>357.7478027</ele>
        <time>2010-09-25T17:12:53Z</time>
      </trkpt>
      <trkpt lat="45.36857" lon="5.60313">
        <ele>358.2283936</ele>
        <time>2010-09-25T17:12:57Z</time>
      </trkpt>
      <trkpt lat="45.3685" lon="5.60327">
        <ele>358.2283936</ele>
        <time>2010-09-25T17:13:02Z</time>
      </trkpt>
      <trkpt lat="45.36849" lon="5.60344">
        <ele>358.2283936</ele>
        <time>2010-09-25T17:13:07Z</time>
      </trkpt>
      <trkpt lat="45.36839" lon="5.60354">
        <ele>357.7478027</ele>
        <time>2010-09-25T17:13:12Z</time>
      </trkpt>
      <trkpt lat="45.36833" lon="5.6037">
        <ele>357.7478027</ele>
        <time>2010-09-25T17:13:18Z</time>
      </trkpt>
      <trkpt lat="45.36819" lon="5.60379">
        <ele>357.7478027</ele>
        <time>2010-09-25T17:13:22Z</time>
      </trkpt>
      <trkpt lat="45.36806" lon="5.60388">
        <ele>357.2670898</ele>
        <time>2010-09-25T17:13:26Z</time>
      </trkpt>
      <trkpt lat="45.3679" lon="5.604">
        <ele>357.2670898</ele>
        <time>2010-09-25T17:13:30Z</time>
      </trkpt>
      <trkpt lat="45.36782" lon="5.60412">
        <ele>357.2670898</ele>
        <time>2010-09-25T17:13:34Z</time>
      </trkpt>
      <trkpt lat="45.36779" lon="5.60428">
        <ele>357.7478027</ele>
        <time>2010-09-25T17:13:39Z</time>
      </trkpt>
      <trkpt lat="45.36781" lon="5.60444">
        <ele>358.2283936</ele>
        <time>2010-09-25T17:13:45Z</time>
      </trkpt>
      <trkpt lat="45.36782" lon="5.60461">
        <ele>357.7478027</ele>
        <time>2010-09-25T17:13:50Z</time>
      </trkpt>
      <trkpt lat="45.36789" lon="5.60475">
        <ele>358.7089844</ele>
        <time>2010-09-25T17:13:55Z</time>
      </trkpt>
      <trkpt lat="45.36804" lon="5.6048">
        <ele>359.1896973</ele>
        <time>2010-09-25T17:14:00Z</time>
      </trkpt>
      <trkpt lat="45.36811" lon="5.60498">
        <ele>361.1124268</ele>
        <time>2010-09-25T17:14:08Z</time>
      </trkpt>
      <trkpt lat="45.36818" lon="5.60512">
        <ele>362.5543213</ele>
        <time>2010-09-25T17:14:13Z</time>
      </trkpt>
      <trkpt lat="45.36829" lon="5.60521">
        <ele>363.5157471</ele>
        <time>2010-09-25T17:14:17Z</time>
      </trkpt>
      <trkpt lat="45.36838" lon="5.60534">
        <ele>364.9576416</ele>
        <time>2010-09-25T17:14:22Z</time>
      </trkpt>
      <trkpt lat="45.36845" lon="5.60546">
        <ele>365.4383545</ele>
        <time>2010-09-25T17:14:27Z</time>
      </trkpt>
      <trkpt lat="45.36852" lon="5.60559">
        <ele>365.9189453</ele>
        <time>2010-09-25T17:14:31Z</time>
      </trkpt>
      <trkpt lat="45.36858" lon="5.60576">
        <ele>365.9189453</ele>
        <time>2010-09-25T17:14:36Z</time>
      </trkpt>
      <trkpt lat="45.36864" lon="5.60588">
        <ele>366.880249</ele>
        <time>2010-09-25T17:14:40Z</time>
      </trkpt>
      <trkpt lat="45.36871" lon="5.60599">
        <ele>367.3609619</ele>
        <time>2010-09-25T17:14:44Z</time>
      </trkpt>
      <trkpt lat="45.36877" lon="5.60613">
        <ele>368.3222656</ele>
        <time>2010-09-25T17:14:49Z</time>
      </trkpt>
      <trkpt lat="45.36882" lon="5.60627">
        <ele>368.3222656</ele>
        <time>2010-09-25T17:14:54Z</time>
      </trkpt>
      <trkpt lat="45.36889" lon="5.60644">
        <ele>368.8029785</ele>
        <time>2010-09-25T17:14:59Z</time>
      </trkpt>
      <trkpt lat="45.36895" lon="5.60657">
        <ele>369.7642822</ele>
        <time>2010-09-25T17:15:03Z</time>
      </trkpt>
      <trkpt lat="45.36902" lon="5.60671">
        <ele>370.244873</ele>
        <time>2010-09-25T17:15:08Z</time>
      </trkpt>
      <trkpt lat="45.36907" lon="5.60683">
        <ele>370.7255859</ele>
        <time>2010-09-25T17:15:13Z</time>
      </trkpt>
      <trkpt lat="45.36912" lon="5.60702">
        <ele>371.6868896</ele>
        <time>2010-09-25T17:15:19Z</time>
      </trkpt>
      <trkpt lat="45.36912" lon="5.60721">
        <ele>372.1674805</ele>
        <time>2010-09-25T17:15:24Z</time>
      </trkpt>
      <trkpt lat="45.36921" lon="5.60734">
        <ele>373.1289063</ele>
        <time>2010-09-25T17:15:29Z</time>
      </trkpt>
      <trkpt lat="45.36919" lon="5.60749">
        <ele>373.6094971</ele>
        <time>2010-09-25T17:15:34Z</time>
      </trkpt>
      <trkpt lat="45.36923" lon="5.60767">
        <ele>374.5708008</ele>
        <time>2010-09-25T17:15:39Z</time>
      </trkpt>
      <trkpt lat="45.36931" lon="5.60779">
        <ele>375.0515137</ele>
        <time>2010-09-25T17:15:45Z</time>
      </trkpt>
      <trkpt lat="45.36928" lon="5.60794">
        <ele>376.4935303</ele>
        <time>2010-09-25T17:15:50Z</time>
      </trkpt>
      <trkpt lat="45.36924" lon="5.60814">
        <ele>377.9354248</ele>
        <time>2010-09-25T17:15:58Z</time>
      </trkpt>
      <trkpt lat="45.36928" lon="5.60834">
        <ele>378.4161377</ele>
        <time>2010-09-25T17:16:03Z</time>
      </trkpt>
      <trkpt lat="45.36928" lon="5.60853">
        <ele>379.3774414</ele>
        <time>2010-09-25T17:16:09Z</time>
      </trkpt>
      <trkpt lat="45.36927" lon="5.60874">
        <ele>379.3774414</ele>
        <time>2010-09-25T17:16:15Z</time>
      </trkpt>
      <trkpt lat="45.36927" lon="5.60894">
        <ele>379.3774414</ele>
        <time>2010-09-25T17:16:19Z</time>
      </trkpt>
      <trkpt lat="45.36932" lon="5.60905">
        <ele>379.3774414</ele>
        <time>2010-09-25T17:16:23Z</time>
      </trkpt>
      <trkpt lat="45.36938" lon="5.6092">
        <ele>379.8580322</ele>
        <time>2010-09-25T17:16:28Z</time>
      </trkpt>
      <trkpt lat="45.36943" lon="5.6093">
        <ele>380.3387451</ele>
        <time>2010-09-25T17:16:32Z</time>
      </trkpt>
      <trkpt lat="45.36948" lon="5.60943">
        <ele>379.8580322</ele>
        <time>2010-09-25T17:16:36Z</time>
      </trkpt>
      <trkpt lat="45.36958" lon="5.60951">
        <ele>379.8580322</ele>
        <time>2010-09-25T17:16:40Z</time>
      </trkpt>
      <trkpt lat="45.36964" lon="5.60964">
        <ele>380.3387451</ele>
        <time>2010-09-25T17:16:44Z</time>
      </trkpt>
      <trkpt lat="45.36974" lon="5.60968">
        <ele>379.3774414</ele>
        <time>2010-09-25T17:16:48Z</time>
      </trkpt>
      <trkpt lat="45.36982" lon="5.60976">
        <ele>378.8968506</ele>
        <time>2010-09-25T17:16:52Z</time>
      </trkpt>
      <trkpt lat="45.36988" lon="5.60988">
        <ele>378.4161377</ele>
        <time>2010-09-25T17:16:56Z</time>
      </trkpt>
      <trkpt lat="45.36996" lon="5.61003">
        <ele>377.9354248</ele>
        <time>2010-09-25T17:17:00Z</time>
      </trkpt>
      <trkpt lat="45.37" lon="5.61014">
        <ele>377.9354248</ele>
        <time>2010-09-25T17:17:04Z</time>
      </trkpt>
      <trkpt lat="45.37" lon="5.61034">
        <ele>377.9354248</ele>
        <time>2010-09-25T17:17:10Z</time>
      </trkpt>
      <trkpt lat="45.37" lon="5.61051">
        <ele>377.9354248</ele>
        <time>2010-09-25T17:17:15Z</time>
      </trkpt>
      <trkpt lat="45.37004" lon="5.61063">
        <ele>377.9354248</ele>
        <time>2010-09-25T17:17:19Z</time>
      </trkpt>
      <trkpt lat="45.37008" lon="5.61076">
        <ele>378.4161377</ele>
        <time>2010-09-25T17:17:24Z</time>
      </trkpt>
      <trkpt lat="45.37012" lon="5.61096">
        <ele>379.3774414</ele>
        <time>2010-09-25T17:17:30Z</time>
      </trkpt>
      <trkpt lat="45.37016" lon="5.61114">
        <ele>380.819458</ele>
        <time>2010-09-25T17:17:36Z</time>
      </trkpt>
      <trkpt lat="45.37013" lon="5.61134">
        <ele>381.3000488</ele>
        <time>2010-09-25T17:17:41Z</time>
      </trkpt>
      <trkpt lat="45.37011" lon="5.61153">
        <ele>381.7806396</ele>
        <time>2010-09-25T17:17:47Z</time>
      </trkpt>
      <trkpt lat="45.37015" lon="5.61167">
        <ele>382.7420654</ele>
        <time>2010-09-25T17:17:52Z</time>
      </trkpt>
      <trkpt lat="45.37021" lon="5.6118">
        <ele>383.2226563</ele>
        <time>2010-09-25T17:17:57Z</time>
      </trkpt>
      <trkpt lat="45.37023" lon="5.61197">
        <ele>383.7032471</ele>
        <time>2010-09-25T17:18:02Z</time>
      </trkpt>
      <trkpt lat="45.37026" lon="5.61213">
        <ele>384.184082</ele>
        <time>2010-09-25T17:18:07Z</time>
      </trkpt>
      <trkpt lat="45.37031" lon="5.61228">
        <ele>384.6647949</ele>
        <time>2010-09-25T17:18:12Z</time>
      </trkpt>
      <trkpt lat="45.37036" lon="5.61244">
        <ele>385.6259766</ele>
        <time>2010-09-25T17:18:18Z</time>
      </trkpt>
      <trkpt lat="45.37043" lon="5.61257">
        <ele>387.0679932</ele>
        <time>2010-09-25T17:18:24Z</time>
      </trkpt>
      <trkpt lat="45.37047" lon="5.61274">
        <ele>387.548584</ele>
        <time>2010-09-25T17:18:30Z</time>
      </trkpt>
      <trkpt lat="45.37054" lon="5.6129">
        <ele>388.5100098</ele>
        <time>2010-09-25T17:18:36Z</time>
      </trkpt>
      <trkpt lat="45.37058" lon="5.61301">
        <ele>388.9906006</ele>
        <time>2010-09-25T17:18:42Z</time>
      </trkpt>
      <trkpt lat="45.37064" lon="5.61313">
        <ele>390.4326172</ele>
        <time>2010-09-25T17:18:50Z</time>
      </trkpt>
      <trkpt lat="45.3708" lon="5.61335">
        <ele>389.9519043</ele>
        <time>2010-09-25T17:19:02Z</time>
      </trkpt>
      <trkpt lat="45.37104" lon="5.61356">
        <ele>389.9519043</ele>
        <time>2010-09-25T17:19:09Z</time>
      </trkpt>
      <trkpt lat="45.37113" lon="5.61365">
        <ele>390.4326172</ele>
        <time>2010-09-25T17:19:14Z</time>
      </trkpt>
      <trkpt lat="45.3712" lon="5.61377">
        <ele>390.913208</ele>
        <time>2010-09-25T17:19:19Z</time>
      </trkpt>
      <trkpt lat="45.37128" lon="5.61388">
        <ele>391.3937988</ele>
        <time>2010-09-25T17:19:24Z</time>
      </trkpt>
      <trkpt lat="45.37131" lon="5.61407">
        <ele>391.8745117</ele>
        <time>2010-09-25T17:19:29Z</time>
      </trkpt>
      <trkpt lat="45.37131" lon="5.61424">
        <ele>391.8745117</ele>
        <time>2010-09-25T17:19:34Z</time>
      </trkpt>
      <trkpt lat="45.37133" lon="5.6144">
        <ele>391.8745117</ele>
        <time>2010-09-25T17:19:39Z</time>
      </trkpt>
      <trkpt lat="45.37137" lon="5.61453">
        <ele>391.3937988</ele>
        <time>2010-09-25T17:19:44Z</time>
      </trkpt>
      <trkpt lat="45.37141" lon="5.61471">
        <ele>391.3937988</ele>
        <time>2010-09-25T17:19:50Z</time>
      </trkpt>
      <trkpt lat="45.3714" lon="5.61488">
        <ele>390.4326172</ele>
        <time>2010-09-25T17:19:56Z</time>
      </trkpt>
      <trkpt lat="45.37136" lon="5.61507">
        <ele>389.9519043</ele>
        <time>2010-09-25T17:20:01Z</time>
      </trkpt>
      <trkpt lat="45.37132" lon="5.61524">
        <ele>389.9519043</ele>
        <time>2010-09-25T17:20:07Z</time>
      </trkpt>
      <trkpt lat="45.37128" lon="5.61546">
        <ele>389.9519043</ele>
        <time>2010-09-25T17:20:12Z</time>
      </trkpt>
      <trkpt lat="45.37125" lon="5.6156">
        <ele>389.9519043</ele>
        <time>2010-09-25T17:20:17Z</time>
      </trkpt>
      <trkpt lat="45.37121" lon="5.61579">
        <ele>389.9519043</ele>
        <time>2010-09-25T17:20:22Z</time>
      </trkpt>
      <trkpt lat="45.37115" lon="5.61599">
        <ele>389.9519043</ele>
        <time>2010-09-25T17:20:27Z</time>
      </trkpt>
      <trkpt lat="45.37113" lon="5.61615">
        <ele>390.4326172</ele>
        <time>2010-09-25T17:20:32Z</time>
      </trkpt>
      <trkpt lat="45.3711" lon="5.6163">
        <ele>390.4326172</ele>
        <time>2010-09-25T17:20:37Z</time>
      </trkpt>
      <trkpt lat="45.3711" lon="5.61646">
        <ele>390.4326172</ele>
        <time>2010-09-25T17:20:42Z</time>
      </trkpt>
      <trkpt lat="45.37107" lon="5.61665">
        <ele>390.4326172</ele>
        <time>2010-09-25T17:20:47Z</time>
      </trkpt>
      <trkpt lat="45.37103" lon="5.61681">
        <ele>390.913208</ele>
        <time>2010-09-25T17:20:52Z</time>
      </trkpt>
      <trkpt lat="45.37097" lon="5.61701">
        <ele>391.3937988</ele>
        <time>2010-09-25T17:20:55Z</time>
      </trkpt>
      <trkpt lat="45.37094" lon="5.61715">
        <ele>391.8745117</ele>
        <time>2010-09-25T17:21:00Z</time>
      </trkpt>
      <trkpt lat="45.37091" lon="5.61727">
        <ele>391.8745117</ele>
        <time>2010-09-25T17:21:04Z</time>
      </trkpt>
      <trkpt lat="45.37085" lon="5.61739">
        <ele>391.8745117</ele>
        <time>2010-09-25T17:21:08Z</time>
      </trkpt>
      <trkpt lat="45.37078" lon="5.61753">
        <ele>391.3937988</ele>
        <time>2010-09-25T17:21:13Z</time>
      </trkpt>
      <trkpt lat="45.37069" lon="5.61765">
        <ele>391.8745117</ele>
        <time>2010-09-25T17:21:17Z</time>
      </trkpt>
      <trkpt lat="45.37065" lon="5.61775">
        <ele>392.8359375</ele>
        <time>2010-09-25T17:21:22Z</time>
      </trkpt>
      <trkpt lat="45.37056" lon="5.61785">
        <ele>392.8359375</ele>
        <time>2010-09-25T17:21:27Z</time>
      </trkpt>
      <trkpt lat="45.37048" lon="5.61798">
        <ele>393.7972412</ele>
        <time>2010-09-25T17:21:32Z</time>
      </trkpt>
      <trkpt lat="45.37039" lon="5.61809">
        <ele>394.7585449</ele>
        <time>2010-09-25T17:21:39Z</time>
      </trkpt>
      <trkpt lat="45.37029" lon="5.61824">
        <ele>395.2391357</ele>
        <time>2010-09-25T17:21:44Z</time>
      </trkpt>
      <trkpt lat="45.37024" lon="5.61838">
        <ele>396.2005615</ele>
        <time>2010-09-25T17:21:49Z</time>
      </trkpt>
      <trkpt lat="45.37022" lon="5.61852">
        <ele>397.1617432</ele>
        <time>2010-09-25T17:21:55Z</time>
      </trkpt>
      <trkpt lat="45.37018" lon="5.6187">
        <ele>397.6424561</ele>
        <time>2010-09-25T17:22:01Z</time>
      </trkpt>
      <trkpt lat="45.37015" lon="5.61885">
        <ele>398.1231689</ele>
        <time>2010-09-25T17:22:05Z</time>
      </trkpt>
      <trkpt lat="45.37014" lon="5.619">
        <ele>398.1231689</ele>
        <time>2010-09-25T17:22:09Z</time>
      </trkpt>
      <trkpt lat="45.37011" lon="5.61912">
        <ele>399.0843506</ele>
        <time>2010-09-25T17:22:13Z</time>
      </trkpt>
      <trkpt lat="45.37003" lon="5.61925">
        <ele>399.5650635</ele>
        <time>2010-09-25T17:22:19Z</time>
      </trkpt>
      <trkpt lat="45.36994" lon="5.61934">
        <ele>399.5650635</ele>
        <time>2010-09-25T17:22:24Z</time>
      </trkpt>
      <trkpt lat="45.36981" lon="5.61951">
        <ele>399.5650635</ele>
        <time>2010-09-25T17:22:32Z</time>
      </trkpt>
      <trkpt lat="45.36966" lon="5.6196">
        <ele>399.5650635</ele>
        <time>2010-09-25T17:22:37Z</time>
      </trkpt>
      <trkpt lat="45.36953" lon="5.61969">
        <ele>399.5650635</ele>
        <time>2010-09-25T17:22:42Z</time>
      </trkpt>
      <trkpt lat="45.36944" lon="5.61983">
        <ele>399.5650635</ele>
        <time>2010-09-25T17:22:48Z</time>
      </trkpt>
      <trkpt lat="45.36932" lon="5.61994">
        <ele>399.5650635</ele>
        <time>2010-09-25T17:22:54Z</time>
      </trkpt>
      <trkpt lat="45.36922" lon="5.62006">
        <ele>400.0458984</ele>
        <time>2010-09-25T17:23:00Z</time>
      </trkpt>
      <trkpt lat="45.36909" lon="5.62033">
        <ele>400.0458984</ele>
        <time>2010-09-25T17:23:08Z</time>
      </trkpt>
      <trkpt lat="45.369" lon="5.62044">
        <ele>400.0458984</ele>
        <time>2010-09-25T17:23:13Z</time>
      </trkpt>
      <trkpt lat="45.36892" lon="5.62051">
        <ele>400.0458984</ele>
        <time>2010-09-25T17:23:17Z</time>
      </trkpt>
      <trkpt lat="45.36883" lon="5.62063">
        <ele>400.0458984</ele>
        <time>2010-09-25T17:23:22Z</time>
      </trkpt>
      <trkpt lat="45.36873" lon="5.6207">
        <ele>400.5264893</ele>
        <time>2010-09-25T17:23:26Z</time>
      </trkpt>
      <trkpt lat="45.36863" lon="5.62077">
        <ele>400.5264893</ele>
        <time>2010-09-25T17:23:30Z</time>
      </trkpt>
      <trkpt lat="45.36855" lon="5.62085">
        <ele>400.5264893</ele>
        <time>2010-09-25T17:23:34Z</time>
      </trkpt>
      <trkpt lat="45.36845" lon="5.62094">
        <ele>401.0070801</ele>
        <time>2010-09-25T17:23:38Z</time>
      </trkpt>
      <trkpt lat="45.36838" lon="5.62099">
        <ele>401.487793</ele>
        <time>2010-09-25T17:23:42Z</time>
      </trkpt>
      <trkpt lat="45.3683" lon="5.62103">
        <ele>401.9685059</ele>
        <time>2010-09-25T17:23:46Z</time>
      </trkpt>
      <trkpt lat="45.36822" lon="5.6211">
        <ele>401.9685059</ele>
        <time>2010-09-25T17:23:50Z</time>
      </trkpt>
      <trkpt lat="45.36813" lon="5.62117">
        <ele>402.4490967</ele>
        <time>2010-09-25T17:23:55Z</time>
      </trkpt>
      <trkpt lat="45.36805" lon="5.62127">
        <ele>403.4104004</ele>
        <time>2010-09-25T17:24:00Z</time>
      </trkpt>
      <trkpt lat="45.36798" lon="5.62133">
        <ele>403.4104004</ele>
        <time>2010-09-25T17:24:04Z</time>
      </trkpt>
      <trkpt lat="45.36791" lon="5.62145">
        <ele>403.4104004</ele>
        <time>2010-09-25T17:24:09Z</time>
      </trkpt>
      <trkpt lat="45.36785" lon="5.62156">
        <ele>404.8522949</ele>
        <time>2010-09-25T17:24:14Z</time>
      </trkpt>
      <trkpt lat="45.36777" lon="5.62166">
        <ele>404.8522949</ele>
        <time>2010-09-25T17:24:19Z</time>
      </trkpt>
      <trkpt lat="45.36766" lon="5.6217">
        <ele>406.2943115</ele>
        <time>2010-09-25T17:24:25Z</time>
      </trkpt>
      <trkpt lat="45.36756" lon="5.62163">
        <ele>406.7749023</ele>
        <time>2010-09-25T17:24:31Z</time>
      </trkpt>
      <trkpt lat="45.36746" lon="5.62154">
        <ele>408.6976318</ele>
        <time>2010-09-25T17:24:38Z</time>
      </trkpt>
      <trkpt lat="45.36739" lon="5.62138">
        <ele>408.6976318</ele>
        <time>2010-09-25T17:24:43Z</time>
      </trkpt>
      <trkpt lat="45.3673" lon="5.62124">
        <ele>410.1396484</ele>
        <time>2010-09-25T17:24:50Z</time>
      </trkpt>
      <trkpt lat="45.36718" lon="5.62119">
        <ele>411.581665</ele>
        <time>2010-09-25T17:24:57Z</time>
      </trkpt>
      <trkpt lat="45.36707" lon="5.62124">
        <ele>413.0235596</ele>
        <time>2010-09-25T17:25:04Z</time>
      </trkpt>
      <trkpt lat="45.36694" lon="5.62139">
        <ele>413.5042725</ele>
        <time>2010-09-25T17:25:11Z</time>
      </trkpt>
      <trkpt lat="45.36686" lon="5.62154">
        <ele>412.0622559</ele>
        <time>2010-09-25T17:25:51Z</time>
      </trkpt>
      <trkpt lat="45.36682" lon="5.62168">
        <ele>411.581665</ele>
        <time>2010-09-25T17:25:58Z</time>
      </trkpt>
      <trkpt lat="45.36679" lon="5.62184">
        <ele>412.0622559</ele>
        <time>2010-09-25T17:26:05Z</time>
      </trkpt>
      <trkpt lat="45.36673" lon="5.62192">
        <ele>411.1009521</ele>
        <time>2010-09-25T17:26:13Z</time>
      </trkpt>
      <trkpt lat="45.3667" lon="5.62205">
        <ele>411.1009521</ele>
        <time>2010-09-25T17:26:20Z</time>
      </trkpt>
      <trkpt lat="45.36664" lon="5.62218">
        <ele>411.581665</ele>
        <time>2010-09-25T17:26:27Z</time>
      </trkpt>
      <trkpt lat="45.36661" lon="5.6223">
        <ele>411.1009521</ele>
        <time>2010-09-25T17:26:34Z</time>
      </trkpt>
      <trkpt lat="45.3666" lon="5.62233">
        <ele>410.6202393</ele>
        <time>2010-09-25T17:26:47Z</time>
      </trkpt>
      <trkpt lat="45.36659" lon="5.6225">
        <ele>410.6202393</ele>
        <time>2010-09-25T17:26:59Z</time>
      </trkpt>
      <trkpt lat="45.36655" lon="5.62264">
        <ele>410.6202393</ele>
        <time>2010-09-25T17:27:09Z</time>
      </trkpt>
      <trkpt lat="45.36654" lon="5.62277">
        <ele>410.6202393</ele>
        <time>2010-09-25T17:27:18Z</time>
      </trkpt>
      <trkpt lat="45.3665" lon="5.62295">
        <ele>410.1396484</ele>
        <time>2010-09-25T17:27:27Z</time>
      </trkpt>
      <trkpt lat="45.36647" lon="5.62308">
        <ele>410.6202393</ele>
        <time>2010-09-25T17:27:35Z</time>
      </trkpt>
      <trkpt lat="45.36645" lon="5.6232">
        <ele>409.6590576</ele>
        <time>2010-09-25T17:27:40Z</time>
      </trkpt>
      <trkpt lat="45.36648" lon="5.62334">
        <ele>409.1783447</ele>
        <time>2010-09-25T17:27:44Z</time>
      </trkpt>
      <trkpt lat="45.36652" lon="5.6235">
        <ele>409.1783447</ele>
        <time>2010-09-25T17:27:48Z</time>
      </trkpt>
      <trkpt lat="45.36657" lon="5.62365">
        <ele>409.6590576</ele>
        <time>2010-09-25T17:27:52Z</time>
      </trkpt>
      <trkpt lat="45.36662" lon="5.62379">
        <ele>409.6590576</ele>
        <time>2010-09-25T17:27:56Z</time>
      </trkpt>
      <trkpt lat="45.36665" lon="5.62391">
        <ele>409.6590576</ele>
        <time>2010-09-25T17:27:59Z</time>
      </trkpt>
      <trkpt lat="45.36669" lon="5.62406">
        <ele>409.6590576</ele>
        <time>2010-09-25T17:28:03Z</time>
      </trkpt>
      <trkpt lat="45.36673" lon="5.62422">
        <ele>408.6976318</ele>
        <time>2010-09-25T17:28:07Z</time>
      </trkpt>
      <trkpt lat="45.36675" lon="5.62434">
        <ele>408.6976318</ele>
        <time>2010-09-25T17:28:10Z</time>
      </trkpt>
      <trkpt lat="45.36678" lon="5.6245">
        <ele>408.6976318</ele>
        <time>2010-09-25T17:28:14Z</time>
      </trkpt>
      <trkpt lat="45.36679" lon="5.62465">
        <ele>408.217041</ele>
        <time>2010-09-25T17:28:18Z</time>
      </trkpt>
      <trkpt lat="45.36681" lon="5.6248">
        <ele>408.217041</ele>
        <time>2010-09-25T17:28:22Z</time>
      </trkpt>
      <trkpt lat="45.36683" lon="5.62497">
        <ele>407.7363281</ele>
        <time>2010-09-25T17:28:26Z</time>
      </trkpt>
      <trkpt lat="45.36684" lon="5.62513">
        <ele>407.7363281</ele>
        <time>2010-09-25T17:28:30Z</time>
      </trkpt>
      <trkpt lat="45.36684" lon="5.62532">
        <ele>407.2556152</ele>
        <time>2010-09-25T17:28:34Z</time>
      </trkpt>
      <trkpt lat="45.36684" lon="5.62549">
        <ele>407.2556152</ele>
        <time>2010-09-25T17:28:38Z</time>
      </trkpt>
      <trkpt lat="45.36686" lon="5.62564">
        <ele>407.2556152</ele>
        <time>2010-09-25T17:28:42Z</time>
      </trkpt>
      <trkpt lat="45.36689" lon="5.62576">
        <ele>407.2556152</ele>
        <time>2010-09-25T17:28:46Z</time>
      </trkpt>
      <trkpt lat="45.36689" lon="5.62595">
        <ele>407.2556152</ele>
        <time>2010-09-25T17:28:50Z</time>
      </trkpt>
      <trkpt lat="45.36691" lon="5.62613">
        <ele>406.7749023</ele>
        <time>2010-09-25T17:28:54Z</time>
      </trkpt>
      <trkpt lat="45.36693" lon="5.62629">
        <ele>406.7749023</ele>
        <time>2010-09-25T17:28:58Z</time>
      </trkpt>
      <trkpt lat="45.36696" lon="5.62644">
        <ele>406.7749023</ele>
        <time>2010-09-25T17:29:02Z</time>
      </trkpt>
      <trkpt lat="45.36696" lon="5.62658">
        <ele>406.2943115</ele>
        <time>2010-09-25T17:29:05Z</time>
      </trkpt>
      <trkpt lat="45.36698" lon="5.62674">
        <ele>406.2943115</ele>
        <time>2010-09-25T17:29:09Z</time>
      </trkpt>
      <trkpt lat="45.367" lon="5.62689">
        <ele>406.2943115</ele>
        <time>2010-09-25T17:29:13Z</time>
      </trkpt>
      <trkpt lat="45.36702" lon="5.62703">
        <ele>406.2943115</ele>
        <time>2010-09-25T17:29:17Z</time>
      </trkpt>
      <trkpt lat="45.36702" lon="5.6272">
        <ele>406.2943115</ele>
        <time>2010-09-25T17:29:21Z</time>
      </trkpt>
      <trkpt lat="45.36702" lon="5.62736">
        <ele>406.7749023</ele>
        <time>2010-09-25T17:29:25Z</time>
      </trkpt>
      <trkpt lat="45.36705" lon="5.62751">
        <ele>406.7749023</ele>
        <time>2010-09-25T17:29:29Z</time>
      </trkpt>
      <trkpt lat="45.36706" lon="5.62765">
        <ele>406.7749023</ele>
        <time>2010-09-25T17:29:33Z</time>
      </trkpt>
      <trkpt lat="45.36708" lon="5.62779">
        <ele>406.2943115</ele>
        <time>2010-09-25T17:29:37Z</time>
      </trkpt>
      <trkpt lat="45.36708" lon="5.62791">
        <ele>406.7749023</ele>
        <time>2010-09-25T17:29:40Z</time>
      </trkpt>
      <trkpt lat="45.36709" lon="5.62807">
        <ele>406.7749023</ele>
        <time>2010-09-25T17:29:44Z</time>
      </trkpt>
      <trkpt lat="45.36711" lon="5.62822">
        <ele>407.2556152</ele>
        <time>2010-09-25T17:29:48Z</time>
      </trkpt>
      <trkpt lat="45.36712" lon="5.62837">
        <ele>407.2556152</ele>
        <time>2010-09-25T17:29:52Z</time>
      </trkpt>
      <trkpt lat="45.36714" lon="5.62851">
        <ele>407.2556152</ele>
        <time>2010-09-25T17:29:56Z</time>
      </trkpt>
      <trkpt lat="45.36715" lon="5.62865">
        <ele>407.2556152</ele>
        <time>2010-09-25T17:30:00Z</time>
      </trkpt>
      <trkpt lat="45.36716" lon="5.62881">
        <ele>407.7363281</ele>
        <time>2010-09-25T17:30:04Z</time>
      </trkpt>
      <trkpt lat="45.36717" lon="5.62897">
        <ele>407.7363281</ele>
        <time>2010-09-25T17:30:08Z</time>
      </trkpt>
      <trkpt lat="45.36717" lon="5.62911">
        <ele>407.7363281</ele>
        <time>2010-09-25T17:30:12Z</time>
      </trkpt>
      <trkpt lat="45.36718" lon="5.62926">
        <ele>407.7363281</ele>
        <time>2010-09-25T17:30:17Z</time>
      </trkpt>
      <trkpt lat="45.36715" lon="5.62939">
        <ele>408.217041</ele>
        <time>2010-09-25T17:30:21Z</time>
      </trkpt>
      <trkpt lat="45.36714" lon="5.62952">
        <ele>408.6976318</ele>
        <time>2010-09-25T17:30:25Z</time>
      </trkpt>
      <trkpt lat="45.36714" lon="5.62965">
        <ele>409.1783447</ele>
        <time>2010-09-25T17:30:29Z</time>
      </trkpt>
      <trkpt lat="45.36709" lon="5.62978">
        <ele>409.6590576</ele>
        <time>2010-09-25T17:30:34Z</time>
      </trkpt>
      <trkpt lat="45.36702" lon="5.6299">
        <ele>410.6202393</ele>
        <time>2010-09-25T17:30:39Z</time>
      </trkpt>
      <trkpt lat="45.36695" lon="5.63001">
        <ele>411.1009521</ele>
        <time>2010-09-25T17:30:44Z</time>
      </trkpt>
      <trkpt lat="45.3669" lon="5.63012">
        <ele>411.581665</ele>
        <time>2010-09-25T17:30:49Z</time>
      </trkpt>
      <trkpt lat="45.36684" lon="5.63025">
        <ele>413.0235596</ele>
        <time>2010-09-25T17:30:54Z</time>
      </trkpt>
      <trkpt lat="45.36677" lon="5.63039">
        <ele>413.0235596</ele>
        <time>2010-09-25T17:30:59Z</time>
      </trkpt>
      <trkpt lat="45.3667" lon="5.6305">
        <ele>413.0235596</ele>
        <time>2010-09-25T17:31:03Z</time>
      </trkpt>
      <trkpt lat="45.36664" lon="5.63064">
        <ele>413.0235596</ele>
        <time>2010-09-25T17:31:08Z</time>
      </trkpt>
      <trkpt lat="45.36658" lon="5.63078">
        <ele>413.5042725</ele>
        <time>2010-09-25T17:31:13Z</time>
      </trkpt>
      <trkpt lat="45.36651" lon="5.63091">
        <ele>413.9848633</ele>
        <time>2010-09-25T17:31:17Z</time>
      </trkpt>
      <trkpt lat="45.36646" lon="5.63103">
        <ele>413.9848633</ele>
        <time>2010-09-25T17:31:21Z</time>
      </trkpt>
      <trkpt lat="45.36639" lon="5.63118">
        <ele>413.5042725</ele>
        <time>2010-09-25T17:31:26Z</time>
      </trkpt>
      <trkpt lat="45.36634" lon="5.63131">
        <ele>413.5042725</ele>
        <time>2010-09-25T17:31:30Z</time>
      </trkpt>
      <trkpt lat="45.36628" lon="5.63144">
        <ele>413.5042725</ele>
        <time>2010-09-25T17:31:34Z</time>
      </trkpt>
      <trkpt lat="45.36622" lon="5.63158">
        <ele>413.5042725</ele>
        <time>2010-09-25T17:31:38Z</time>
      </trkpt>
      <trkpt lat="45.36618" lon="5.6317">
        <ele>413.5042725</ele>
        <time>2010-09-25T17:31:42Z</time>
      </trkpt>
      <trkpt lat="45.36613" lon="5.63184">
        <ele>413.0235596</ele>
        <time>2010-09-25T17:31:46Z</time>
      </trkpt>
      <trkpt lat="45.36609" lon="5.63198">
        <ele>413.0235596</ele>
        <time>2010-09-25T17:31:50Z</time>
      </trkpt>
      <trkpt lat="45.36605" lon="5.6321">
        <ele>413.0235596</ele>
        <time>2010-09-25T17:31:54Z</time>
      </trkpt>
      <trkpt lat="45.366" lon="5.63224">
        <ele>412.5428467</ele>
        <time>2010-09-25T17:31:58Z</time>
      </trkpt>
      <trkpt lat="45.36597" lon="5.63237">
        <ele>412.5428467</ele>
        <time>2010-09-25T17:32:02Z</time>
      </trkpt>
      <trkpt lat="45.36591" lon="5.63251">
        <ele>412.5428467</ele>
        <time>2010-09-25T17:32:07Z</time>
      </trkpt>
      <trkpt lat="45.36585" lon="5.63265">
        <ele>412.5428467</ele>
        <time>2010-09-25T17:32:12Z</time>
      </trkpt>
      <trkpt lat="45.36578" lon="5.6328">
        <ele>412.0622559</ele>
        <time>2010-09-25T17:32:17Z</time>
      </trkpt>
      <trkpt lat="45.36574" lon="5.63295">
        <ele>412.0622559</ele>
        <time>2010-09-25T17:32:21Z</time>
      </trkpt>
      <trkpt lat="45.3657" lon="5.63311">
        <ele>412.0622559</ele>
        <time>2010-09-25T17:32:25Z</time>
      </trkpt>
      <trkpt lat="45.36567" lon="5.63326">
        <ele>411.1009521</ele>
        <time>2010-09-25T17:32:29Z</time>
      </trkpt>
      <trkpt lat="45.36566" lon="5.6334">
        <ele>411.1009521</ele>
        <time>2010-09-25T17:32:33Z</time>
      </trkpt>
      <trkpt lat="45.36563" lon="5.63355">
        <ele>411.1009521</ele>
        <time>2010-09-25T17:32:37Z</time>
      </trkpt>
      <trkpt lat="45.36556" lon="5.63368">
        <ele>411.1009521</ele>
        <time>2010-09-25T17:32:41Z</time>
      </trkpt>
      <trkpt lat="45.36546" lon="5.63368">
        <ele>411.1009521</ele>
        <time>2010-09-25T17:32:45Z</time>
      </trkpt>
      <trkpt lat="45.36536" lon="5.63366">
        <ele>411.1009521</ele>
        <time>2010-09-25T17:32:49Z</time>
      </trkpt>
      <trkpt lat="45.36526" lon="5.63367">
        <ele>411.1009521</ele>
        <time>2010-09-25T17:32:53Z</time>
      </trkpt>
      <trkpt lat="45.36515" lon="5.6337">
        <ele>411.1009521</ele>
        <time>2010-09-25T17:32:58Z</time>
      </trkpt>
      <trkpt lat="45.36504" lon="5.63368">
        <ele>410.6202393</ele>
        <time>2010-09-25T17:33:03Z</time>
      </trkpt>
      <trkpt lat="45.36493" lon="5.6337">
        <ele>410.6202393</ele>
        <time>2010-09-25T17:33:09Z</time>
      </trkpt>
      <trkpt lat="45.36483" lon="5.63371">
        <ele>410.6202393</ele>
        <time>2010-09-25T17:33:14Z</time>
      </trkpt>
      <trkpt lat="45.36472" lon="5.63372">
        <ele>410.1396484</ele>
        <time>2010-09-25T17:33:19Z</time>
      </trkpt>
      <trkpt lat="45.36462" lon="5.63373">
        <ele>410.1396484</ele>
        <time>2010-09-25T17:33:24Z</time>
      </trkpt>
      <trkpt lat="45.3645" lon="5.63376">
        <ele>409.6590576</ele>
        <time>2010-09-25T17:33:29Z</time>
      </trkpt>
      <trkpt lat="45.36437" lon="5.63378">
        <ele>409.6590576</ele>
        <time>2010-09-25T17:33:34Z</time>
      </trkpt>
      <trkpt lat="45.36426" lon="5.63382">
        <ele>409.1783447</ele>
        <time>2010-09-25T17:33:38Z</time>
      </trkpt>
      <trkpt lat="45.36416" lon="5.63381">
        <ele>409.1783447</ele>
        <time>2010-09-25T17:33:42Z</time>
      </trkpt>
      <trkpt lat="45.36405" lon="5.63386">
        <ele>409.1783447</ele>
        <time>2010-09-25T17:33:47Z</time>
      </trkpt>
      <trkpt lat="45.36394" lon="5.6339">
        <ele>409.1783447</ele>
        <time>2010-09-25T17:33:52Z</time>
      </trkpt>
      <trkpt lat="45.36379" lon="5.63391">
        <ele>409.1783447</ele>
        <time>2010-09-25T17:33:57Z</time>
      </trkpt>
      <trkpt lat="45.36369" lon="5.63398">
        <ele>408.6976318</ele>
        <time>2010-09-25T17:34:01Z</time>
      </trkpt>
      <trkpt lat="45.36369" lon="5.63416">
        <ele>408.6976318</ele>
        <time>2010-09-25T17:34:06Z</time>
      </trkpt>
      <trkpt lat="45.36372" lon="5.63429">
        <ele>409.6590576</ele>
        <time>2010-09-25T17:34:10Z</time>
      </trkpt>
      <trkpt lat="45.36376" lon="5.63444">
        <ele>409.1783447</ele>
        <time>2010-09-25T17:34:14Z</time>
      </trkpt>
      <trkpt lat="45.36379" lon="5.63458">
        <ele>408.6976318</ele>
        <time>2010-09-25T17:34:18Z</time>
      </trkpt>
      <trkpt lat="45.36384" lon="5.6347">
        <ele>408.6976318</ele>
        <time>2010-09-25T17:34:22Z</time>
      </trkpt>
      <trkpt lat="45.36385" lon="5.63484">
        <ele>408.217041</ele>
        <time>2010-09-25T17:34:26Z</time>
      </trkpt>
      <trkpt lat="45.36387" lon="5.63503">
        <ele>408.6976318</ele>
        <time>2010-09-25T17:34:31Z</time>
      </trkpt>
      <trkpt lat="45.36386" lon="5.63519">
        <ele>408.6976318</ele>
        <time>2010-09-25T17:34:35Z</time>
      </trkpt>
      <trkpt lat="45.36387" lon="5.63533">
        <ele>408.217041</ele>
        <time>2010-09-25T17:34:39Z</time>
      </trkpt>
      <trkpt lat="45.3639" lon="5.63546">
        <ele>407.7363281</ele>
        <time>2010-09-25T17:34:43Z</time>
      </trkpt>
      <trkpt lat="45.36393" lon="5.6356">
        <ele>407.7363281</ele>
        <time>2010-09-25T17:34:47Z</time>
      </trkpt>
      <trkpt lat="45.36395" lon="5.63573">
        <ele>408.217041</ele>
        <time>2010-09-25T17:34:51Z</time>
      </trkpt>
      <trkpt lat="45.36401" lon="5.63585">
        <ele>408.217041</ele>
        <time>2010-09-25T17:34:55Z</time>
      </trkpt>
      <trkpt lat="45.36405" lon="5.63598">
        <ele>408.6976318</ele>
        <time>2010-09-25T17:34:59Z</time>
      </trkpt>
      <trkpt lat="45.36412" lon="5.63612">
        <ele>408.217041</ele>
        <time>2010-09-25T17:35:04Z</time>
      </trkpt>
      <trkpt lat="45.36419" lon="5.63625">
        <ele>408.217041</ele>
        <time>2010-09-25T17:35:08Z</time>
      </trkpt>
      <trkpt lat="45.36426" lon="5.63636">
        <ele>408.217041</ele>
        <time>2010-09-25T17:35:12Z</time>
      </trkpt>
      <trkpt lat="45.36432" lon="5.63651">
        <ele>407.7363281</ele>
        <time>2010-09-25T17:35:17Z</time>
      </trkpt>
      <trkpt lat="45.3644" lon="5.63664">
        <ele>408.217041</ele>
        <time>2010-09-25T17:35:22Z</time>
      </trkpt>
      <trkpt lat="45.36448" lon="5.63674">
        <ele>408.217041</ele>
        <time>2010-09-25T17:35:27Z</time>
      </trkpt>
      <trkpt lat="45.36456" lon="5.63684">
        <ele>407.7363281</ele>
        <time>2010-09-25T17:35:32Z</time>
      </trkpt>
      <trkpt lat="45.36468" lon="5.637">
        <ele>408.217041</ele>
        <time>2010-09-25T17:35:38Z</time>
      </trkpt>
      <trkpt lat="45.36474" lon="5.63711">
        <ele>408.217041</ele>
        <time>2010-09-25T17:35:43Z</time>
      </trkpt>
      <trkpt lat="45.36479" lon="5.63728">
        <ele>407.7363281</ele>
        <time>2010-09-25T17:35:48Z</time>
      </trkpt>
      <trkpt lat="45.36484" lon="5.63744">
        <ele>407.7363281</ele>
        <time>2010-09-25T17:35:52Z</time>
      </trkpt>
      <trkpt lat="45.36487" lon="5.63758">
        <ele>407.7363281</ele>
        <time>2010-09-25T17:35:56Z</time>
      </trkpt>
      <trkpt lat="45.36495" lon="5.63772">
        <ele>407.2556152</ele>
        <time>2010-09-25T17:36:00Z</time>
      </trkpt>
      <trkpt lat="45.36499" lon="5.63784">
        <ele>407.2556152</ele>
        <time>2010-09-25T17:36:04Z</time>
      </trkpt>
      <trkpt lat="45.36506" lon="5.63795">
        <ele>407.2556152</ele>
        <time>2010-09-25T17:36:09Z</time>
      </trkpt>
      <trkpt lat="45.3651" lon="5.63809">
        <ele>407.7363281</ele>
        <time>2010-09-25T17:36:13Z</time>
      </trkpt>
      <trkpt lat="45.36516" lon="5.63821">
        <ele>407.7363281</ele>
        <time>2010-09-25T17:36:17Z</time>
      </trkpt>
      <trkpt lat="45.36521" lon="5.63836">
        <ele>407.7363281</ele>
        <time>2010-09-25T17:36:22Z</time>
      </trkpt>
      <trkpt lat="45.36528" lon="5.63847">
        <ele>407.2556152</ele>
        <time>2010-09-25T17:36:26Z</time>
      </trkpt>
      <trkpt lat="45.36536" lon="5.63858">
        <ele>407.2556152</ele>
        <time>2010-09-25T17:36:31Z</time>
      </trkpt>
      <trkpt lat="45.36542" lon="5.6387">
        <ele>407.2556152</ele>
        <time>2010-09-25T17:36:35Z</time>
      </trkpt>
      <trkpt lat="45.36547" lon="5.63886">
        <ele>407.2556152</ele>
        <time>2010-09-25T17:36:39Z</time>
      </trkpt>
      <trkpt lat="45.3655" lon="5.639">
        <ele>407.2556152</ele>
        <time>2010-09-25T17:36:43Z</time>
      </trkpt>
      <trkpt lat="45.36554" lon="5.63913">
        <ele>408.217041</ele>
        <time>2010-09-25T17:36:48Z</time>
      </trkpt>
      <trkpt lat="45.36558" lon="5.63928">
        <ele>408.6976318</ele>
        <time>2010-09-25T17:36:54Z</time>
      </trkpt>
      <trkpt lat="45.3656" lon="5.63941">
        <ele>409.6590576</ele>
        <time>2010-09-25T17:36:59Z</time>
      </trkpt>
      <trkpt lat="45.36563" lon="5.63955">
        <ele>410.6202393</ele>
        <time>2010-09-25T17:37:05Z</time>
      </trkpt>
      <trkpt lat="45.36565" lon="5.63968">
        <ele>411.1009521</ele>
        <time>2010-09-25T17:37:10Z</time>
      </trkpt>
      <trkpt lat="45.36568" lon="5.63983">
        <ele>412.0622559</ele>
        <time>2010-09-25T17:37:16Z</time>
      </trkpt>
      <trkpt lat="45.36571" lon="5.63998">
        <ele>413.0235596</ele>
        <time>2010-09-25T17:37:22Z</time>
      </trkpt>
      <trkpt lat="45.36582" lon="5.64009">
        <ele>413.5042725</ele>
        <time>2010-09-25T17:37:28Z</time>
      </trkpt>
      <trkpt lat="45.36585" lon="5.64026">
        <ele>414.4654541</ele>
        <time>2010-09-25T17:37:35Z</time>
      </trkpt>
      <trkpt lat="45.36591" lon="5.64038">
        <ele>414.946167</ele>
        <time>2010-09-25T17:37:40Z</time>
      </trkpt>
      <trkpt lat="45.36593" lon="5.64054">
        <ele>415.9074707</ele>
        <time>2010-09-25T17:37:46Z</time>
      </trkpt>
      <trkpt lat="45.36596" lon="5.64071">
        <ele>415.9074707</ele>
        <time>2010-09-25T17:37:52Z</time>
      </trkpt>
      <trkpt lat="45.36606" lon="5.64081">
        <ele>417.3496094</ele>
        <time>2010-09-25T17:37:59Z</time>
      </trkpt>
      <trkpt lat="45.36605" lon="5.64098">
        <ele>417.8302002</ele>
        <time>2010-09-25T17:38:04Z</time>
      </trkpt>
      <trkpt lat="45.36603" lon="5.64113">
        <ele>418.310791</ele>
        <time>2010-09-25T17:38:09Z</time>
      </trkpt>
      <trkpt lat="45.36609" lon="5.64128">
        <ele>418.7915039</ele>
        <time>2010-09-25T17:38:14Z</time>
      </trkpt>
      <trkpt lat="45.3661" lon="5.64144">
        <ele>418.7915039</ele>
        <time>2010-09-25T17:38:18Z</time>
      </trkpt>
      <trkpt lat="45.36612" lon="5.64164">
        <ele>419.2722168</ele>
        <time>2010-09-25T17:38:23Z</time>
      </trkpt>
      <trkpt lat="45.36612" lon="5.64184">
        <ele>419.7528076</ele>
        <time>2010-09-25T17:38:29Z</time>
      </trkpt>
      <trkpt lat="45.36617" lon="5.64197">
        <ele>420.2333984</ele>
        <time>2010-09-25T17:38:34Z</time>
      </trkpt>
      <trkpt lat="45.36618" lon="5.64216">
        <ele>419.7528076</ele>
        <time>2010-09-25T17:38:39Z</time>
      </trkpt>
      <trkpt lat="45.36621" lon="5.64232">
        <ele>419.2722168</ele>
        <time>2010-09-25T17:38:44Z</time>
      </trkpt>
      <trkpt lat="45.36629" lon="5.64252">
        <ele>418.7915039</ele>
        <time>2010-09-25T17:38:51Z</time>
      </trkpt>
      <trkpt lat="45.36637" lon="5.64265">
        <ele>419.2722168</ele>
        <time>2010-09-25T17:38:57Z</time>
      </trkpt>
      <trkpt lat="45.36646" lon="5.64273">
        <ele>419.2722168</ele>
        <time>2010-09-25T17:39:02Z</time>
      </trkpt>
      <trkpt lat="45.36654" lon="5.64282">
        <ele>419.7528076</ele>
        <time>2010-09-25T17:39:07Z</time>
      </trkpt>
      <trkpt lat="45.36657" lon="5.64304">
        <ele>420.2333984</ele>
        <time>2010-09-25T17:39:13Z</time>
      </trkpt>
      <trkpt lat="45.36664" lon="5.64317">
        <ele>420.7141113</ele>
        <time>2010-09-25T17:39:17Z</time>
      </trkpt>
      <trkpt lat="45.36676" lon="5.6433">
        <ele>421.675415</ele>
        <time>2010-09-25T17:39:22Z</time>
      </trkpt>
      <trkpt lat="45.36686" lon="5.64342">
        <ele>422.1560059</ele>
        <time>2010-09-25T17:39:27Z</time>
      </trkpt>
      <trkpt lat="45.36696" lon="5.64356">
        <ele>422.6367188</ele>
        <time>2010-09-25T17:39:32Z</time>
      </trkpt>
      <trkpt lat="45.36706" lon="5.64367">
        <ele>422.1560059</ele>
        <time>2010-09-25T17:39:37Z</time>
      </trkpt>
      <trkpt lat="45.36713" lon="5.64379">
        <ele>422.1560059</ele>
        <time>2010-09-25T17:39:41Z</time>
      </trkpt>
      <trkpt lat="45.36721" lon="5.64389">
        <ele>421.675415</ele>
        <time>2010-09-25T17:39:45Z</time>
      </trkpt>
      <trkpt lat="45.36728" lon="5.644">
        <ele>422.6367188</ele>
        <time>2010-09-25T17:39:49Z</time>
      </trkpt>
      <trkpt lat="45.36737" lon="5.6441">
        <ele>422.1560059</ele>
        <time>2010-09-25T17:39:53Z</time>
      </trkpt>
      <trkpt lat="45.36744" lon="5.64423">
        <ele>422.1560059</ele>
        <time>2010-09-25T17:39:57Z</time>
      </trkpt>
      <trkpt lat="45.36747" lon="5.64437">
        <ele>422.1560059</ele>
        <time>2010-09-25T17:40:01Z</time>
      </trkpt>
      <trkpt lat="45.36753" lon="5.64449">
        <ele>421.675415</ele>
        <time>2010-09-25T17:40:05Z</time>
      </trkpt>
      <trkpt lat="45.3676" lon="5.64462">
        <ele>422.1560059</ele>
        <time>2010-09-25T17:40:09Z</time>
      </trkpt>
      <trkpt lat="45.36767" lon="5.64475">
        <ele>421.675415</ele>
        <time>2010-09-25T17:40:13Z</time>
      </trkpt>
      <trkpt lat="45.36772" lon="5.64487">
        <ele>421.675415</ele>
        <time>2010-09-25T17:40:17Z</time>
      </trkpt>
      <trkpt lat="45.3678" lon="5.64496">
        <ele>420.7141113</ele>
        <time>2010-09-25T17:40:21Z</time>
      </trkpt>
      <trkpt lat="45.36787" lon="5.6451">
        <ele>420.7141113</ele>
        <time>2010-09-25T17:40:26Z</time>
      </trkpt>
      <trkpt lat="45.36796" lon="5.6452">
        <ele>420.7141113</ele>
        <time>2010-09-25T17:40:31Z</time>
      </trkpt>
      <trkpt lat="45.36805" lon="5.6453">
        <ele>421.1948242</ele>
        <time>2010-09-25T17:40:36Z</time>
      </trkpt>
      <trkpt lat="45.36815" lon="5.6454">
        <ele>421.675415</ele>
        <time>2010-09-25T17:40:42Z</time>
      </trkpt>
      <trkpt lat="45.36825" lon="5.64548">
        <ele>422.1560059</ele>
        <time>2010-09-25T17:40:47Z</time>
      </trkpt>
      <trkpt lat="45.36837" lon="5.64554">
        <ele>422.1560059</ele>
        <time>2010-09-25T17:40:52Z</time>
      </trkpt>
      <trkpt lat="45.36847" lon="5.64559">
        <ele>422.1560059</ele>
        <time>2010-09-25T17:40:57Z</time>
      </trkpt>
      <trkpt lat="45.36855" lon="5.64568">
        <ele>422.6367188</ele>
        <time>2010-09-25T17:41:02Z</time>
      </trkpt>
      <trkpt lat="45.36865" lon="5.64577">
        <ele>423.1174316</ele>
        <time>2010-09-25T17:41:07Z</time>
      </trkpt>
      <trkpt lat="45.36876" lon="5.64583">
        <ele>422.6367188</ele>
        <time>2010-09-25T17:41:11Z</time>
      </trkpt>
      <trkpt lat="45.36885" lon="5.64592">
        <ele>423.5980225</ele>
        <time>2010-09-25T17:41:15Z</time>
      </trkpt>
      <trkpt lat="45.36894" lon="5.64601">
        <ele>422.6367188</ele>
        <time>2010-09-25T17:41:19Z</time>
      </trkpt>
      <trkpt lat="45.36902" lon="5.6461">
        <ele>422.6367188</ele>
        <time>2010-09-25T17:41:23Z</time>
      </trkpt>
      <trkpt lat="45.36909" lon="5.64622">
        <ele>422.1560059</ele>
        <time>2010-09-25T17:41:27Z</time>
      </trkpt>
      <trkpt lat="45.36917" lon="5.64631">
        <ele>422.1560059</ele>
        <time>2010-09-25T17:41:31Z</time>
      </trkpt>
      <trkpt lat="45.36926" lon="5.6464">
        <ele>422.1560059</ele>
        <time>2010-09-25T17:41:35Z</time>
      </trkpt>
      <trkpt lat="45.36935" lon="5.6465">
        <ele>422.1560059</ele>
        <time>2010-09-25T17:41:39Z</time>
      </trkpt>
      <trkpt lat="45.36943" lon="5.64656">
        <ele>422.1560059</ele>
        <time>2010-09-25T17:41:43Z</time>
      </trkpt>
      <trkpt lat="45.36951" lon="5.64664">
        <ele>422.1560059</ele>
        <time>2010-09-25T17:41:47Z</time>
      </trkpt>
      <trkpt lat="45.36958" lon="5.64672">
        <ele>422.1560059</ele>
        <time>2010-09-25T17:41:51Z</time>
      </trkpt>
      <trkpt lat="45.36967" lon="5.64677">
        <ele>422.6367188</ele>
        <time>2010-09-25T17:41:55Z</time>
      </trkpt>
      <trkpt lat="45.36978" lon="5.64682">
        <ele>423.1174316</ele>
        <time>2010-09-25T17:41:59Z</time>
      </trkpt>
      <trkpt lat="45.36987" lon="5.64687">
        <ele>423.5980225</ele>
        <time>2010-09-25T17:42:03Z</time>
      </trkpt>
      <trkpt lat="45.36995" lon="5.64692">
        <ele>423.5980225</ele>
        <time>2010-09-25T17:42:07Z</time>
      </trkpt>
      <trkpt lat="45.37005" lon="5.64697">
        <ele>424.0787354</ele>
        <time>2010-09-25T17:42:12Z</time>
      </trkpt>
      <trkpt lat="45.3701" lon="5.64705">
        <ele>425.0401611</ele>
        <time>2010-09-25T17:42:17Z</time>
      </trkpt>
      <trkpt lat="45.37018" lon="5.64715">
        <ele>425.0401611</ele>
        <time>2010-09-25T17:42:22Z</time>
      </trkpt>
      <trkpt lat="45.37027" lon="5.64723">
        <ele>426.4820557</ele>
        <time>2010-09-25T17:42:27Z</time>
      </trkpt>
      <trkpt lat="45.37035" lon="5.64734">
        <ele>426.4820557</ele>
        <time>2010-09-25T17:42:32Z</time>
      </trkpt>
      <trkpt lat="45.37042" lon="5.64744">
        <ele>427.4433594</ele>
        <time>2010-09-25T17:42:37Z</time>
      </trkpt>
      <trkpt lat="45.37049" lon="5.64754">
        <ele>428.4046631</ele>
        <time>2010-09-25T17:42:43Z</time>
      </trkpt>
      <trkpt lat="45.37057" lon="5.64762">
        <ele>429.8465576</ele>
        <time>2010-09-25T17:42:49Z</time>
      </trkpt>
      <trkpt lat="45.37068" lon="5.6477">
        <ele>430.8079834</ele>
        <time>2010-09-25T17:42:55Z</time>
      </trkpt>
      <trkpt lat="45.37077" lon="5.64778">
        <ele>431.2885742</ele>
        <time>2010-09-25T17:43:01Z</time>
      </trkpt>
      <trkpt lat="45.37089" lon="5.64788">
        <ele>432.25</ele>
        <time>2010-09-25T17:43:07Z</time>
      </trkpt>
      <trkpt lat="45.37098" lon="5.64798">
        <ele>432.25</ele>
        <time>2010-09-25T17:43:13Z</time>
      </trkpt>
      <trkpt lat="45.37105" lon="5.64805">
        <ele>432.7307129</ele>
        <time>2010-09-25T17:43:18Z</time>
      </trkpt>
      <trkpt lat="45.37111" lon="5.6482">
        <ele>433.2113037</ele>
        <time>2010-09-25T17:43:23Z</time>
      </trkpt>
      <trkpt lat="45.37113" lon="5.64836">
        <ele>433.2113037</ele>
        <time>2010-09-25T17:43:29Z</time>
      </trkpt>
      <trkpt lat="45.37125" lon="5.64846">
        <ele>433.6918945</ele>
        <time>2010-09-25T17:43:35Z</time>
      </trkpt>
      <trkpt lat="45.37135" lon="5.6486">
        <ele>434.1726074</ele>
        <time>2010-09-25T17:43:41Z</time>
      </trkpt>
      <trkpt lat="45.37148" lon="5.64873">
        <ele>434.1726074</ele>
        <time>2010-09-25T17:43:46Z</time>
      </trkpt>
      <trkpt lat="45.37155" lon="5.64887">
        <ele>433.6918945</ele>
        <time>2010-09-25T17:43:51Z</time>
      </trkpt>
      <trkpt lat="45.37162" lon="5.64898">
        <ele>434.6533203</ele>
        <time>2010-09-25T17:43:55Z</time>
      </trkpt>
      <trkpt lat="45.37168" lon="5.6491">
        <ele>434.1726074</ele>
        <time>2010-09-25T17:43:59Z</time>
      </trkpt>
      <trkpt lat="45.37174" lon="5.64922">
        <ele>434.1726074</ele>
        <time>2010-09-25T17:44:03Z</time>
      </trkpt>
      <trkpt lat="45.37181" lon="5.64931">
        <ele>434.1726074</ele>
        <time>2010-09-25T17:44:08Z</time>
      </trkpt>
      <trkpt lat="45.37185" lon="5.64951">
        <ele>434.1726074</ele>
        <time>2010-09-25T17:44:13Z</time>
      </trkpt>
      <trkpt lat="45.37195" lon="5.64963">
        <ele>434.1726074</ele>
        <time>2010-09-25T17:44:18Z</time>
      </trkpt>
      <trkpt lat="45.37199" lon="5.64979">
        <ele>434.1726074</ele>
        <time>2010-09-25T17:44:23Z</time>
      </trkpt>
      <trkpt lat="45.37205" lon="5.64996">
        <ele>434.1726074</ele>
        <time>2010-09-25T17:44:28Z</time>
      </trkpt>
      <trkpt lat="45.37211" lon="5.6501">
        <ele>434.1726074</ele>
        <time>2010-09-25T17:44:32Z</time>
      </trkpt>
      <trkpt lat="45.37216" lon="5.65026">
        <ele>434.1726074</ele>
        <time>2010-09-25T17:44:36Z</time>
      </trkpt>
      <trkpt lat="45.37222" lon="5.6504">
        <ele>434.1726074</ele>
        <time>2010-09-25T17:44:40Z</time>
      </trkpt>
      <trkpt lat="45.3723" lon="5.65051">
        <ele>433.6918945</ele>
        <time>2010-09-25T17:44:44Z</time>
      </trkpt>
      <trkpt lat="45.37238" lon="5.65062">
        <ele>433.6918945</ele>
        <time>2010-09-25T17:44:48Z</time>
      </trkpt>
      <trkpt lat="45.37246" lon="5.65072">
        <ele>433.2113037</ele>
        <time>2010-09-25T17:44:52Z</time>
      </trkpt>
      <trkpt lat="45.37253" lon="5.65081">
        <ele>433.2113037</ele>
        <time>2010-09-25T17:44:56Z</time>
      </trkpt>
      <trkpt lat="45.37258" lon="5.65098">
        <ele>433.2113037</ele>
        <time>2010-09-25T17:45:01Z</time>
      </trkpt>
      <trkpt lat="45.37261" lon="5.65115">
        <ele>433.2113037</ele>
        <time>2010-09-25T17:45:06Z</time>
      </trkpt>
      <trkpt lat="45.37265" lon="5.65132">
        <ele>433.2113037</ele>
        <time>2010-09-25T17:45:11Z</time>
      </trkpt>
      <trkpt lat="45.3727" lon="5.65148">
        <ele>433.2113037</ele>
        <time>2010-09-25T17:45:16Z</time>
      </trkpt>
      <trkpt lat="45.37276" lon="5.65164">
        <ele>433.2113037</ele>
        <time>2010-09-25T17:45:22Z</time>
      </trkpt>
      <trkpt lat="45.37279" lon="5.65182">
        <ele>433.2113037</ele>
        <time>2010-09-25T17:45:27Z</time>
      </trkpt>
      <trkpt lat="45.37279" lon="5.65199">
        <ele>432.7307129</ele>
        <time>2010-09-25T17:45:32Z</time>
      </trkpt>
      <trkpt lat="45.37283" lon="5.65218">
        <ele>432.7307129</ele>
        <time>2010-09-25T17:45:37Z</time>
      </trkpt>
      <trkpt lat="45.37286" lon="5.65232">
        <ele>432.7307129</ele>
        <time>2010-09-25T17:45:41Z</time>
      </trkpt>
      <trkpt lat="45.37292" lon="5.65246">
        <ele>433.2113037</ele>
        <time>2010-09-25T17:45:45Z</time>
      </trkpt>
      <trkpt lat="45.37298" lon="5.6526">
        <ele>432.7307129</ele>
        <time>2010-09-25T17:45:49Z</time>
      </trkpt>
      <trkpt lat="45.373" lon="5.65276">
        <ele>433.2113037</ele>
        <time>2010-09-25T17:45:53Z</time>
      </trkpt>
      <trkpt lat="45.37304" lon="5.65293">
        <ele>432.7307129</ele>
        <time>2010-09-25T17:45:57Z</time>
      </trkpt>
      <trkpt lat="45.37308" lon="5.65303">
        <ele>433.2113037</ele>
        <time>2010-09-25T17:46:01Z</time>
      </trkpt>
      <trkpt lat="45.37314" lon="5.65316">
        <ele>433.6918945</ele>
        <time>2010-09-25T17:46:06Z</time>
      </trkpt>
      <trkpt lat="45.37317" lon="5.65329">
        <ele>433.6918945</ele>
        <time>2010-09-25T17:46:11Z</time>
      </trkpt>
      <trkpt lat="45.37322" lon="5.65346">
        <ele>434.1726074</ele>
        <time>2010-09-25T17:46:17Z</time>
      </trkpt>
      <trkpt lat="45.37325" lon="5.65361">
        <ele>433.6918945</ele>
        <time>2010-09-25T17:46:22Z</time>
      </trkpt>
      <trkpt lat="45.37328" lon="5.65381">
        <ele>433.2113037</ele>
        <time>2010-09-25T17:46:26Z</time>
      </trkpt>
      <trkpt lat="45.37332" lon="5.65394">
        <ele>432.25</ele>
        <time>2010-09-25T17:46:32Z</time>
      </trkpt>
      <trkpt lat="45.37338" lon="5.65403">
        <ele>430.8079834</ele>
        <time>2010-09-25T17:46:40Z</time>
      </trkpt>
      <trkpt lat="45.37344" lon="5.65429">
        <ele>428.885376</ele>
        <time>2010-09-25T17:46:46Z</time>
      </trkpt>
      <trkpt lat="45.37345" lon="5.65448">
        <ele>427.9239502</ele>
        <time>2010-09-25T17:46:51Z</time>
      </trkpt>
      <trkpt lat="45.37346" lon="5.65469">
        <ele>426.4820557</ele>
        <time>2010-09-25T17:46:57Z</time>
      </trkpt>
      <trkpt lat="45.37346" lon="5.6549">
        <ele>424.0787354</ele>
        <time>2010-09-25T17:47:06Z</time>
      </trkpt>
      <trkpt lat="45.37347" lon="5.65515">
        <ele>421.1948242</ele>
        <time>2010-09-25T17:47:14Z</time>
      </trkpt>
      <trkpt lat="45.37353" lon="5.65536">
        <ele>419.7528076</ele>
        <time>2010-09-25T17:47:22Z</time>
      </trkpt>
      <trkpt lat="45.37357" lon="5.65569">
        <ele>418.310791</ele>
        <time>2010-09-25T17:47:29Z</time>
      </trkpt>
      <trkpt lat="45.37358" lon="5.65587">
        <ele>416.8688965</ele>
        <time>2010-09-25T17:47:35Z</time>
      </trkpt>
      <trkpt lat="45.37358" lon="5.65605">
        <ele>416.8688965</ele>
        <time>2010-09-25T17:47:40Z</time>
      </trkpt>
      <trkpt lat="45.37369" lon="5.65629">
        <ele>416.8688965</ele>
        <time>2010-09-25T17:47:45Z</time>
      </trkpt>
      <trkpt lat="45.37376" lon="5.65645">
        <ele>416.3881836</ele>
        <time>2010-09-25T17:47:51Z</time>
      </trkpt>
      <trkpt lat="45.37379" lon="5.65663">
        <ele>416.8688965</ele>
        <time>2010-09-25T17:47:58Z</time>
      </trkpt>
      <trkpt lat="45.37387" lon="5.65682">
        <ele>417.3496094</ele>
        <time>2010-09-25T17:48:05Z</time>
      </trkpt>
      <trkpt lat="45.37395" lon="5.65692">
        <ele>417.8302002</ele>
        <time>2010-09-25T17:48:09Z</time>
      </trkpt>
      <trkpt lat="45.37403" lon="5.657">
        <ele>418.7915039</ele>
        <time>2010-09-25T17:48:14Z</time>
      </trkpt>
      <trkpt lat="45.37411" lon="5.657">
        <ele>419.7528076</ele>
        <time>2010-09-25T17:48:20Z</time>
      </trkpt>
      <trkpt lat="45.37424" lon="5.65698">
        <ele>420.7141113</ele>
        <time>2010-09-25T17:48:26Z</time>
      </trkpt>
      <trkpt lat="45.37432" lon="5.65696">
        <ele>422.1560059</ele>
        <time>2010-09-25T17:48:30Z</time>
      </trkpt>
      <trkpt lat="45.37441" lon="5.65696">
        <ele>423.5980225</ele>
        <time>2010-09-25T17:48:36Z</time>
      </trkpt>
      <trkpt lat="45.3745" lon="5.65695">
        <ele>425.0401611</ele>
        <time>2010-09-25T17:48:42Z</time>
      </trkpt>
      <trkpt lat="45.37461" lon="5.6569">
        <ele>426.9627686</ele>
        <time>2010-09-25T17:48:51Z</time>
      </trkpt>
      <trkpt lat="45.37473" lon="5.65688">
        <ele>428.885376</ele>
        <time>2010-09-25T17:49:00Z</time>
      </trkpt>
      <trkpt lat="45.37483" lon="5.65681">
        <ele>430.8079834</ele>
        <time>2010-09-25T17:49:07Z</time>
      </trkpt>
      <trkpt lat="45.37493" lon="5.6567">
        <ele>431.769165</ele>
        <time>2010-09-25T17:49:14Z</time>
      </trkpt>
      <trkpt lat="45.37506" lon="5.65663">
        <ele>432.25</ele>
        <time>2010-09-25T17:49:20Z</time>
      </trkpt>
      <trkpt lat="45.37515" lon="5.65655">
        <ele>432.7307129</ele>
        <time>2010-09-25T17:49:25Z</time>
      </trkpt>
      <trkpt lat="45.37524" lon="5.65643">
        <ele>434.6533203</ele>
        <time>2010-09-25T17:49:31Z</time>
      </trkpt>
      <trkpt lat="45.37535" lon="5.65636">
        <ele>435.1339111</ele>
        <time>2010-09-25T17:49:37Z</time>
      </trkpt>
      <trkpt lat="45.37547" lon="5.65626">
        <ele>436.0952148</ele>
        <time>2010-09-25T17:49:44Z</time>
      </trkpt>
      <trkpt lat="45.37558" lon="5.65618">
        <ele>437.0565186</ele>
        <time>2010-09-25T17:49:50Z</time>
      </trkpt>
      <trkpt lat="45.37572" lon="5.65606">
        <ele>438.0178223</ele>
        <time>2010-09-25T17:49:56Z</time>
      </trkpt>
      <trkpt lat="45.37583" lon="5.65595">
        <ele>438.979126</ele>
        <time>2010-09-25T17:50:02Z</time>
      </trkpt>
      <trkpt lat="45.37596" lon="5.65591">
        <ele>439.9404297</ele>
        <time>2010-09-25T17:50:08Z</time>
      </trkpt>
      <trkpt lat="45.37606" lon="5.65588">
        <ele>440.9018555</ele>
        <time>2010-09-25T17:50:14Z</time>
      </trkpt>
      <trkpt lat="45.37614" lon="5.65582">
        <ele>440.9018555</ele>
        <time>2010-09-25T17:50:20Z</time>
      </trkpt>
      <trkpt lat="45.37623" lon="5.65571">
        <ele>441.3824463</ele>
        <time>2010-09-25T17:50:25Z</time>
      </trkpt>
      <trkpt lat="45.37633" lon="5.6556">
        <ele>441.8631592</ele>
        <time>2010-09-25T17:50:31Z</time>
      </trkpt>
      <trkpt lat="45.37643" lon="5.65547">
        <ele>441.8631592</ele>
        <time>2010-09-25T17:50:37Z</time>
      </trkpt>
      <trkpt lat="45.37654" lon="5.65534">
        <ele>442.8244629</ele>
        <time>2010-09-25T17:50:42Z</time>
      </trkpt>
      <trkpt lat="45.37662" lon="5.65522">
        <ele>443.7857666</ele>
        <time>2010-09-25T17:50:49Z</time>
      </trkpt>
      <trkpt lat="45.37668" lon="5.65508">
        <ele>444.2664795</ele>
        <time>2010-09-25T17:50:56Z</time>
      </trkpt>
      <trkpt lat="45.37679" lon="5.65495">
        <ele>445.2276611</ele>
        <time>2010-09-25T17:51:02Z</time>
      </trkpt>
      <trkpt lat="45.3769" lon="5.65483">
        <ele>446.1890869</ele>
        <time>2010-09-25T17:51:07Z</time>
      </trkpt>
      <trkpt lat="45.37704" lon="5.65472">
        <ele>447.1502686</ele>
        <time>2010-09-25T17:51:13Z</time>
      </trkpt>
      <trkpt lat="45.3771" lon="5.65458">
        <ele>447.6309814</ele>
        <time>2010-09-25T17:51:19Z</time>
      </trkpt>
      <trkpt lat="45.37715" lon="5.65444">
        <ele>448.5924072</ele>
        <time>2010-09-25T17:51:25Z</time>
      </trkpt>
      <trkpt lat="45.37726" lon="5.65431">
        <ele>449.5537109</ele>
        <time>2010-09-25T17:51:30Z</time>
      </trkpt>
      <trkpt lat="45.37733" lon="5.6542">
        <ele>449.5537109</ele>
        <time>2010-09-25T17:51:35Z</time>
      </trkpt>
      <trkpt lat="45.37739" lon="5.65406">
        <ele>450.5150146</ele>
        <time>2010-09-25T17:51:40Z</time>
      </trkpt>
      <trkpt lat="45.37743" lon="5.65393">
        <ele>450.9956055</ele>
        <time>2010-09-25T17:51:45Z</time>
      </trkpt>
      <trkpt lat="45.37747" lon="5.65378">
        <ele>451.4763184</ele>
        <time>2010-09-25T17:51:50Z</time>
      </trkpt>
      <trkpt lat="45.37752" lon="5.65363">
        <ele>452.4376221</ele>
        <time>2010-09-25T17:51:55Z</time>
      </trkpt>
      <trkpt lat="45.37753" lon="5.65348">
        <ele>453.3989258</ele>
        <time>2010-09-25T17:52:00Z</time>
      </trkpt>
      <trkpt lat="45.37757" lon="5.65334">
        <ele>453.8796387</ele>
        <time>2010-09-25T17:52:05Z</time>
      </trkpt>
      <trkpt lat="45.3776" lon="5.65319">
        <ele>454.8408203</ele>
        <time>2010-09-25T17:52:10Z</time>
      </trkpt>
      <trkpt lat="45.37758" lon="5.65303">
        <ele>455.8022461</ele>
        <time>2010-09-25T17:52:15Z</time>
      </trkpt>
      <trkpt lat="45.37758" lon="5.65288">
        <ele>456.7635498</ele>
        <time>2010-09-25T17:52:20Z</time>
      </trkpt>
      <trkpt lat="45.37761" lon="5.65274">
        <ele>457.2442627</ele>
        <time>2010-09-25T17:52:25Z</time>
      </trkpt>
      <trkpt lat="45.37765" lon="5.6526">
        <ele>457.2442627</ele>
        <time>2010-09-25T17:52:30Z</time>
      </trkpt>
      <trkpt lat="45.37766" lon="5.65245">
        <ele>457.2442627</ele>
        <time>2010-09-25T17:52:35Z</time>
      </trkpt>
      <trkpt lat="45.37765" lon="5.6523">
        <ele>457.7249756</ele>
        <time>2010-09-25T17:52:39Z</time>
      </trkpt>
      <trkpt lat="45.37765" lon="5.65216">
        <ele>457.7249756</ele>
        <time>2010-09-25T17:52:43Z</time>
      </trkpt>
      <trkpt lat="45.37767" lon="5.65202">
        <ele>458.2055664</ele>
        <time>2010-09-25T17:52:47Z</time>
      </trkpt>
      <trkpt lat="45.37768" lon="5.65187">
        <ele>457.7249756</ele>
        <time>2010-09-25T17:52:51Z</time>
      </trkpt>
      <trkpt lat="45.37767" lon="5.65171">
        <ele>457.7249756</ele>
        <time>2010-09-25T17:52:55Z</time>
      </trkpt>
      <trkpt lat="45.37768" lon="5.65157">
        <ele>457.2442627</ele>
        <time>2010-09-25T17:52:59Z</time>
      </trkpt>
      <trkpt lat="45.37769" lon="5.65143">
        <ele>456.7635498</ele>
        <time>2010-09-25T17:53:03Z</time>
      </trkpt>
      <trkpt lat="45.3777" lon="5.6513">
        <ele>456.7635498</ele>
        <time>2010-09-25T17:53:07Z</time>
      </trkpt>
      <trkpt lat="45.37773" lon="5.65116">
        <ele>456.7635498</ele>
        <time>2010-09-25T17:53:11Z</time>
      </trkpt>
      <trkpt lat="45.37774" lon="5.65104">
        <ele>456.7635498</ele>
        <time>2010-09-25T17:53:15Z</time>
      </trkpt>
      <trkpt lat="45.37775" lon="5.65092">
        <ele>456.282959</ele>
        <time>2010-09-25T17:53:19Z</time>
      </trkpt>
      <trkpt lat="45.37774" lon="5.65078">
        <ele>456.282959</ele>
        <time>2010-09-25T17:53:24Z</time>
      </trkpt>
      <trkpt lat="45.37777" lon="5.65064">
        <ele>455.8022461</ele>
        <time>2010-09-25T17:53:29Z</time>
      </trkpt>
      <trkpt lat="45.37782" lon="5.65046">
        <ele>455.8022461</ele>
        <time>2010-09-25T17:53:34Z</time>
      </trkpt>
      <trkpt lat="45.37786" lon="5.65029">
        <ele>455.3215332</ele>
        <time>2010-09-25T17:53:39Z</time>
      </trkpt>
      <trkpt lat="45.37792" lon="5.65016">
        <ele>455.3215332</ele>
        <time>2010-09-25T17:53:44Z</time>
      </trkpt>
      <trkpt lat="45.37793" lon="5.65002">
        <ele>454.8408203</ele>
        <time>2010-09-25T17:53:49Z</time>
      </trkpt>
      <trkpt lat="45.37795" lon="5.64986">
        <ele>454.8408203</ele>
        <time>2010-09-25T17:53:54Z</time>
      </trkpt>
      <trkpt lat="45.37794" lon="5.64972">
        <ele>454.8408203</ele>
        <time>2010-09-25T17:53:58Z</time>
      </trkpt>
      <trkpt lat="45.37799" lon="5.64958">
        <ele>455.3215332</ele>
        <time>2010-09-25T17:54:03Z</time>
      </trkpt>
      <trkpt lat="45.378" lon="5.64943">
        <ele>455.3215332</ele>
        <time>2010-09-25T17:54:08Z</time>
      </trkpt>
      <trkpt lat="45.378" lon="5.6493">
        <ele>455.3215332</ele>
        <time>2010-09-25T17:54:13Z</time>
      </trkpt>
      <trkpt lat="45.37801" lon="5.64913">
        <ele>455.8022461</ele>
        <time>2010-09-25T17:54:19Z</time>
      </trkpt>
      <trkpt lat="45.37797" lon="5.64898">
        <ele>455.3215332</ele>
        <time>2010-09-25T17:54:25Z</time>
      </trkpt>
      <trkpt lat="45.37798" lon="5.64879">
        <ele>455.3215332</ele>
        <time>2010-09-25T17:54:30Z</time>
      </trkpt>
      <trkpt lat="45.37799" lon="5.64862">
        <ele>455.3215332</ele>
        <time>2010-09-25T17:54:35Z</time>
      </trkpt>
      <trkpt lat="45.37802" lon="5.64846">
        <ele>454.8408203</ele>
        <time>2010-09-25T17:54:40Z</time>
      </trkpt>
      <trkpt lat="45.37808" lon="5.64831">
        <ele>454.8408203</ele>
        <time>2010-09-25T17:54:46Z</time>
      </trkpt>
      <trkpt lat="45.37812" lon="5.64817">
        <ele>454.8408203</ele>
        <time>2010-09-25T17:54:51Z</time>
      </trkpt>
      <trkpt lat="45.37812" lon="5.64801">
        <ele>454.3602295</ele>
        <time>2010-09-25T17:54:57Z</time>
      </trkpt>
      <trkpt lat="45.37813" lon="5.64782">
        <ele>454.3602295</ele>
        <time>2010-09-25T17:55:03Z</time>
      </trkpt>
      <trkpt lat="45.3781" lon="5.64766">
        <ele>454.3602295</ele>
        <time>2010-09-25T17:55:08Z</time>
      </trkpt>
      <trkpt lat="45.37815" lon="5.64737">
        <ele>452.4376221</ele>
        <time>2010-09-25T17:56:01Z</time>
      </trkpt>
      <trkpt lat="45.37819" lon="5.64723">
        <ele>453.3989258</ele>
        <time>2010-09-25T17:56:07Z</time>
      </trkpt>
      <trkpt lat="45.37822" lon="5.64707">
        <ele>452.9182129</ele>
        <time>2010-09-25T17:56:12Z</time>
      </trkpt>
      <trkpt lat="45.37828" lon="5.64684">
        <ele>452.9182129</ele>
        <time>2010-09-25T17:56:17Z</time>
      </trkpt>
      <trkpt lat="45.37834" lon="5.64673">
        <ele>452.4376221</ele>
        <time>2010-09-25T17:56:22Z</time>
      </trkpt>
      <trkpt lat="45.37844" lon="5.64662">
        <ele>452.4376221</ele>
        <time>2010-09-25T17:56:26Z</time>
      </trkpt>
      <trkpt lat="45.3785" lon="5.64653">
        <ele>451.9570313</ele>
        <time>2010-09-25T17:56:30Z</time>
      </trkpt>
      <trkpt lat="45.37855" lon="5.64641">
        <ele>451.9570313</ele>
        <time>2010-09-25T17:56:35Z</time>
      </trkpt>
      <trkpt lat="45.37862" lon="5.6463">
        <ele>451.9570313</ele>
        <time>2010-09-25T17:56:40Z</time>
      </trkpt>
      <trkpt lat="45.37869" lon="5.64615">
        <ele>451.9570313</ele>
        <time>2010-09-25T17:56:45Z</time>
      </trkpt>
      <trkpt lat="45.37861" lon="5.64595">
        <ele>451.4763184</ele>
        <time>2010-09-25T17:56:50Z</time>
      </trkpt>
      <trkpt lat="45.37867" lon="5.64578">
        <ele>451.4763184</ele>
        <time>2010-09-25T17:56:55Z</time>
      </trkpt>
      <trkpt lat="45.37873" lon="5.64565">
        <ele>451.4763184</ele>
        <time>2010-09-25T17:56:59Z</time>
      </trkpt>
      <trkpt lat="45.37888" lon="5.64542">
        <ele>451.4763184</ele>
        <time>2010-09-25T17:57:04Z</time>
      </trkpt>
      <trkpt lat="45.37889" lon="5.64529">
        <ele>451.4763184</ele>
        <time>2010-09-25T17:57:08Z</time>
      </trkpt>
      <trkpt lat="45.37888" lon="5.64516">
        <ele>451.4763184</ele>
        <time>2010-09-25T17:57:12Z</time>
      </trkpt>
      <trkpt lat="45.37887" lon="5.64498">
        <ele>451.4763184</ele>
        <time>2010-09-25T17:57:18Z</time>
      </trkpt>
      <trkpt lat="45.37887" lon="5.64481">
        <ele>451.9570313</ele>
        <time>2010-09-25T17:57:23Z</time>
      </trkpt>
      <trkpt lat="45.3789" lon="5.64464">
        <ele>451.4763184</ele>
        <time>2010-09-25T17:57:28Z</time>
      </trkpt>
      <trkpt lat="45.37886" lon="5.64446">
        <ele>451.4763184</ele>
        <time>2010-09-25T17:57:33Z</time>
      </trkpt>
      <trkpt lat="45.37882" lon="5.64431">
        <ele>451.4763184</ele>
        <time>2010-09-25T17:57:37Z</time>
      </trkpt>
      <trkpt lat="45.37883" lon="5.64417">
        <ele>450.9956055</ele>
        <time>2010-09-25T17:57:41Z</time>
      </trkpt>
      <trkpt lat="45.37887" lon="5.64404">
        <ele>450.5150146</ele>
        <time>2010-09-25T17:57:45Z</time>
      </trkpt>
      <trkpt lat="45.37888" lon="5.6439">
        <ele>450.9956055</ele>
        <time>2010-09-25T17:57:49Z</time>
      </trkpt>
      <trkpt lat="45.3789" lon="5.64375">
        <ele>450.5150146</ele>
        <time>2010-09-25T17:57:53Z</time>
      </trkpt>
      <trkpt lat="45.37893" lon="5.64361">
        <ele>450.9956055</ele>
        <time>2010-09-25T17:57:57Z</time>
      </trkpt>
      <trkpt lat="45.37895" lon="5.64346">
        <ele>450.9956055</ele>
        <time>2010-09-25T17:58:02Z</time>
      </trkpt>
      <trkpt lat="45.379" lon="5.6433">
        <ele>450.0344238</ele>
        <time>2010-09-25T17:58:07Z</time>
      </trkpt>
      <trkpt lat="45.37904" lon="5.64314">
        <ele>450.0344238</ele>
        <time>2010-09-25T17:58:11Z</time>
      </trkpt>
      <trkpt lat="45.37905" lon="5.64299">
        <ele>449.5537109</ele>
        <time>2010-09-25T17:58:15Z</time>
      </trkpt>
      <trkpt lat="45.37904" lon="5.64285">
        <ele>449.5537109</ele>
        <time>2010-09-25T17:58:19Z</time>
      </trkpt>
      <trkpt lat="45.37906" lon="5.64271">
        <ele>450.0344238</ele>
        <time>2010-09-25T17:58:23Z</time>
      </trkpt>
      <trkpt lat="45.37906" lon="5.64256">
        <ele>449.5537109</ele>
        <time>2010-09-25T17:58:27Z</time>
      </trkpt>
      <trkpt lat="45.37909" lon="5.64244">
        <ele>449.5537109</ele>
        <time>2010-09-25T17:58:31Z</time>
      </trkpt>
      <trkpt lat="45.37911" lon="5.6423">
        <ele>449.5537109</ele>
        <time>2010-09-25T17:58:35Z</time>
      </trkpt>
      <trkpt lat="45.37913" lon="5.64214">
        <ele>449.072998</ele>
        <time>2010-09-25T17:58:40Z</time>
      </trkpt>
      <trkpt lat="45.37914" lon="5.64199">
        <ele>449.5537109</ele>
        <time>2010-09-25T17:58:44Z</time>
      </trkpt>
      <trkpt lat="45.37915" lon="5.64185">
        <ele>449.5537109</ele>
        <time>2010-09-25T17:58:48Z</time>
      </trkpt>
      <trkpt lat="45.37916" lon="5.64173">
        <ele>449.5537109</ele>
        <time>2010-09-25T17:58:52Z</time>
      </trkpt>
      <trkpt lat="45.37917" lon="5.64153">
        <ele>449.072998</ele>
        <time>2010-09-25T17:58:57Z</time>
      </trkpt>
      <trkpt lat="45.37923" lon="5.64139">
        <ele>449.072998</ele>
        <time>2010-09-25T17:59:02Z</time>
      </trkpt>
      <trkpt lat="45.37927" lon="5.6412">
        <ele>449.072998</ele>
        <time>2010-09-25T17:59:07Z</time>
      </trkpt>
      <trkpt lat="45.3792" lon="5.64113">
        <ele>449.072998</ele>
        <time>2010-09-25T17:59:11Z</time>
      </trkpt>
      <trkpt lat="45.37913" lon="5.64103">
        <ele>449.072998</ele>
        <time>2010-09-25T17:59:15Z</time>
      </trkpt>
      <trkpt lat="45.3791" lon="5.64089">
        <ele>448.5924072</ele>
        <time>2010-09-25T17:59:19Z</time>
      </trkpt>
      <trkpt lat="45.37911" lon="5.64076">
        <ele>448.5924072</ele>
        <time>2010-09-25T17:59:23Z</time>
      </trkpt>
      <trkpt lat="45.37911" lon="5.64062">
        <ele>448.1118164</ele>
        <time>2010-09-25T17:59:27Z</time>
      </trkpt>
      <trkpt lat="45.37913" lon="5.64049">
        <ele>448.1118164</ele>
        <time>2010-09-25T17:59:31Z</time>
      </trkpt>
      <trkpt lat="45.37916" lon="5.64035">
        <ele>447.6309814</ele>
        <time>2010-09-25T17:59:35Z</time>
      </trkpt>
      <trkpt lat="45.37918" lon="5.64021">
        <ele>447.6309814</ele>
        <time>2010-09-25T17:59:39Z</time>
      </trkpt>
      <trkpt lat="45.37919" lon="5.64007">
        <ele>447.1502686</ele>
        <time>2010-09-25T17:59:43Z</time>
      </trkpt>
      <trkpt lat="45.3792" lon="5.63994">
        <ele>447.1502686</ele>
        <time>2010-09-25T17:59:47Z</time>
      </trkpt>
      <trkpt lat="45.37921" lon="5.63979">
        <ele>447.1502686</ele>
        <time>2010-09-25T17:59:51Z</time>
      </trkpt>
      <trkpt lat="45.37924" lon="5.63965">
        <ele>446.6696777</ele>
        <time>2010-09-25T17:59:55Z</time>
      </trkpt>
      <trkpt lat="45.37928" lon="5.6395">
        <ele>446.1890869</ele>
        <time>2010-09-25T17:59:59Z</time>
      </trkpt>
      <trkpt lat="45.37931" lon="5.63933">
        <ele>446.1890869</ele>
        <time>2010-09-25T18:00:03Z</time>
      </trkpt>
      <trkpt lat="45.37938" lon="5.6392">
        <ele>446.1890869</ele>
        <time>2010-09-25T18:00:07Z</time>
      </trkpt>
      <trkpt lat="45.37941" lon="5.63907">
        <ele>446.1890869</ele>
        <time>2010-09-25T18:00:11Z</time>
      </trkpt>
      <trkpt lat="45.37943" lon="5.63893">
        <ele>446.1890869</ele>
        <time>2010-09-25T18:00:15Z</time>
      </trkpt>
      <trkpt lat="45.37946" lon="5.63879">
        <ele>445.708374</ele>
        <time>2010-09-25T18:00:19Z</time>
      </trkpt>
      <trkpt lat="45.3795" lon="5.63866">
        <ele>445.708374</ele>
        <time>2010-09-25T18:00:23Z</time>
      </trkpt>
      <trkpt lat="45.37955" lon="5.6385">
        <ele>445.708374</ele>
        <time>2010-09-25T18:00:28Z</time>
      </trkpt>
      <trkpt lat="45.37958" lon="5.63834">
        <ele>445.708374</ele>
        <time>2010-09-25T18:00:33Z</time>
      </trkpt>
      <trkpt lat="45.3796" lon="5.63815">
        <ele>445.2276611</ele>
        <time>2010-09-25T18:00:38Z</time>
      </trkpt>
      <trkpt lat="45.37963" lon="5.63799">
        <ele>445.2276611</ele>
        <time>2010-09-25T18:00:42Z</time>
      </trkpt>
      <trkpt lat="45.37966" lon="5.63782">
        <ele>445.2276611</ele>
        <time>2010-09-25T18:00:46Z</time>
      </trkpt>
      <trkpt lat="45.37969" lon="5.63767">
        <ele>444.7470703</ele>
        <time>2010-09-25T18:00:50Z</time>
      </trkpt>
      <trkpt lat="45.37971" lon="5.63753">
        <ele>444.7470703</ele>
        <time>2010-09-25T18:00:54Z</time>
      </trkpt>
      <trkpt lat="45.37974" lon="5.63741">
        <ele>444.2664795</ele>
        <time>2010-09-25T18:00:58Z</time>
      </trkpt>
      <trkpt lat="45.37976" lon="5.63724">
        <ele>444.2664795</ele>
        <time>2010-09-25T18:01:02Z</time>
      </trkpt>
      <trkpt lat="45.37978" lon="5.63711">
        <ele>444.2664795</ele>
        <time>2010-09-25T18:01:06Z</time>
      </trkpt>
      <trkpt lat="45.37981" lon="5.63699">
        <ele>444.2664795</ele>
        <time>2010-09-25T18:01:10Z</time>
      </trkpt>
      <trkpt lat="45.37984" lon="5.63685">
        <ele>443.7857666</ele>
        <time>2010-09-25T18:01:14Z</time>
      </trkpt>
      <trkpt lat="45.3799" lon="5.63672">
        <ele>443.7857666</ele>
        <time>2010-09-25T18:01:18Z</time>
      </trkpt>
      <trkpt lat="45.37996" lon="5.6366">
        <ele>443.3050537</ele>
        <time>2010-09-25T18:01:22Z</time>
      </trkpt>
      <trkpt lat="45.38" lon="5.63648">
        <ele>443.3050537</ele>
        <time>2010-09-25T18:01:26Z</time>
      </trkpt>
      <trkpt lat="45.38008" lon="5.63636">
        <ele>442.8244629</ele>
        <time>2010-09-25T18:01:30Z</time>
      </trkpt>
      <trkpt lat="45.38012" lon="5.63623">
        <ele>442.8244629</ele>
        <time>2010-09-25T18:01:35Z</time>
      </trkpt>
      <trkpt lat="45.38015" lon="5.63608">
        <ele>442.3438721</ele>
        <time>2010-09-25T18:01:40Z</time>
      </trkpt>
      <trkpt lat="45.38018" lon="5.63595">
        <ele>442.3438721</ele>
        <time>2010-09-25T18:01:44Z</time>
      </trkpt>
      <trkpt lat="45.38024" lon="5.63584">
        <ele>441.8631592</ele>
        <time>2010-09-25T18:01:48Z</time>
      </trkpt>
      <trkpt lat="45.38027" lon="5.63571">
        <ele>441.3824463</ele>
        <time>2010-09-25T18:01:52Z</time>
      </trkpt>
      <trkpt lat="45.38032" lon="5.63558">
        <ele>441.3824463</ele>
        <time>2010-09-25T18:01:56Z</time>
      </trkpt>
      <trkpt lat="45.38036" lon="5.63545">
        <ele>440.9018555</ele>
        <time>2010-09-25T18:02:00Z</time>
      </trkpt>
      <trkpt lat="45.38041" lon="5.63531">
        <ele>440.9018555</ele>
        <time>2010-09-25T18:02:04Z</time>
      </trkpt>
      <trkpt lat="45.38046" lon="5.63518">
        <ele>440.9018555</ele>
        <time>2010-09-25T18:02:08Z</time>
      </trkpt>
      <trkpt lat="45.38051" lon="5.63506">
        <ele>440.4212646</ele>
        <time>2010-09-25T18:02:12Z</time>
      </trkpt>
      <trkpt lat="45.38056" lon="5.63491">
        <ele>440.4212646</ele>
        <time>2010-09-25T18:02:17Z</time>
      </trkpt>
      <trkpt lat="45.38062" lon="5.63477">
        <ele>439.9404297</ele>
        <time>2010-09-25T18:02:21Z</time>
      </trkpt>
      <trkpt lat="45.38063" lon="5.63462">
        <ele>439.9404297</ele>
        <time>2010-09-25T18:02:25Z</time>
      </trkpt>
      <trkpt lat="45.38065" lon="5.6345">
        <ele>439.4597168</ele>
        <time>2010-09-25T18:02:29Z</time>
      </trkpt>
      <trkpt lat="45.38068" lon="5.63434">
        <ele>439.4597168</ele>
        <time>2010-09-25T18:02:33Z</time>
      </trkpt>
      <trkpt lat="45.3807" lon="5.63421">
        <ele>438.4985352</ele>
        <time>2010-09-25T18:02:37Z</time>
      </trkpt>
      <trkpt lat="45.38074" lon="5.63406">
        <ele>438.0178223</ele>
        <time>2010-09-25T18:02:41Z</time>
      </trkpt>
      <trkpt lat="45.38073" lon="5.63392">
        <ele>437.0565186</ele>
        <time>2010-09-25T18:02:45Z</time>
      </trkpt>
      <trkpt lat="45.3807" lon="5.63379">
        <ele>436.5759277</ele>
        <time>2010-09-25T18:02:49Z</time>
      </trkpt>
      <trkpt lat="45.38068" lon="5.63363">
        <ele>435.1339111</ele>
        <time>2010-09-25T18:02:54Z</time>
      </trkpt>
      <trkpt lat="45.38064" lon="5.63349">
        <ele>434.1726074</ele>
        <time>2010-09-25T18:02:58Z</time>
      </trkpt>
      <trkpt lat="45.38059" lon="5.63334">
        <ele>433.2113037</ele>
        <time>2010-09-25T18:03:03Z</time>
      </trkpt>
      <trkpt lat="45.38052" lon="5.63318">
        <ele>432.25</ele>
        <time>2010-09-25T18:03:08Z</time>
      </trkpt>
      <trkpt lat="45.38045" lon="5.63302">
        <ele>430.3272705</ele>
        <time>2010-09-25T18:03:13Z</time>
      </trkpt>
      <trkpt lat="45.38039" lon="5.6329">
        <ele>428.4046631</ele>
        <time>2010-09-25T18:03:18Z</time>
      </trkpt>
      <trkpt lat="45.38032" lon="5.63275">
        <ele>427.9239502</ele>
        <time>2010-09-25T18:03:23Z</time>
      </trkpt>
      <trkpt lat="45.38026" lon="5.63261">
        <ele>426.4820557</ele>
        <time>2010-09-25T18:03:28Z</time>
      </trkpt>
      <trkpt lat="45.3802" lon="5.63248">
        <ele>425.520752</ele>
        <time>2010-09-25T18:03:33Z</time>
      </trkpt>
      <trkpt lat="45.38015" lon="5.63234">
        <ele>424.5594482</ele>
        <time>2010-09-25T18:03:38Z</time>
      </trkpt>
      <trkpt lat="45.38012" lon="5.63221">
        <ele>423.5980225</ele>
        <time>2010-09-25T18:03:42Z</time>
      </trkpt>
      <trkpt lat="45.3801" lon="5.63206">
        <ele>421.675415</ele>
        <time>2010-09-25T18:03:47Z</time>
      </trkpt>
      <trkpt lat="45.38008" lon="5.6319">
        <ele>419.7528076</ele>
        <time>2010-09-25T18:03:52Z</time>
      </trkpt>
      <trkpt lat="45.38008" lon="5.63172">
        <ele>418.310791</ele>
        <time>2010-09-25T18:03:57Z</time>
      </trkpt>
      <trkpt lat="45.38007" lon="5.63156">
        <ele>417.8302002</ele>
        <time>2010-09-25T18:04:01Z</time>
      </trkpt>
      <trkpt lat="45.38008" lon="5.63142">
        <ele>417.3496094</ele>
        <time>2010-09-25T18:04:05Z</time>
      </trkpt>
      <trkpt lat="45.3801" lon="5.63128">
        <ele>416.8688965</ele>
        <time>2010-09-25T18:04:09Z</time>
      </trkpt>
      <trkpt lat="45.38012" lon="5.63115">
        <ele>416.8688965</ele>
        <time>2010-09-25T18:04:13Z</time>
      </trkpt>
      <trkpt lat="45.38015" lon="5.63098">
        <ele>416.8688965</ele>
        <time>2010-09-25T18:04:18Z</time>
      </trkpt>
      <trkpt lat="45.38015" lon="5.63084">
        <ele>416.8688965</ele>
        <time>2010-09-25T18:04:22Z</time>
      </trkpt>
      <trkpt lat="45.38021" lon="5.63069">
        <ele>416.8688965</ele>
        <time>2010-09-25T18:04:25Z</time>
      </trkpt>
      <trkpt lat="45.38021" lon="5.63053">
        <ele>416.8688965</ele>
        <time>2010-09-25T18:04:29Z</time>
      </trkpt>
      <trkpt lat="45.38024" lon="5.63038">
        <ele>416.3881836</ele>
        <time>2010-09-25T18:04:33Z</time>
      </trkpt>
      <trkpt lat="45.38027" lon="5.63022">
        <ele>416.8688965</ele>
        <time>2010-09-25T18:04:38Z</time>
      </trkpt>
      <trkpt lat="45.38031" lon="5.63008">
        <ele>416.8688965</ele>
        <time>2010-09-25T18:04:43Z</time>
      </trkpt>
      <trkpt lat="45.38036" lon="5.62995">
        <ele>417.8302002</ele>
        <time>2010-09-25T18:04:48Z</time>
      </trkpt>
      <trkpt lat="45.38039" lon="5.62983">
        <ele>419.2722168</ele>
        <time>2010-09-25T18:04:53Z</time>
      </trkpt>
      <trkpt lat="45.38044" lon="5.62971">
        <ele>419.7528076</ele>
        <time>2010-09-25T18:04:58Z</time>
      </trkpt>
      <trkpt lat="45.38049" lon="5.62957">
        <ele>420.7141113</ele>
        <time>2010-09-25T18:05:06Z</time>
      </trkpt>
      <trkpt lat="45.38054" lon="5.62943">
        <ele>421.1948242</ele>
        <time>2010-09-25T18:05:55Z</time>
      </trkpt>
      <trkpt lat="45.38059" lon="5.62929">
        <ele>422.6367188</ele>
        <time>2010-09-25T18:06:03Z</time>
      </trkpt>
      <trkpt lat="45.38062" lon="5.62916">
        <ele>423.1174316</ele>
        <time>2010-09-25T18:06:11Z</time>
      </trkpt>
      <trkpt lat="45.38062" lon="5.62901">
        <ele>424.0787354</ele>
        <time>2010-09-25T18:06:19Z</time>
      </trkpt>
      <trkpt lat="45.38062" lon="5.62887">
        <ele>424.5594482</ele>
        <time>2010-09-25T18:06:27Z</time>
      </trkpt>
      <trkpt lat="45.38062" lon="5.62871">
        <ele>424.5594482</ele>
        <time>2010-09-25T18:06:37Z</time>
      </trkpt>
      <trkpt lat="45.38062" lon="5.62855">
        <ele>425.520752</ele>
        <time>2010-09-25T18:06:43Z</time>
      </trkpt>
      <trkpt lat="45.38058" lon="5.62838">
        <ele>426.0013428</ele>
        <time>2010-09-25T18:06:50Z</time>
      </trkpt>
      <trkpt lat="45.38054" lon="5.62824">
        <ele>426.4820557</ele>
        <time>2010-09-25T18:06:55Z</time>
      </trkpt>
      <trkpt lat="45.38054" lon="5.62808">
        <ele>426.9627686</ele>
        <time>2010-09-25T18:07:01Z</time>
      </trkpt>
      <trkpt lat="45.3805" lon="5.62792">
        <ele>427.9239502</ele>
        <time>2010-09-25T18:07:07Z</time>
      </trkpt>
      <trkpt lat="45.38052" lon="5.62774">
        <ele>427.9239502</ele>
        <time>2010-09-25T18:07:13Z</time>
      </trkpt>
      <trkpt lat="45.38053" lon="5.62755">
        <ele>428.885376</ele>
        <time>2010-09-25T18:07:18Z</time>
      </trkpt>
      <trkpt lat="45.38055" lon="5.62739">
        <ele>429.3659668</ele>
        <time>2010-09-25T18:07:23Z</time>
      </trkpt>
      <trkpt lat="45.38058" lon="5.62725">
        <ele>430.3272705</ele>
        <time>2010-09-25T18:07:28Z</time>
      </trkpt>
      <trkpt lat="45.3806" lon="5.62711">
        <ele>431.2885742</ele>
        <time>2010-09-25T18:07:33Z</time>
      </trkpt>
      <trkpt lat="45.38062" lon="5.62697">
        <ele>432.25</ele>
        <time>2010-09-25T18:07:38Z</time>
      </trkpt>
      <trkpt lat="45.38066" lon="5.62681">
        <ele>433.2113037</ele>
        <time>2010-09-25T18:07:43Z</time>
      </trkpt>
      <trkpt lat="45.38068" lon="5.62668">
        <ele>434.1726074</ele>
        <time>2010-09-25T18:07:48Z</time>
      </trkpt>
      <trkpt lat="45.38069" lon="5.62653">
        <ele>435.1339111</ele>
        <time>2010-09-25T18:07:53Z</time>
      </trkpt>
      <trkpt lat="45.3807" lon="5.62638">
        <ele>436.5759277</ele>
        <time>2010-09-25T18:07:59Z</time>
      </trkpt>
      <trkpt lat="45.38074" lon="5.62626">
        <ele>437.0565186</ele>
        <time>2010-09-25T18:08:04Z</time>
      </trkpt>
      <trkpt lat="45.38077" lon="5.62612">
        <ele>438.4985352</ele>
        <time>2010-09-25T18:08:09Z</time>
      </trkpt>
      <trkpt lat="45.38079" lon="5.62598">
        <ele>439.4597168</ele>
        <time>2010-09-25T18:08:14Z</time>
      </trkpt>
      <trkpt lat="45.38084" lon="5.62584">
        <ele>440.4212646</ele>
        <time>2010-09-25T18:08:21Z</time>
      </trkpt>
      <trkpt lat="45.38087" lon="5.6257">
        <ele>441.3824463</ele>
        <time>2010-09-25T18:08:26Z</time>
      </trkpt>
      <trkpt lat="45.38094" lon="5.62555">
        <ele>442.8244629</ele>
        <time>2010-09-25T18:08:35Z</time>
      </trkpt>
      <trkpt lat="45.38107" lon="5.62531">
        <ele>444.7470703</ele>
        <time>2010-09-25T18:09:20Z</time>
      </trkpt>
      <trkpt lat="45.38108" lon="5.62517">
        <ele>445.2276611</ele>
        <time>2010-09-25T18:09:25Z</time>
      </trkpt>
      <trkpt lat="45.3811" lon="5.62502">
        <ele>446.1890869</ele>
        <time>2010-09-25T18:09:30Z</time>
      </trkpt>
      <trkpt lat="45.38111" lon="5.62487">
        <ele>448.5924072</ele>
        <time>2010-09-25T18:09:35Z</time>
      </trkpt>
      <trkpt lat="45.38113" lon="5.62473">
        <ele>449.072998</ele>
        <time>2010-09-25T18:09:40Z</time>
      </trkpt>
      <trkpt lat="45.38116" lon="5.62457">
        <ele>450.0344238</ele>
        <time>2010-09-25T18:09:45Z</time>
      </trkpt>
      <trkpt lat="45.38118" lon="5.62442">
        <ele>451.4763184</ele>
        <time>2010-09-25T18:09:50Z</time>
      </trkpt>
      <trkpt lat="45.38121" lon="5.62428">
        <ele>452.4376221</ele>
        <time>2010-09-25T18:09:56Z</time>
      </trkpt>
      <trkpt lat="45.38123" lon="5.62414">
        <ele>452.9182129</ele>
        <time>2010-09-25T18:10:01Z</time>
      </trkpt>
      <trkpt lat="45.38126" lon="5.62401">
        <ele>453.8796387</ele>
        <time>2010-09-25T18:10:06Z</time>
      </trkpt>
      <trkpt lat="45.38129" lon="5.62388">
        <ele>454.8408203</ele>
        <time>2010-09-25T18:10:11Z</time>
      </trkpt>
      <trkpt lat="45.38131" lon="5.62374">
        <ele>455.8022461</ele>
        <time>2010-09-25T18:10:17Z</time>
      </trkpt>
      <trkpt lat="45.38135" lon="5.6236">
        <ele>456.7635498</ele>
        <time>2010-09-25T18:10:22Z</time>
      </trkpt>
      <trkpt lat="45.38138" lon="5.62347">
        <ele>457.7249756</ele>
        <time>2010-09-25T18:10:27Z</time>
      </trkpt>
      <trkpt lat="45.3814" lon="5.62334">
        <ele>458.6861572</ele>
        <time>2010-09-25T18:10:32Z</time>
      </trkpt>
      <trkpt lat="45.38143" lon="5.62319">
        <ele>460.1281738</ele>
        <time>2010-09-25T18:10:38Z</time>
      </trkpt>
      <trkpt lat="45.38146" lon="5.62304">
        <ele>461.0894775</ele>
        <time>2010-09-25T18:10:44Z</time>
      </trkpt>
      <trkpt lat="45.38148" lon="5.62288">
        <ele>462.5313721</ele>
        <time>2010-09-25T18:10:51Z</time>
      </trkpt>
      <trkpt lat="45.38151" lon="5.62261">
        <ele>463.9733887</ele>
        <time>2010-09-25T18:11:01Z</time>
      </trkpt>
      <trkpt lat="45.38151" lon="5.62245">
        <ele>465.8961182</ele>
        <time>2010-09-25T18:11:08Z</time>
      </trkpt>
      <trkpt lat="45.38152" lon="5.62223">
        <ele>467.3381348</ele>
        <time>2010-09-25T18:11:16Z</time>
      </trkpt>
      <trkpt lat="45.38155" lon="5.62204">
        <ele>468.7800293</ele>
        <time>2010-09-25T18:11:23Z</time>
      </trkpt>
      <trkpt lat="45.38163" lon="5.62187">
        <ele>470.2219238</ele>
        <time>2010-09-25T18:11:30Z</time>
      </trkpt>
      <trkpt lat="45.38168" lon="5.62173">
        <ele>470.7026367</ele>
        <time>2010-09-25T18:11:36Z</time>
      </trkpt>
      <trkpt lat="45.38176" lon="5.62157">
        <ele>472.1446533</ele>
        <time>2010-09-25T18:11:43Z</time>
      </trkpt>
      <trkpt lat="45.38182" lon="5.62144">
        <ele>473.1060791</ele>
        <time>2010-09-25T18:11:49Z</time>
      </trkpt>
      <trkpt lat="45.38188" lon="5.6213">
        <ele>474.0672607</ele>
        <time>2010-09-25T18:11:55Z</time>
      </trkpt>
      <trkpt lat="45.38196" lon="5.62116">
        <ele>475.5092773</ele>
        <time>2010-09-25T18:12:01Z</time>
      </trkpt>
      <trkpt lat="45.38206" lon="5.62101">
        <ele>476.4705811</ele>
        <time>2010-09-25T18:12:07Z</time>
      </trkpt>
      <trkpt lat="45.38212" lon="5.62089">
        <ele>477.4318848</ele>
        <time>2010-09-25T18:12:12Z</time>
      </trkpt>
      <trkpt lat="45.3822" lon="5.62073">
        <ele>477.4318848</ele>
        <time>2010-09-25T18:12:18Z</time>
      </trkpt>
      <trkpt lat="45.38228" lon="5.62063">
        <ele>477.9124756</ele>
        <time>2010-09-25T18:12:23Z</time>
      </trkpt>
      <trkpt lat="45.38235" lon="5.62051">
        <ele>478.8739014</ele>
        <time>2010-09-25T18:12:28Z</time>
      </trkpt>
      <trkpt lat="45.38243" lon="5.62041">
        <ele>478.8739014</ele>
        <time>2010-09-25T18:12:33Z</time>
      </trkpt>
      <trkpt lat="45.38248" lon="5.62031">
        <ele>479.835083</ele>
        <time>2010-09-25T18:12:38Z</time>
      </trkpt>
      <trkpt lat="45.38254" lon="5.62021">
        <ele>480.7966309</ele>
        <time>2010-09-25T18:12:43Z</time>
      </trkpt>
      <trkpt lat="45.3826" lon="5.62005">
        <ele>481.7578125</ele>
        <time>2010-09-25T18:12:50Z</time>
      </trkpt>
      <trkpt lat="45.38267" lon="5.61992">
        <ele>483.6804199</ele>
        <time>2010-09-25T18:12:57Z</time>
      </trkpt>
      <trkpt lat="45.38275" lon="5.61978">
        <ele>484.1611328</ele>
        <time>2010-09-25T18:13:03Z</time>
      </trkpt>
      <trkpt lat="45.38282" lon="5.61965">
        <ele>485.1224365</ele>
        <time>2010-09-25T18:13:09Z</time>
      </trkpt>
      <trkpt lat="45.38289" lon="5.61951">
        <ele>486.5644531</ele>
        <time>2010-09-25T18:13:15Z</time>
      </trkpt>
      <trkpt lat="45.38298" lon="5.61937">
        <ele>487.5256348</ele>
        <time>2010-09-25T18:13:21Z</time>
      </trkpt>
      <trkpt lat="45.38304" lon="5.61925">
        <ele>487.5256348</ele>
        <time>2010-09-25T18:13:26Z</time>
      </trkpt>
      <trkpt lat="45.38311" lon="5.61911">
        <ele>488.4871826</ele>
        <time>2010-09-25T18:13:31Z</time>
      </trkpt>
      <trkpt lat="45.38315" lon="5.61895">
        <ele>488.9677734</ele>
        <time>2010-09-25T18:13:36Z</time>
      </trkpt>
      <trkpt lat="45.38317" lon="5.61882">
        <ele>489.9290771</ele>
        <time>2010-09-25T18:13:40Z</time>
      </trkpt>
      <trkpt lat="45.3832" lon="5.61867">
        <ele>489.9290771</ele>
        <time>2010-09-25T18:13:45Z</time>
      </trkpt>
      <trkpt lat="45.38323" lon="5.6185">
        <ele>490.40979</ele>
        <time>2010-09-25T18:13:50Z</time>
      </trkpt>
      <trkpt lat="45.38326" lon="5.61835">
        <ele>489.9290771</ele>
        <time>2010-09-25T18:13:55Z</time>
      </trkpt>
      <trkpt lat="45.38329" lon="5.6182">
        <ele>490.40979</ele>
        <time>2010-09-25T18:14:00Z</time>
      </trkpt>
      <trkpt lat="45.38333" lon="5.61805">
        <ele>490.8903809</ele>
        <time>2010-09-25T18:14:05Z</time>
      </trkpt>
      <trkpt lat="45.38336" lon="5.61789">
        <ele>491.3709717</ele>
        <time>2010-09-25T18:14:10Z</time>
      </trkpt>
      <trkpt lat="45.38339" lon="5.61776">
        <ele>491.8516846</ele>
        <time>2010-09-25T18:14:15Z</time>
      </trkpt>
      <trkpt lat="45.38341" lon="5.61762">
        <ele>492.3323975</ele>
        <time>2010-09-25T18:14:20Z</time>
      </trkpt>
      <trkpt lat="45.38346" lon="5.61748">
        <ele>492.3323975</ele>
        <time>2010-09-25T18:14:25Z</time>
      </trkpt>
      <trkpt lat="45.38352" lon="5.61733">
        <ele>493.2935791</ele>
        <time>2010-09-25T18:14:31Z</time>
      </trkpt>
      <trkpt lat="45.38356" lon="5.61718">
        <ele>493.2935791</ele>
        <time>2010-09-25T18:14:37Z</time>
      </trkpt>
      <trkpt lat="45.38359" lon="5.61704">
        <ele>494.7355957</ele>
        <time>2010-09-25T18:14:43Z</time>
      </trkpt>
      <trkpt lat="45.38361" lon="5.61689">
        <ele>494.7355957</ele>
        <time>2010-09-25T18:14:48Z</time>
      </trkpt>
      <trkpt lat="45.38364" lon="5.61672">
        <ele>496.6583252</ele>
        <time>2010-09-25T18:14:53Z</time>
      </trkpt>
      <trkpt lat="45.38363" lon="5.61656">
        <ele>497.138916</ele>
        <time>2010-09-25T18:14:58Z</time>
      </trkpt>
      <trkpt lat="45.38361" lon="5.61641">
        <ele>498.1003418</ele>
        <time>2010-09-25T18:15:02Z</time>
      </trkpt>
      <trkpt lat="45.38358" lon="5.61629">
        <ele>499.0615234</ele>
        <time>2010-09-25T18:15:07Z</time>
      </trkpt>
      <trkpt lat="45.38356" lon="5.61616">
        <ele>499.0615234</ele>
        <time>2010-09-25T18:15:12Z</time>
      </trkpt>
      <trkpt lat="45.38352" lon="5.616">
        <ele>500.0229492</ele>
        <time>2010-09-25T18:15:18Z</time>
      </trkpt>
      <trkpt lat="45.3835" lon="5.61585">
        <ele>500.50354</ele>
        <time>2010-09-25T18:15:22Z</time>
      </trkpt>
      <trkpt lat="45.38347" lon="5.61571">
        <ele>500.50354</ele>
        <time>2010-09-25T18:15:27Z</time>
      </trkpt>
      <trkpt lat="45.38344" lon="5.61556">
        <ele>500.9841309</ele>
        <time>2010-09-25T18:15:32Z</time>
      </trkpt>
      <trkpt lat="45.38341" lon="5.6154">
        <ele>501.4648438</ele>
        <time>2010-09-25T18:15:37Z</time>
      </trkpt>
      <trkpt lat="45.38338" lon="5.61524">
        <ele>502.4261475</ele>
        <time>2010-09-25T18:15:42Z</time>
      </trkpt>
      <trkpt lat="45.38334" lon="5.61513">
        <ele>502.4261475</ele>
        <time>2010-09-25T18:15:46Z</time>
      </trkpt>
      <trkpt lat="45.38334" lon="5.61496">
        <ele>502.9067383</ele>
        <time>2010-09-25T18:15:51Z</time>
      </trkpt>
      <trkpt lat="45.38333" lon="5.61483">
        <ele>502.9067383</ele>
        <time>2010-09-25T18:15:55Z</time>
      </trkpt>
      <trkpt lat="45.38332" lon="5.61469">
        <ele>503.8681641</ele>
        <time>2010-09-25T18:16:00Z</time>
      </trkpt>
      <trkpt lat="45.38329" lon="5.61455">
        <ele>503.8681641</ele>
        <time>2010-09-25T18:16:05Z</time>
      </trkpt>
      <trkpt lat="45.38326" lon="5.61437">
        <ele>504.348877</ele>
        <time>2010-09-25T18:16:11Z</time>
      </trkpt>
      <trkpt lat="45.38324" lon="5.61422">
        <ele>504.8294678</ele>
        <time>2010-09-25T18:16:16Z</time>
      </trkpt>
      <trkpt lat="45.38322" lon="5.61407">
        <ele>506.2714844</ele>
        <time>2010-09-25T18:16:21Z</time>
      </trkpt>
      <trkpt lat="45.38319" lon="5.61391">
        <ele>506.2714844</ele>
        <time>2010-09-25T18:16:26Z</time>
      </trkpt>
      <trkpt lat="45.3832" lon="5.61376">
        <ele>506.2714844</ele>
        <time>2010-09-25T18:16:34Z</time>
      </trkpt>
      <trkpt lat="45.38321" lon="5.61362">
        <ele>506.2714844</ele>
        <time>2010-09-25T18:16:40Z</time>
      </trkpt>
      <trkpt lat="45.38321" lon="5.61348">
        <ele>506.7520752</ele>
        <time>2010-09-25T18:16:44Z</time>
      </trkpt>
      <trkpt lat="45.38321" lon="5.61335">
        <ele>507.2327881</ele>
        <time>2010-09-25T18:16:48Z</time>
      </trkpt>
      <trkpt lat="45.38322" lon="5.61319">
        <ele>506.7520752</ele>
        <time>2010-09-25T18:16:53Z</time>
      </trkpt>
      <trkpt lat="45.38323" lon="5.61305">
        <ele>507.2327881</ele>
        <time>2010-09-25T18:16:57Z</time>
      </trkpt>
      <trkpt lat="45.38323" lon="5.6129">
        <ele>507.2327881</ele>
        <time>2010-09-25T18:17:01Z</time>
      </trkpt>
      <trkpt lat="45.38325" lon="5.61276">
        <ele>507.2327881</ele>
        <time>2010-09-25T18:17:05Z</time>
      </trkpt>
      <trkpt lat="45.38326" lon="5.61262">
        <ele>507.713501</ele>
        <time>2010-09-25T18:17:09Z</time>
      </trkpt>
      <trkpt lat="45.38327" lon="5.61246">
        <ele>507.713501</ele>
        <time>2010-09-25T18:17:14Z</time>
      </trkpt>
      <trkpt lat="45.38324" lon="5.61231">
        <ele>507.713501</ele>
        <time>2010-09-25T18:17:19Z</time>
      </trkpt>
      <trkpt lat="45.38325" lon="5.61216">
        <ele>507.713501</ele>
        <time>2010-09-25T18:17:24Z</time>
      </trkpt>
      <trkpt lat="45.38325" lon="5.61202">
        <ele>508.6746826</ele>
        <time>2010-09-25T18:17:28Z</time>
      </trkpt>
      <trkpt lat="45.38325" lon="5.61188">
        <ele>508.6746826</ele>
        <time>2010-09-25T18:17:33Z</time>
      </trkpt>
      <trkpt lat="45.38322" lon="5.61174">
        <ele>508.6746826</ele>
        <time>2010-09-25T18:17:39Z</time>
      </trkpt>
      <trkpt lat="45.38319" lon="5.6116">
        <ele>508.6746826</ele>
        <time>2010-09-25T18:17:43Z</time>
      </trkpt>
      <trkpt lat="45.38316" lon="5.61146">
        <ele>508.1940918</ele>
        <time>2010-09-25T18:17:47Z</time>
      </trkpt>
      <trkpt lat="45.38314" lon="5.61132">
        <ele>508.6746826</ele>
        <time>2010-09-25T18:17:51Z</time>
      </trkpt>
      <trkpt lat="45.38311" lon="5.61115">
        <ele>508.1940918</ele>
        <time>2010-09-25T18:17:56Z</time>
      </trkpt>
      <trkpt lat="45.38309" lon="5.61102">
        <ele>507.713501</ele>
        <time>2010-09-25T18:18:00Z</time>
      </trkpt>
      <trkpt lat="45.38308" lon="5.61087">
        <ele>508.6746826</ele>
        <time>2010-09-25T18:18:04Z</time>
      </trkpt>
      <trkpt lat="45.38307" lon="5.61071">
        <ele>508.6746826</ele>
        <time>2010-09-25T18:18:09Z</time>
      </trkpt>
      <trkpt lat="45.38306" lon="5.61056">
        <ele>508.6746826</ele>
        <time>2010-09-25T18:18:13Z</time>
      </trkpt>
      <trkpt lat="45.38306" lon="5.61043">
        <ele>508.6746826</ele>
        <time>2010-09-25T18:18:17Z</time>
      </trkpt>
      <trkpt lat="45.38304" lon="5.61028">
        <ele>509.1553955</ele>
        <time>2010-09-25T18:18:21Z</time>
      </trkpt>
      <trkpt lat="45.38303" lon="5.61014">
        <ele>509.1553955</ele>
        <time>2010-09-25T18:18:25Z</time>
      </trkpt>
      <trkpt lat="45.38301" lon="5.61">
        <ele>509.1553955</ele>
        <time>2010-09-25T18:18:29Z</time>
      </trkpt>
      <trkpt lat="45.38301" lon="5.60986">
        <ele>509.6361084</ele>
        <time>2010-09-25T18:18:33Z</time>
      </trkpt>
      <trkpt lat="45.383" lon="5.60972">
        <ele>509.6361084</ele>
        <time>2010-09-25T18:18:37Z</time>
      </trkpt>
      <trkpt lat="45.383" lon="5.60956">
        <ele>510.1166992</ele>
        <time>2010-09-25T18:18:42Z</time>
      </trkpt>
      <trkpt lat="45.38299" lon="5.60941">
        <ele>509.6361084</ele>
        <time>2010-09-25T18:18:46Z</time>
      </trkpt>
      <trkpt lat="45.38299" lon="5.60927">
        <ele>510.1166992</ele>
        <time>2010-09-25T18:18:51Z</time>
      </trkpt>
      <trkpt lat="45.38297" lon="5.60909">
        <ele>511.0780029</ele>
        <time>2010-09-25T18:18:56Z</time>
      </trkpt>
      <trkpt lat="45.38297" lon="5.60892">
        <ele>510.59729</ele>
        <time>2010-09-25T18:19:01Z</time>
      </trkpt>
      <trkpt lat="45.38296" lon="5.60877">
        <ele>511.0780029</ele>
        <time>2010-09-25T18:19:05Z</time>
      </trkpt>
      <trkpt lat="45.38295" lon="5.60862">
        <ele>511.0780029</ele>
        <time>2010-09-25T18:19:10Z</time>
      </trkpt>
      <trkpt lat="45.38295" lon="5.60848">
        <ele>511.5587158</ele>
        <time>2010-09-25T18:19:24Z</time>
      </trkpt>
      <trkpt lat="45.38296" lon="5.60833">
        <ele>511.5587158</ele>
        <time>2010-09-25T18:19:29Z</time>
      </trkpt>
      <trkpt lat="45.38295" lon="5.60818">
        <ele>512.0394287</ele>
        <time>2010-09-25T18:19:33Z</time>
      </trkpt>
      <trkpt lat="45.38294" lon="5.60804">
        <ele>512.5200195</ele>
        <time>2010-09-25T18:19:37Z</time>
      </trkpt>
      <trkpt lat="45.38293" lon="5.60788">
        <ele>513.0007324</ele>
        <time>2010-09-25T18:19:42Z</time>
      </trkpt>
      <trkpt lat="45.38293" lon="5.60774">
        <ele>513.9620361</ele>
        <time>2010-09-25T18:19:47Z</time>
      </trkpt>
      <trkpt lat="45.38294" lon="5.60758">
        <ele>514.9233398</ele>
        <time>2010-09-25T18:19:53Z</time>
      </trkpt>
      <trkpt lat="45.38296" lon="5.60742">
        <ele>515.8846436</ele>
        <time>2010-09-25T18:19:59Z</time>
      </trkpt>
      <trkpt lat="45.38298" lon="5.60723">
        <ele>516.3652344</ele>
        <time>2010-09-25T18:20:05Z</time>
      </trkpt>
      <trkpt lat="45.38298" lon="5.60706">
        <ele>517.3266602</ele>
        <time>2010-09-25T18:20:10Z</time>
      </trkpt>
      <trkpt lat="45.38299" lon="5.60692">
        <ele>517.3266602</ele>
        <time>2010-09-25T18:20:15Z</time>
      </trkpt>
      <trkpt lat="45.383" lon="5.60677">
        <ele>517.3266602</ele>
        <time>2010-09-25T18:20:20Z</time>
      </trkpt>
      <trkpt lat="45.38298" lon="5.60661">
        <ele>517.807251</ele>
        <time>2010-09-25T18:20:25Z</time>
      </trkpt>
      <trkpt lat="45.38303" lon="5.60644">
        <ele>517.807251</ele>
        <time>2010-09-25T18:20:30Z</time>
      </trkpt>
      <trkpt lat="45.38305" lon="5.60629">
        <ele>518.2878418</ele>
        <time>2010-09-25T18:20:35Z</time>
      </trkpt>
      <trkpt lat="45.38309" lon="5.60613">
        <ele>518.2878418</ele>
        <time>2010-09-25T18:20:40Z</time>
      </trkpt>
      <trkpt lat="45.38316" lon="5.60602">
        <ele>518.7685547</ele>
        <time>2010-09-25T18:20:45Z</time>
      </trkpt>
      <trkpt lat="45.38317" lon="5.60586">
        <ele>519.7298584</ele>
        <time>2010-09-25T18:20:50Z</time>
      </trkpt>
      <trkpt lat="45.3832" lon="5.60575">
        <ele>520.2105713</ele>
        <time>2010-09-25T18:20:55Z</time>
      </trkpt>
      <trkpt lat="45.38321" lon="5.60561">
        <ele>520.6912842</ele>
        <time>2010-09-25T18:21:00Z</time>
      </trkpt>
      <trkpt lat="45.38323" lon="5.60546">
        <ele>521.1719971</ele>
        <time>2010-09-25T18:21:05Z</time>
      </trkpt>
      <trkpt lat="45.38323" lon="5.60531">
        <ele>521.6525879</ele>
        <time>2010-09-25T18:21:10Z</time>
      </trkpt>
      <trkpt lat="45.38324" lon="5.60516">
        <ele>521.6525879</ele>
        <time>2010-09-25T18:21:15Z</time>
      </trkpt>
      <trkpt lat="45.38326" lon="5.60502">
        <ele>522.1331787</ele>
        <time>2010-09-25T18:21:19Z</time>
      </trkpt>
      <trkpt lat="45.38328" lon="5.60486">
        <ele>521.6525879</ele>
        <time>2010-09-25T18:21:24Z</time>
      </trkpt>
      <trkpt lat="45.38331" lon="5.60467">
        <ele>521.6525879</ele>
        <time>2010-09-25T18:21:30Z</time>
      </trkpt>
      <trkpt lat="45.38336" lon="5.60451">
        <ele>521.6525879</ele>
        <time>2010-09-25T18:21:35Z</time>
      </trkpt>
      <trkpt lat="45.38342" lon="5.60435">
        <ele>522.1331787</ele>
        <time>2010-09-25T18:21:40Z</time>
      </trkpt>
      <trkpt lat="45.38345" lon="5.60421">
        <ele>521.6525879</ele>
        <time>2010-09-25T18:21:45Z</time>
      </trkpt>
      <trkpt lat="45.38345" lon="5.60404">
        <ele>521.1719971</ele>
        <time>2010-09-25T18:21:51Z</time>
      </trkpt>
      <trkpt lat="45.38345" lon="5.60388">
        <ele>521.1719971</ele>
        <time>2010-09-25T18:21:56Z</time>
      </trkpt>
      <trkpt lat="45.38345" lon="5.60373">
        <ele>520.6912842</ele>
        <time>2010-09-25T18:22:01Z</time>
      </trkpt>
      <trkpt lat="45.38345" lon="5.60358">
        <ele>520.6912842</ele>
        <time>2010-09-25T18:22:06Z</time>
      </trkpt>
      <trkpt lat="45.38342" lon="5.60344">
        <ele>520.2105713</ele>
        <time>2010-09-25T18:22:11Z</time>
      </trkpt>
      <trkpt lat="45.38343" lon="5.60327">
        <ele>520.2105713</ele>
        <time>2010-09-25T18:22:16Z</time>
      </trkpt>
      <trkpt lat="45.38344" lon="5.60312">
        <ele>520.2105713</ele>
        <time>2010-09-25T18:22:21Z</time>
      </trkpt>
      <trkpt lat="45.38342" lon="5.60298">
        <ele>520.2105713</ele>
        <time>2010-09-25T18:22:26Z</time>
      </trkpt>
      <trkpt lat="45.38339" lon="5.6028">
        <ele>519.7298584</ele>
        <time>2010-09-25T18:22:31Z</time>
      </trkpt>
      <trkpt lat="45.3833" lon="5.60265">
        <ele>520.2105713</ele>
        <time>2010-09-25T18:22:36Z</time>
      </trkpt>
      <trkpt lat="45.38328" lon="5.60251">
        <ele>520.6912842</ele>
        <time>2010-09-25T18:22:42Z</time>
      </trkpt>
      <trkpt lat="45.38325" lon="5.60237">
        <ele>521.1719971</ele>
        <time>2010-09-25T18:22:48Z</time>
      </trkpt>
      <trkpt lat="45.38326" lon="5.60221">
        <ele>520.6912842</ele>
        <time>2010-09-25T18:22:54Z</time>
      </trkpt>
      <trkpt lat="45.38323" lon="5.60202">
        <ele>520.6912842</ele>
        <time>2010-09-25T18:23:00Z</time>
      </trkpt>
      <trkpt lat="45.3832" lon="5.60181">
        <ele>520.6912842</ele>
        <time>2010-09-25T18:23:06Z</time>
      </trkpt>
      <trkpt lat="45.38316" lon="5.60167">
        <ele>521.1719971</ele>
        <time>2010-09-25T18:23:12Z</time>
      </trkpt>
      <trkpt lat="45.38317" lon="5.6015">
        <ele>521.1719971</ele>
        <time>2010-09-25T18:23:17Z</time>
      </trkpt>
      <trkpt lat="45.38329" lon="5.60135">
        <ele>521.1719971</ele>
        <time>2010-09-25T18:23:22Z</time>
      </trkpt>
      <trkpt lat="45.38332" lon="5.60119">
        <ele>521.1719971</ele>
        <time>2010-09-25T18:23:28Z</time>
      </trkpt>
      <trkpt lat="45.38336" lon="5.60103">
        <ele>521.6525879</ele>
        <time>2010-09-25T18:23:33Z</time>
      </trkpt>
      <trkpt lat="45.38336" lon="5.60084">
        <ele>522.1331787</ele>
        <time>2010-09-25T18:23:39Z</time>
      </trkpt>
      <trkpt lat="45.38335" lon="5.60067">
        <ele>522.6138916</ele>
        <time>2010-09-25T18:23:44Z</time>
      </trkpt>
      <trkpt lat="45.38334" lon="5.60051">
        <ele>523.0946045</ele>
        <time>2010-09-25T18:23:50Z</time>
      </trkpt>
      <trkpt lat="45.3833" lon="5.60036">
        <ele>524.0557861</ele>
        <time>2010-09-25T18:23:55Z</time>
      </trkpt>
      <trkpt lat="45.38327" lon="5.60015">
        <ele>525.0172119</ele>
        <time>2010-09-25T18:24:01Z</time>
      </trkpt>
      <trkpt lat="45.38329" lon="5.59996">
        <ele>526.4591064</ele>
        <time>2010-09-25T18:24:09Z</time>
      </trkpt>
      <trkpt lat="45.38329" lon="5.59965">
        <ele>527.4204102</ele>
        <time>2010-09-25T18:24:16Z</time>
      </trkpt>
      <trkpt lat="45.38329" lon="5.59943">
        <ele>529.3431396</ele>
        <time>2010-09-25T18:24:23Z</time>
      </trkpt>
      <trkpt lat="45.38345" lon="5.59925">
        <ele>531.2657471</ele>
        <time>2010-09-25T18:24:30Z</time>
      </trkpt>
      <trkpt lat="45.38372" lon="5.59899">
        <ele>531.7463379</ele>
        <time>2010-09-25T18:25:11Z</time>
      </trkpt>
      <trkpt lat="45.38379" lon="5.59886">
        <ele>530.3044434</ele>
        <time>2010-09-25T18:25:24Z</time>
      </trkpt>
      <trkpt lat="45.38385" lon="5.59873">
        <ele>527.901001</ele>
        <time>2010-09-25T18:25:31Z</time>
      </trkpt>
      <trkpt lat="45.38391" lon="5.59856">
        <ele>525.9783936</ele>
        <time>2010-09-25T18:25:38Z</time>
      </trkpt>
      <trkpt lat="45.384" lon="5.59847">
        <ele>523.5751953</ele>
        <time>2010-09-25T18:25:44Z</time>
      </trkpt>
      <trkpt lat="45.3841" lon="5.59837">
        <ele>521.1719971</ele>
        <time>2010-09-25T18:25:50Z</time>
      </trkpt>
      <trkpt lat="45.38419" lon="5.59827">
        <ele>518.7685547</ele>
        <time>2010-09-25T18:25:56Z</time>
      </trkpt>
      <trkpt lat="45.3843" lon="5.59813">
        <ele>515.4040527</ele>
        <time>2010-09-25T18:26:03Z</time>
      </trkpt>
      <trkpt lat="45.3844" lon="5.59798">
        <ele>512.5200195</ele>
        <time>2010-09-25T18:26:10Z</time>
      </trkpt>
      <trkpt lat="45.38455" lon="5.59786">
        <ele>510.1166992</ele>
        <time>2010-09-25T18:26:16Z</time>
      </trkpt>
      <trkpt lat="45.38472" lon="5.5978">
        <ele>508.6746826</ele>
        <time>2010-09-25T18:26:21Z</time>
      </trkpt>
      <trkpt lat="45.38477" lon="5.59766">
        <ele>506.7520752</ele>
        <time>2010-09-25T18:26:26Z</time>
      </trkpt>
      <trkpt lat="45.3847" lon="5.59756">
        <ele>506.2714844</ele>
        <time>2010-09-25T18:26:30Z</time>
      </trkpt>
      <trkpt lat="45.38462" lon="5.59756">
        <ele>504.8294678</ele>
        <time>2010-09-25T18:26:34Z</time>
      </trkpt>
      <trkpt lat="45.3845" lon="5.59758">
        <ele>504.348877</ele>
        <time>2010-09-25T18:26:38Z</time>
      </trkpt>
      <trkpt lat="45.38442" lon="5.59759">
        <ele>502.9067383</ele>
        <time>2010-09-25T18:26:42Z</time>
      </trkpt>
      <trkpt lat="45.38432" lon="5.59761">
        <ele>501.9455566</ele>
        <time>2010-09-25T18:26:47Z</time>
      </trkpt>
      <trkpt lat="45.38422" lon="5.59748">
        <ele>500.50354</ele>
        <time>2010-09-25T18:26:52Z</time>
      </trkpt>
      <trkpt lat="45.38416" lon="5.59734">
        <ele>499.0615234</ele>
        <time>2010-09-25T18:26:58Z</time>
      </trkpt>
      <trkpt lat="45.38409" lon="5.59728">
        <ele>498.5809326</ele>
        <time>2010-09-25T18:27:05Z</time>
      </trkpt>
      <trkpt lat="45.38396" lon="5.59728">
        <ele>497.6196289</ele>
        <time>2010-09-25T18:27:12Z</time>
      </trkpt>
      <trkpt lat="45.38381" lon="5.59733">
        <ele>497.138916</ele>
        <time>2010-09-25T18:27:18Z</time>
      </trkpt>
      <trkpt lat="45.3837" lon="5.59735">
        <ele>495.6968994</ele>
        <time>2010-09-25T18:27:26Z</time>
      </trkpt>
      <trkpt lat="45.3835" lon="5.59723">
        <ele>494.7355957</ele>
        <time>2010-09-25T18:27:31Z</time>
      </trkpt>
      <trkpt lat="45.38337" lon="5.59713">
        <ele>493.774292</ele>
        <time>2010-09-25T18:27:36Z</time>
      </trkpt>
      <trkpt lat="45.38327" lon="5.59705">
        <ele>492.8129883</ele>
        <time>2010-09-25T18:27:41Z</time>
      </trkpt>
      <trkpt lat="45.38313" lon="5.59696">
        <ele>492.3323975</ele>
        <time>2010-09-25T18:27:46Z</time>
      </trkpt>
      <trkpt lat="45.38304" lon="5.5969">
        <ele>491.8516846</ele>
        <time>2010-09-25T18:27:51Z</time>
      </trkpt>
      <trkpt lat="45.38294" lon="5.5968">
        <ele>490.8903809</ele>
        <time>2010-09-25T18:27:55Z</time>
      </trkpt>
      <trkpt lat="45.38283" lon="5.59672">
        <ele>489.9290771</ele>
        <time>2010-09-25T18:27:59Z</time>
      </trkpt>
      <trkpt lat="45.38271" lon="5.5966">
        <ele>488.4871826</ele>
        <time>2010-09-25T18:28:05Z</time>
      </trkpt>
      <trkpt lat="45.3826" lon="5.59654">
        <ele>486.5644531</ele>
        <time>2010-09-25T18:28:10Z</time>
      </trkpt>
      <trkpt lat="45.38251" lon="5.59642">
        <ele>486.5644531</ele>
        <time>2010-09-25T18:28:15Z</time>
      </trkpt>
      <trkpt lat="45.38243" lon="5.59631">
        <ele>485.6030273</ele>
        <time>2010-09-25T18:28:19Z</time>
      </trkpt>
      <trkpt lat="45.38236" lon="5.59618">
        <ele>483.6804199</ele>
        <time>2010-09-25T18:28:24Z</time>
      </trkpt>
      <trkpt lat="45.38227" lon="5.59607">
        <ele>482.2385254</ele>
        <time>2010-09-25T18:28:29Z</time>
      </trkpt>
      <trkpt lat="45.3822" lon="5.59597">
        <ele>481.2772217</ele>
        <time>2010-09-25T18:28:34Z</time>
      </trkpt>
      <trkpt lat="45.3821" lon="5.59584">
        <ele>480.315918</ele>
        <time>2010-09-25T18:28:39Z</time>
      </trkpt>
      <trkpt lat="45.38202" lon="5.59574">
        <ele>477.9124756</ele>
        <time>2010-09-25T18:28:44Z</time>
      </trkpt>
      <trkpt lat="45.38194" lon="5.59562">
        <ele>476.4705811</ele>
        <time>2010-09-25T18:28:49Z</time>
      </trkpt>
      <trkpt lat="45.38182" lon="5.59551">
        <ele>473.5866699</ele>
        <time>2010-09-25T18:28:56Z</time>
      </trkpt>
      <trkpt lat="45.38169" lon="5.59538">
        <ele>471.1833496</ele>
        <time>2010-09-25T18:29:02Z</time>
      </trkpt>
      <trkpt lat="45.38162" lon="5.5953">
        <ele>470.2219238</ele>
        <time>2010-09-25T18:29:06Z</time>
      </trkpt>
      <trkpt lat="45.38153" lon="5.59519">
        <ele>467.8187256</ele>
        <time>2010-09-25T18:29:11Z</time>
      </trkpt>
      <trkpt lat="45.38144" lon="5.59511">
        <ele>466.8574219</ele>
        <time>2010-09-25T18:29:15Z</time>
      </trkpt>
      <trkpt lat="45.38135" lon="5.59498">
        <ele>463.9733887</ele>
        <time>2010-09-25T18:29:21Z</time>
      </trkpt>
      <trkpt lat="45.38129" lon="5.59486">
        <ele>462.5313721</ele>
        <time>2010-09-25T18:29:25Z</time>
      </trkpt>
      <trkpt lat="45.38123" lon="5.59471">
        <ele>459.647583</ele>
        <time>2010-09-25T18:29:31Z</time>
      </trkpt>
      <trkpt lat="45.38115" lon="5.5946">
        <ele>457.2442627</ele>
        <time>2010-09-25T18:29:36Z</time>
      </trkpt>
      <trkpt lat="45.38108" lon="5.59447">
        <ele>454.3602295</ele>
        <time>2010-09-25T18:29:41Z</time>
      </trkpt>
      <trkpt lat="45.38101" lon="5.59433">
        <ele>451.9570313</ele>
        <time>2010-09-25T18:29:46Z</time>
      </trkpt>
      <trkpt lat="45.38097" lon="5.59421">
        <ele>449.5537109</ele>
        <time>2010-09-25T18:29:51Z</time>
      </trkpt>
      <trkpt lat="45.38095" lon="5.59406">
        <ele>447.1502686</ele>
        <time>2010-09-25T18:29:56Z</time>
      </trkpt>
      <trkpt lat="45.38096" lon="5.59391">
        <ele>444.7470703</ele>
        <time>2010-09-25T18:30:01Z</time>
      </trkpt>
      <trkpt lat="45.38094" lon="5.59377">
        <ele>442.3438721</ele>
        <time>2010-09-25T18:30:06Z</time>
      </trkpt>
      <trkpt lat="45.38094" lon="5.59363">
        <ele>440.9018555</ele>
        <time>2010-09-25T18:30:11Z</time>
      </trkpt>
      <trkpt lat="45.38088" lon="5.59349">
        <ele>438.979126</ele>
        <time>2010-09-25T18:30:17Z</time>
      </trkpt>
      <trkpt lat="45.3808" lon="5.59337">
        <ele>436.0952148</ele>
        <time>2010-09-25T18:30:23Z</time>
      </trkpt>
      <trkpt lat="45.38073" lon="5.59324">
        <ele>434.6533203</ele>
        <time>2010-09-25T18:30:28Z</time>
      </trkpt>
      <trkpt lat="45.38068" lon="5.59315">
        <ele>432.25</ele>
        <time>2010-09-25T18:30:33Z</time>
      </trkpt>
      <trkpt lat="45.38071" lon="5.593">
        <ele>431.2885742</ele>
        <time>2010-09-25T18:30:38Z</time>
      </trkpt>
      <trkpt lat="45.38076" lon="5.59288">
        <ele>429.8465576</ele>
        <time>2010-09-25T18:30:42Z</time>
      </trkpt>
      <trkpt lat="45.38083" lon="5.59276">
        <ele>428.885376</ele>
        <time>2010-09-25T18:30:47Z</time>
      </trkpt>
      <trkpt lat="45.38091" lon="5.59268">
        <ele>426.9627686</ele>
        <time>2010-09-25T18:30:51Z</time>
      </trkpt>
      <trkpt lat="45.381" lon="5.59265">
        <ele>426.0013428</ele>
        <time>2010-09-25T18:30:56Z</time>
      </trkpt>
      <trkpt lat="45.3811" lon="5.59264">
        <ele>425.520752</ele>
        <time>2010-09-25T18:31:01Z</time>
      </trkpt>
      <trkpt lat="45.38123" lon="5.59261">
        <ele>425.520752</ele>
        <time>2010-09-25T18:31:06Z</time>
      </trkpt>
      <trkpt lat="45.38136" lon="5.59257">
        <ele>425.520752</ele>
        <time>2010-09-25T18:31:11Z</time>
      </trkpt>
      <trkpt lat="45.38147" lon="5.59256">
        <ele>425.520752</ele>
        <time>2010-09-25T18:31:15Z</time>
      </trkpt>
      <trkpt lat="45.38156" lon="5.59254">
        <ele>426.0013428</ele>
        <time>2010-09-25T18:31:19Z</time>
      </trkpt>
      <trkpt lat="45.38168" lon="5.59258">
        <ele>427.9239502</ele>
        <time>2010-09-25T18:31:25Z</time>
      </trkpt>
      <trkpt lat="45.3818" lon="5.59264">
        <ele>429.3659668</ele>
        <time>2010-09-25T18:31:32Z</time>
      </trkpt>
      <trkpt lat="45.38188" lon="5.59273">
        <ele>430.8079834</ele>
        <time>2010-09-25T18:31:38Z</time>
      </trkpt>
      <trkpt lat="45.38201" lon="5.59282">
        <ele>431.2885742</ele>
        <time>2010-09-25T18:31:44Z</time>
      </trkpt>
      <trkpt lat="45.38208" lon="5.59295">
        <ele>431.769165</ele>
        <time>2010-09-25T18:31:49Z</time>
      </trkpt>
      <trkpt lat="45.38216" lon="5.59303">
        <ele>432.25</ele>
        <time>2010-09-25T18:31:54Z</time>
      </trkpt>
      <trkpt lat="45.38227" lon="5.5931">
        <ele>432.7307129</ele>
        <time>2010-09-25T18:32:00Z</time>
      </trkpt>
      <trkpt lat="45.38244" lon="5.5931">
        <ele>433.2113037</ele>
        <time>2010-09-25T18:32:06Z</time>
      </trkpt>
      <trkpt lat="45.3826" lon="5.59318">
        <ele>433.6918945</ele>
        <time>2010-09-25T18:32:13Z</time>
      </trkpt>
      <trkpt lat="45.38266" lon="5.59304">
        <ele>433.2113037</ele>
        <time>2010-09-25T18:32:17Z</time>
      </trkpt>
      <trkpt lat="45.38267" lon="5.59289">
        <ele>432.7307129</ele>
        <time>2010-09-25T18:32:22Z</time>
      </trkpt>
      <trkpt lat="45.38268" lon="5.59269">
        <ele>431.769165</ele>
        <time>2010-09-25T18:32:27Z</time>
      </trkpt>
      <trkpt lat="45.38264" lon="5.59254">
        <ele>430.8079834</ele>
        <time>2010-09-25T18:32:31Z</time>
      </trkpt>
      <trkpt lat="45.38264" lon="5.59237">
        <ele>430.3272705</ele>
        <time>2010-09-25T18:32:36Z</time>
      </trkpt>
      <trkpt lat="45.38262" lon="5.59223">
        <ele>429.3659668</ele>
        <time>2010-09-25T18:32:40Z</time>
      </trkpt>
      <trkpt lat="45.38264" lon="5.59207">
        <ele>429.8465576</ele>
        <time>2010-09-25T18:32:45Z</time>
      </trkpt>
      <trkpt lat="45.38264" lon="5.59191">
        <ele>429.8465576</ele>
        <time>2010-09-25T18:32:50Z</time>
      </trkpt>
      <trkpt lat="45.38261" lon="5.59176">
        <ele>429.8465576</ele>
        <time>2010-09-25T18:32:54Z</time>
      </trkpt>
      <trkpt lat="45.38265" lon="5.59158">
        <ele>428.885376</ele>
        <time>2010-09-25T18:32:59Z</time>
      </trkpt>
      <trkpt lat="45.38263" lon="5.59144">
        <ele>427.9239502</ele>
        <time>2010-09-25T18:33:03Z</time>
      </trkpt>
      <trkpt lat="45.38258" lon="5.59128">
        <ele>427.9239502</ele>
        <time>2010-09-25T18:33:08Z</time>
      </trkpt>
      <trkpt lat="45.38253" lon="5.59114">
        <ele>426.4820557</ele>
        <time>2010-09-25T18:33:13Z</time>
      </trkpt>
      <trkpt lat="45.38247" lon="5.59099">
        <ele>425.520752</ele>
        <time>2010-09-25T18:33:18Z</time>
      </trkpt>
      <trkpt lat="45.38245" lon="5.59083">
        <ele>424.0787354</ele>
        <time>2010-09-25T18:33:23Z</time>
      </trkpt>
      <trkpt lat="45.38239" lon="5.59069">
        <ele>421.675415</ele>
        <time>2010-09-25T18:33:28Z</time>
      </trkpt>
      <trkpt lat="45.3823" lon="5.59055">
        <ele>420.2333984</ele>
        <time>2010-09-25T18:33:33Z</time>
      </trkpt>
      <trkpt lat="45.38225" lon="5.59038">
        <ele>418.310791</ele>
        <time>2010-09-25T18:33:38Z</time>
      </trkpt>
      <trkpt lat="45.38219" lon="5.59026">
        <ele>416.8688965</ele>
        <time>2010-09-25T18:33:42Z</time>
      </trkpt>
      <trkpt lat="45.38212" lon="5.59011">
        <ele>414.4654541</ele>
        <time>2010-09-25T18:33:47Z</time>
      </trkpt>
      <trkpt lat="45.38206" lon="5.58999">
        <ele>413.0235596</ele>
        <time>2010-09-25T18:33:51Z</time>
      </trkpt>
      <trkpt lat="45.38199" lon="5.58989">
        <ele>411.581665</ele>
        <time>2010-09-25T18:33:55Z</time>
      </trkpt>
      <trkpt lat="45.38194" lon="5.58975">
        <ele>410.6202393</ele>
        <time>2010-09-25T18:33:59Z</time>
      </trkpt>
      <trkpt lat="45.38189" lon="5.58963">
        <ele>408.6976318</ele>
        <time>2010-09-25T18:34:03Z</time>
      </trkpt>
      <trkpt lat="45.38185" lon="5.58949">
        <ele>407.2556152</ele>
        <time>2010-09-25T18:34:08Z</time>
      </trkpt>
      <trkpt lat="45.38182" lon="5.58932">
        <ele>405.8137207</ele>
        <time>2010-09-25T18:34:13Z</time>
      </trkpt>
      <trkpt lat="45.38178" lon="5.58912">
        <ele>404.8522949</ele>
        <time>2010-09-25T18:34:18Z</time>
      </trkpt>
      <trkpt lat="45.38176" lon="5.58892">
        <ele>402.9296875</ele>
        <time>2010-09-25T18:34:23Z</time>
      </trkpt>
      <trkpt lat="45.38171" lon="5.58877">
        <ele>402.4490967</ele>
        <time>2010-09-25T18:34:27Z</time>
      </trkpt>
      <trkpt lat="45.38168" lon="5.58862">
        <ele>401.487793</ele>
        <time>2010-09-25T18:34:31Z</time>
      </trkpt>
      <trkpt lat="45.38167" lon="5.58848">
        <ele>400.0458984</ele>
        <time>2010-09-25T18:34:35Z</time>
      </trkpt>
      <trkpt lat="45.38164" lon="5.58833">
        <ele>398.6037598</ele>
        <time>2010-09-25T18:34:39Z</time>
      </trkpt>
      <trkpt lat="45.38162" lon="5.58816">
        <ele>397.1617432</ele>
        <time>2010-09-25T18:34:44Z</time>
      </trkpt>
      <trkpt lat="45.38157" lon="5.58803">
        <ele>396.6811523</ele>
        <time>2010-09-25T18:34:48Z</time>
      </trkpt>
      <trkpt lat="45.38154" lon="5.58789">
        <ele>395.2391357</ele>
        <time>2010-09-25T18:34:52Z</time>
      </trkpt>
      <trkpt lat="45.38149" lon="5.58774">
        <ele>393.7972412</ele>
        <time>2010-09-25T18:34:57Z</time>
      </trkpt>
      <trkpt lat="45.38147" lon="5.5876">
        <ele>392.8359375</ele>
        <time>2010-09-25T18:35:02Z</time>
      </trkpt>
      <trkpt lat="45.38144" lon="5.58738">
        <ele>391.8745117</ele>
        <time>2010-09-25T18:35:07Z</time>
      </trkpt>
      <trkpt lat="45.3814" lon="5.58724">
        <ele>390.4326172</ele>
        <time>2010-09-25T18:35:11Z</time>
      </trkpt>
      <trkpt lat="45.38139" lon="5.58711">
        <ele>389.9519043</ele>
        <time>2010-09-25T18:35:15Z</time>
      </trkpt>
      <trkpt lat="45.38136" lon="5.58698">
        <ele>389.4711914</ele>
        <time>2010-09-25T18:35:19Z</time>
      </trkpt>
      <trkpt lat="45.38133" lon="5.58683">
        <ele>388.9906006</ele>
        <time>2010-09-25T18:35:23Z</time>
      </trkpt>
      <trkpt lat="45.38131" lon="5.58666">
        <ele>388.0292969</ele>
        <time>2010-09-25T18:35:27Z</time>
      </trkpt>
      <trkpt lat="45.38132" lon="5.58648">
        <ele>387.548584</ele>
        <time>2010-09-25T18:35:32Z</time>
      </trkpt>
      <trkpt lat="45.3813" lon="5.58633">
        <ele>387.0679932</ele>
        <time>2010-09-25T18:35:36Z</time>
      </trkpt>
      <trkpt lat="45.38131" lon="5.58616">
        <ele>386.5874023</ele>
        <time>2010-09-25T18:35:41Z</time>
      </trkpt>
      <trkpt lat="45.38133" lon="5.58602">
        <ele>386.1066895</ele>
        <time>2010-09-25T18:35:45Z</time>
      </trkpt>
      <trkpt lat="45.38134" lon="5.58585">
        <ele>386.1066895</ele>
        <time>2010-09-25T18:35:50Z</time>
      </trkpt>
      <trkpt lat="45.38133" lon="5.58569">
        <ele>385.6259766</ele>
        <time>2010-09-25T18:35:54Z</time>
      </trkpt>
      <trkpt lat="45.38133" lon="5.58549">
        <ele>386.1066895</ele>
        <time>2010-09-25T18:35:59Z</time>
      </trkpt>
      <trkpt lat="45.38136" lon="5.58536">
        <ele>385.6259766</ele>
        <time>2010-09-25T18:36:03Z</time>
      </trkpt>
      <trkpt lat="45.38136" lon="5.58521">
        <ele>386.1066895</ele>
        <time>2010-09-25T18:36:07Z</time>
      </trkpt>
      <trkpt lat="45.38135" lon="5.58501">
        <ele>385.6259766</ele>
        <time>2010-09-25T18:36:12Z</time>
      </trkpt>
      <trkpt lat="45.38132" lon="5.58484">
        <ele>385.6259766</ele>
        <time>2010-09-25T18:36:17Z</time>
      </trkpt>
      <trkpt lat="45.3813" lon="5.58468">
        <ele>385.1453857</ele>
        <time>2010-09-25T18:36:22Z</time>
      </trkpt>
      <trkpt lat="45.38129" lon="5.5845">
        <ele>384.184082</ele>
        <time>2010-09-25T18:36:27Z</time>
      </trkpt>
      <trkpt lat="45.38125" lon="5.58433">
        <ele>383.2226563</ele>
        <time>2010-09-25T18:36:32Z</time>
      </trkpt>
      <trkpt lat="45.38117" lon="5.58417">
        <ele>382.7420654</ele>
        <time>2010-09-25T18:36:37Z</time>
      </trkpt>
      <trkpt lat="45.38107" lon="5.58404">
        <ele>382.2613525</ele>
        <time>2010-09-25T18:36:42Z</time>
      </trkpt>
      <trkpt lat="45.381" lon="5.58394">
        <ele>381.7806396</ele>
        <time>2010-09-25T18:36:46Z</time>
      </trkpt>
      <trkpt lat="45.38094" lon="5.58381">
        <ele>380.819458</ele>
        <time>2010-09-25T18:36:51Z</time>
      </trkpt>
      <trkpt lat="45.38089" lon="5.58368">
        <ele>380.819458</ele>
        <time>2010-09-25T18:36:56Z</time>
      </trkpt>
      <trkpt lat="45.38087" lon="5.58352">
        <ele>380.819458</ele>
        <time>2010-09-25T18:37:00Z</time>
      </trkpt>
      <trkpt lat="45.38084" lon="5.58333">
        <ele>380.3387451</ele>
        <time>2010-09-25T18:37:05Z</time>
      </trkpt>
      <trkpt lat="45.38085" lon="5.58318">
        <ele>379.8580322</ele>
        <time>2010-09-25T18:37:09Z</time>
      </trkpt>
      <trkpt lat="45.38085" lon="5.58301">
        <ele>379.8580322</ele>
        <time>2010-09-25T18:37:13Z</time>
      </trkpt>
      <trkpt lat="45.38088" lon="5.58286">
        <ele>379.3774414</ele>
        <time>2010-09-25T18:37:17Z</time>
      </trkpt>
      <trkpt lat="45.38089" lon="5.58273">
        <ele>378.4161377</ele>
        <time>2010-09-25T18:37:21Z</time>
      </trkpt>
      <trkpt lat="45.38088" lon="5.5826">
        <ele>378.8968506</ele>
        <time>2010-09-25T18:37:25Z</time>
      </trkpt>
      <trkpt lat="45.38088" lon="5.58245">
        <ele>378.4161377</ele>
        <time>2010-09-25T18:37:30Z</time>
      </trkpt>
      <trkpt lat="45.38087" lon="5.58231">
        <ele>378.4161377</ele>
        <time>2010-09-25T18:37:34Z</time>
      </trkpt>
      <trkpt lat="45.38087" lon="5.58217">
        <ele>378.4161377</ele>
        <time>2010-09-25T18:37:38Z</time>
      </trkpt>
      <trkpt lat="45.38083" lon="5.58202">
        <ele>378.4161377</ele>
        <time>2010-09-25T18:37:43Z</time>
      </trkpt>
      <trkpt lat="45.38082" lon="5.58187">
        <ele>377.9354248</ele>
        <time>2010-09-25T18:37:47Z</time>
      </trkpt>
      <trkpt lat="45.38081" lon="5.58174">
        <ele>377.9354248</ele>
        <time>2010-09-25T18:37:51Z</time>
      </trkpt>
      <trkpt lat="45.3808" lon="5.5816">
        <ele>377.454834</ele>
        <time>2010-09-25T18:37:55Z</time>
      </trkpt>
      <trkpt lat="45.38078" lon="5.58147">
        <ele>377.454834</ele>
        <time>2010-09-25T18:37:59Z</time>
      </trkpt>
      <trkpt lat="45.38077" lon="5.58132">
        <ele>377.9354248</ele>
        <time>2010-09-25T18:38:03Z</time>
      </trkpt>
      <trkpt lat="45.38075" lon="5.58118">
        <ele>377.9354248</ele>
        <time>2010-09-25T18:38:07Z</time>
      </trkpt>
      <trkpt lat="45.38075" lon="5.58103">
        <ele>377.9354248</ele>
        <time>2010-09-25T18:38:11Z</time>
      </trkpt>
      <trkpt lat="45.38076" lon="5.58089">
        <ele>377.9354248</ele>
        <time>2010-09-25T18:38:15Z</time>
      </trkpt>
      <trkpt lat="45.38075" lon="5.58073">
        <ele>377.454834</ele>
        <time>2010-09-25T18:38:19Z</time>
      </trkpt>
      <trkpt lat="45.38074" lon="5.5806">
        <ele>377.454834</ele>
        <time>2010-09-25T18:38:23Z</time>
      </trkpt>
      <trkpt lat="45.38074" lon="5.58048">
        <ele>377.9354248</ele>
        <time>2010-09-25T18:38:27Z</time>
      </trkpt>
      <trkpt lat="45.38074" lon="5.58034">
        <ele>377.454834</ele>
        <time>2010-09-25T18:38:31Z</time>
      </trkpt>
      <trkpt lat="45.38074" lon="5.5802">
        <ele>376.9742432</ele>
        <time>2010-09-25T18:38:35Z</time>
      </trkpt>
      <trkpt lat="45.38068" lon="5.58007">
        <ele>376.4935303</ele>
        <time>2010-09-25T18:38:40Z</time>
      </trkpt>
      <trkpt lat="45.38057" lon="5.58001">
        <ele>376.0128174</ele>
        <time>2010-09-25T18:38:44Z</time>
      </trkpt>
      <trkpt lat="45.38047" lon="5.58001">
        <ele>375.5321045</ele>
        <time>2010-09-25T18:38:48Z</time>
      </trkpt>
      <trkpt lat="45.38038" lon="5.58007">
        <ele>376.0128174</ele>
        <time>2010-09-25T18:38:52Z</time>
      </trkpt>
      <trkpt lat="45.38029" lon="5.58016">
        <ele>375.5321045</ele>
        <time>2010-09-25T18:38:56Z</time>
      </trkpt>
      <trkpt lat="45.38022" lon="5.58023">
        <ele>375.0515137</ele>
        <time>2010-09-25T18:39:00Z</time>
      </trkpt>
      <trkpt lat="45.38014" lon="5.58031">
        <ele>375.0515137</ele>
        <time>2010-09-25T18:39:04Z</time>
      </trkpt>
      <trkpt lat="45.38005" lon="5.58039">
        <ele>375.0515137</ele>
        <time>2010-09-25T18:39:09Z</time>
      </trkpt>
      <trkpt lat="45.37996" lon="5.58048">
        <ele>374.5708008</ele>
        <time>2010-09-25T18:39:13Z</time>
      </trkpt>
      <trkpt lat="45.37988" lon="5.58055">
        <ele>374.5708008</ele>
        <time>2010-09-25T18:39:17Z</time>
      </trkpt>
      <trkpt lat="45.3798" lon="5.58063">
        <ele>374.5708008</ele>
        <time>2010-09-25T18:39:21Z</time>
      </trkpt>
      <trkpt lat="45.3797" lon="5.58069">
        <ele>374.0900879</ele>
        <time>2010-09-25T18:39:25Z</time>
      </trkpt>
      <trkpt lat="45.37962" lon="5.58066">
        <ele>374.0900879</ele>
        <time>2010-09-25T18:39:29Z</time>
      </trkpt>
      <trkpt lat="45.37955" lon="5.58059">
        <ele>374.0900879</ele>
        <time>2010-09-25T18:39:37Z</time>
      </trkpt>
      <trkpt lat="45.37948" lon="5.58047">
        <ele>373.1289063</ele>
        <time>2010-09-25T18:39:45Z</time>
      </trkpt>
      <trkpt lat="45.37946" lon="5.58033">
        <ele>373.6094971</ele>
        <time>2010-09-25T18:39:53Z</time>
      </trkpt>
      <trkpt lat="45.37943" lon="5.5802">
        <ele>373.1289063</ele>
        <time>2010-09-25T18:39:57Z</time>
      </trkpt>
      <trkpt lat="45.37943" lon="5.58007">
        <ele>373.6094971</ele>
        <time>2010-09-25T18:40:01Z</time>
      </trkpt>
      <trkpt lat="45.37942" lon="5.57992">
        <ele>373.1289063</ele>
        <time>2010-09-25T18:40:05Z</time>
      </trkpt>
      <trkpt lat="45.37942" lon="5.57977">
        <ele>373.1289063</ele>
        <time>2010-09-25T18:40:09Z</time>
      </trkpt>
      <trkpt lat="45.37943" lon="5.57962">
        <ele>373.6094971</ele>
        <time>2010-09-25T18:40:13Z</time>
      </trkpt>
      <trkpt lat="45.37944" lon="5.5795">
        <ele>373.6094971</ele>
        <time>2010-09-25T18:40:17Z</time>
      </trkpt>
      <trkpt lat="45.37945" lon="5.57935">
        <ele>373.6094971</ele>
        <time>2010-09-25T18:40:22Z</time>
      </trkpt>
      <trkpt lat="45.37945" lon="5.57919">
        <ele>373.6094971</ele>
        <time>2010-09-25T18:40:27Z</time>
      </trkpt>
      <trkpt lat="45.37945" lon="5.57905">
        <ele>373.6094971</ele>
        <time>2010-09-25T18:40:32Z</time>
      </trkpt>
      <trkpt lat="45.37945" lon="5.57888">
        <ele>373.6094971</ele>
        <time>2010-09-25T18:40:37Z</time>
      </trkpt>
      <trkpt lat="45.37943" lon="5.5787">
        <ele>373.6094971</ele>
        <time>2010-09-25T18:40:41Z</time>
      </trkpt>
      <trkpt lat="45.37943" lon="5.57856">
        <ele>373.6094971</ele>
        <time>2010-09-25T18:40:45Z</time>
      </trkpt>
      <trkpt lat="45.37942" lon="5.5784">
        <ele>373.6094971</ele>
        <time>2010-09-25T18:40:50Z</time>
      </trkpt>
      <trkpt lat="45.37942" lon="5.57824">
        <ele>373.6094971</ele>
        <time>2010-09-25T18:40:55Z</time>
      </trkpt>
      <trkpt lat="45.37941" lon="5.57807">
        <ele>373.6094971</ele>
        <time>2010-09-25T18:41:00Z</time>
      </trkpt>
      <trkpt lat="45.37941" lon="5.57792">
        <ele>373.6094971</ele>
        <time>2010-09-25T18:41:04Z</time>
      </trkpt>
      <trkpt lat="45.37942" lon="5.57776">
        <ele>374.0900879</ele>
        <time>2010-09-25T18:41:09Z</time>
      </trkpt>
      <trkpt lat="45.3794" lon="5.5776">
        <ele>374.0900879</ele>
        <time>2010-09-25T18:41:13Z</time>
      </trkpt>
      <trkpt lat="45.37939" lon="5.57747">
        <ele>374.0900879</ele>
        <time>2010-09-25T18:41:17Z</time>
      </trkpt>
      <trkpt lat="45.37939" lon="5.57734">
        <ele>373.6094971</ele>
        <time>2010-09-25T18:41:22Z</time>
      </trkpt>
      <trkpt lat="45.37937" lon="5.57716">
        <ele>374.0900879</ele>
        <time>2010-09-25T18:41:28Z</time>
      </trkpt>
      <trkpt lat="45.37938" lon="5.577">
        <ele>374.0900879</ele>
        <time>2010-09-25T18:41:33Z</time>
      </trkpt>
      <trkpt lat="45.37938" lon="5.57681">
        <ele>374.5708008</ele>
        <time>2010-09-25T18:41:38Z</time>
      </trkpt>
      <trkpt lat="45.37937" lon="5.57664">
        <ele>375.0515137</ele>
        <time>2010-09-25T18:41:42Z</time>
      </trkpt>
      <trkpt lat="45.37936" lon="5.57651">
        <ele>375.0515137</ele>
        <time>2010-09-25T18:41:46Z</time>
      </trkpt>
      <trkpt lat="45.37937" lon="5.57636">
        <ele>375.5321045</ele>
        <time>2010-09-25T18:41:51Z</time>
      </trkpt>
      <trkpt lat="45.37937" lon="5.57623">
        <ele>375.5321045</ele>
        <time>2010-09-25T18:41:55Z</time>
      </trkpt>
      <trkpt lat="45.37937" lon="5.57606">
        <ele>376.4935303</ele>
        <time>2010-09-25T18:42:00Z</time>
      </trkpt>
      <trkpt lat="45.37935" lon="5.57594">
        <ele>376.9742432</ele>
        <time>2010-09-25T18:42:04Z</time>
      </trkpt>
      <trkpt lat="45.37929" lon="5.57581">
        <ele>376.9742432</ele>
        <time>2010-09-25T18:42:09Z</time>
      </trkpt>
      <trkpt lat="45.37925" lon="5.57564">
        <ele>378.4161377</ele>
        <time>2010-09-25T18:42:14Z</time>
      </trkpt>
      <trkpt lat="45.37921" lon="5.57552">
        <ele>378.4161377</ele>
        <time>2010-09-25T18:42:18Z</time>
      </trkpt>
      <trkpt lat="45.37915" lon="5.57541">
        <ele>378.4161377</ele>
        <time>2010-09-25T18:42:22Z</time>
      </trkpt>
      <trkpt lat="45.37912" lon="5.57528">
        <ele>377.9354248</ele>
        <time>2010-09-25T18:42:26Z</time>
      </trkpt>
      <trkpt lat="45.37909" lon="5.57514">
        <ele>377.9354248</ele>
        <time>2010-09-25T18:42:30Z</time>
      </trkpt>
      <trkpt lat="45.37904" lon="5.57504">
        <ele>378.4161377</ele>
        <time>2010-09-25T18:42:34Z</time>
      </trkpt>
      <trkpt lat="45.37895" lon="5.57493">
        <ele>378.8968506</ele>
        <time>2010-09-25T18:42:39Z</time>
      </trkpt>
      <trkpt lat="45.37884" lon="5.57484">
        <ele>378.4161377</ele>
        <time>2010-09-25T18:42:44Z</time>
      </trkpt>
      <trkpt lat="45.37876" lon="5.57472">
        <ele>378.8968506</ele>
        <time>2010-09-25T18:42:49Z</time>
      </trkpt>
      <trkpt lat="45.37868" lon="5.57464">
        <ele>378.8968506</ele>
        <time>2010-09-25T18:42:53Z</time>
      </trkpt>
      <trkpt lat="45.37858" lon="5.57454">
        <ele>379.3774414</ele>
        <time>2010-09-25T18:42:58Z</time>
      </trkpt>
      <trkpt lat="45.37851" lon="5.57444">
        <ele>379.3774414</ele>
        <time>2010-09-25T18:43:02Z</time>
      </trkpt>
      <trkpt lat="45.37843" lon="5.57434">
        <ele>379.8580322</ele>
        <time>2010-09-25T18:43:07Z</time>
      </trkpt>
      <trkpt lat="45.37837" lon="5.57421">
        <ele>380.3387451</ele>
        <time>2010-09-25T18:43:12Z</time>
      </trkpt>
      <trkpt lat="45.37827" lon="5.5741">
        <ele>380.819458</ele>
        <time>2010-09-25T18:43:17Z</time>
      </trkpt>
      <trkpt lat="45.3782" lon="5.57399">
        <ele>380.819458</ele>
        <time>2010-09-25T18:43:21Z</time>
      </trkpt>
      <trkpt lat="45.37812" lon="5.57389">
        <ele>381.3000488</ele>
        <time>2010-09-25T18:43:25Z</time>
      </trkpt>
      <trkpt lat="45.37805" lon="5.5738">
        <ele>380.819458</ele>
        <time>2010-09-25T18:43:29Z</time>
      </trkpt>
      <trkpt lat="45.37797" lon="5.5737">
        <ele>380.819458</ele>
        <time>2010-09-25T18:43:33Z</time>
      </trkpt>
      <trkpt lat="45.37789" lon="5.57363">
        <ele>380.3387451</ele>
        <time>2010-09-25T18:43:37Z</time>
      </trkpt>
      <trkpt lat="45.37779" lon="5.57355">
        <ele>380.3387451</ele>
        <time>2010-09-25T18:43:41Z</time>
      </trkpt>
      <trkpt lat="45.37769" lon="5.57349">
        <ele>380.3387451</ele>
        <time>2010-09-25T18:43:46Z</time>
      </trkpt>
      <trkpt lat="45.37758" lon="5.57337">
        <ele>380.3387451</ele>
        <time>2010-09-25T18:43:51Z</time>
      </trkpt>
      <trkpt lat="45.37749" lon="5.57333">
        <ele>380.819458</ele>
        <time>2010-09-25T18:43:56Z</time>
      </trkpt>
      <trkpt lat="45.37738" lon="5.57326">
        <ele>380.819458</ele>
        <time>2010-09-25T18:44:01Z</time>
      </trkpt>
      <trkpt lat="45.3773" lon="5.57319">
        <ele>380.819458</ele>
        <time>2010-09-25T18:44:05Z</time>
      </trkpt>
      <trkpt lat="45.37721" lon="5.57312">
        <ele>381.3000488</ele>
        <time>2010-09-25T18:44:09Z</time>
      </trkpt>
      <trkpt lat="45.37713" lon="5.57304">
        <ele>381.3000488</ele>
        <time>2010-09-25T18:44:13Z</time>
      </trkpt>
      <trkpt lat="45.37706" lon="5.57296">
        <ele>381.3000488</ele>
        <time>2010-09-25T18:44:17Z</time>
      </trkpt>
      <trkpt lat="45.37697" lon="5.5729">
        <ele>380.819458</ele>
        <time>2010-09-25T18:44:21Z</time>
      </trkpt>
      <trkpt lat="45.37687" lon="5.57282">
        <ele>380.819458</ele>
        <time>2010-09-25T18:44:26Z</time>
      </trkpt>
      <trkpt lat="45.37678" lon="5.57276">
        <ele>381.3000488</ele>
        <time>2010-09-25T18:44:30Z</time>
      </trkpt>
      <trkpt lat="45.37667" lon="5.57267">
        <ele>381.7806396</ele>
        <time>2010-09-25T18:44:35Z</time>
      </trkpt>
      <trkpt lat="45.37659" lon="5.57259">
        <ele>381.7806396</ele>
        <time>2010-09-25T18:44:39Z</time>
      </trkpt>
      <trkpt lat="45.37651" lon="5.5725">
        <ele>380.819458</ele>
        <time>2010-09-25T18:44:43Z</time>
      </trkpt>
      <trkpt lat="45.37642" lon="5.57242">
        <ele>379.8580322</ele>
        <time>2010-09-25T18:44:47Z</time>
      </trkpt>
      <trkpt lat="45.37634" lon="5.57231">
        <ele>379.8580322</ele>
        <time>2010-09-25T18:44:51Z</time>
      </trkpt>
      <trkpt lat="45.37627" lon="5.57223">
        <ele>379.8580322</ele>
        <time>2010-09-25T18:44:55Z</time>
      </trkpt>
      <trkpt lat="45.37618" lon="5.57216">
        <ele>379.3774414</ele>
        <time>2010-09-25T18:44:59Z</time>
      </trkpt>
      <trkpt lat="45.37608" lon="5.57213">
        <ele>379.3774414</ele>
        <time>2010-09-25T18:45:03Z</time>
      </trkpt>
      <trkpt lat="45.37598" lon="5.57214">
        <ele>378.8968506</ele>
        <time>2010-09-25T18:45:07Z</time>
      </trkpt>
      <trkpt lat="45.37588" lon="5.5722">
        <ele>378.4161377</ele>
        <time>2010-09-25T18:45:11Z</time>
      </trkpt>
      <trkpt lat="45.37578" lon="5.57226">
        <ele>377.454834</ele>
        <time>2010-09-25T18:45:16Z</time>
      </trkpt>
      <trkpt lat="45.37567" lon="5.5723">
        <ele>377.454834</ele>
        <time>2010-09-25T18:45:20Z</time>
      </trkpt>
      <trkpt lat="45.37559" lon="5.57237">
        <ele>377.454834</ele>
        <time>2010-09-25T18:45:25Z</time>
      </trkpt>
      <trkpt lat="45.37546" lon="5.57243">
        <ele>377.454834</ele>
        <time>2010-09-25T18:45:30Z</time>
      </trkpt>
      <trkpt lat="45.37536" lon="5.57248">
        <ele>377.454834</ele>
        <time>2010-09-25T18:45:34Z</time>
      </trkpt>
      <trkpt lat="45.37527" lon="5.57252">
        <ele>376.9742432</ele>
        <time>2010-09-25T18:45:38Z</time>
      </trkpt>
      <trkpt lat="45.37518" lon="5.57258">
        <ele>376.0128174</ele>
        <time>2010-09-25T18:45:42Z</time>
      </trkpt>
      <trkpt lat="45.3751" lon="5.57266">
        <ele>375.5321045</ele>
        <time>2010-09-25T18:45:46Z</time>
      </trkpt>
      <trkpt lat="45.37501" lon="5.57272">
        <ele>375.0515137</ele>
        <time>2010-09-25T18:45:50Z</time>
      </trkpt>
      <trkpt lat="45.37491" lon="5.57281">
        <ele>374.5708008</ele>
        <time>2010-09-25T18:45:54Z</time>
      </trkpt>
      <trkpt lat="45.37482" lon="5.57289">
        <ele>374.0900879</ele>
        <time>2010-09-25T18:45:58Z</time>
      </trkpt>
      <trkpt lat="45.37473" lon="5.57298">
        <ele>373.6094971</ele>
        <time>2010-09-25T18:46:02Z</time>
      </trkpt>
      <trkpt lat="45.37466" lon="5.57307">
        <ele>373.6094971</ele>
        <time>2010-09-25T18:46:06Z</time>
      </trkpt>
      <trkpt lat="45.37458" lon="5.57316">
        <ele>374.0900879</ele>
        <time>2010-09-25T18:46:10Z</time>
      </trkpt>
      <trkpt lat="45.37449" lon="5.57322">
        <ele>374.0900879</ele>
        <time>2010-09-25T18:46:14Z</time>
      </trkpt>
      <trkpt lat="45.3744" lon="5.57326">
        <ele>374.0900879</ele>
        <time>2010-09-25T18:46:18Z</time>
      </trkpt>
      <trkpt lat="45.37431" lon="5.5733">
        <ele>373.6094971</ele>
        <time>2010-09-25T18:46:22Z</time>
      </trkpt>
      <trkpt lat="45.37423" lon="5.57335">
        <ele>373.1289063</ele>
        <time>2010-09-25T18:46:26Z</time>
      </trkpt>
      <trkpt lat="45.37412" lon="5.57339">
        <ele>373.1289063</ele>
        <time>2010-09-25T18:46:30Z</time>
      </trkpt>
      <trkpt lat="45.37402" lon="5.57343">
        <ele>372.1674805</ele>
        <time>2010-09-25T18:46:34Z</time>
      </trkpt>
      <trkpt lat="45.37393" lon="5.57347">
        <ele>371.6868896</ele>
        <time>2010-09-25T18:46:38Z</time>
      </trkpt>
      <trkpt lat="45.37384" lon="5.5735">
        <ele>371.2062988</ele>
        <time>2010-09-25T18:46:42Z</time>
      </trkpt>
      <trkpt lat="45.37373" lon="5.57352">
        <ele>371.2062988</ele>
        <time>2010-09-25T18:46:46Z</time>
      </trkpt>
      <trkpt lat="45.37364" lon="5.57355">
        <ele>371.2062988</ele>
        <time>2010-09-25T18:46:50Z</time>
      </trkpt>
      <trkpt lat="45.37353" lon="5.57355">
        <ele>370.7255859</ele>
        <time>2010-09-25T18:46:54Z</time>
      </trkpt>
      <trkpt lat="45.37345" lon="5.57359">
        <ele>370.244873</ele>
        <time>2010-09-25T18:46:58Z</time>
      </trkpt>
      <trkpt lat="45.37335" lon="5.57352">
        <ele>370.244873</ele>
        <time>2010-09-25T18:47:03Z</time>
      </trkpt>
      <trkpt lat="45.37322" lon="5.57341">
        <ele>370.7255859</ele>
        <time>2010-09-25T18:47:08Z</time>
      </trkpt>
      <trkpt lat="45.37319" lon="5.57329">
        <ele>370.7255859</ele>
        <time>2010-09-25T18:47:12Z</time>
      </trkpt>
      <trkpt lat="45.37316" lon="5.57314">
        <ele>370.7255859</ele>
        <time>2010-09-25T18:47:16Z</time>
      </trkpt>
      <trkpt lat="45.3731" lon="5.57302">
        <ele>370.7255859</ele>
        <time>2010-09-25T18:47:20Z</time>
      </trkpt>
      <trkpt lat="45.37302" lon="5.57296">
        <ele>371.2062988</ele>
        <time>2010-09-25T18:47:24Z</time>
      </trkpt>
      <trkpt lat="45.37293" lon="5.57295">
        <ele>371.2062988</ele>
        <time>2010-09-25T18:47:28Z</time>
      </trkpt>
      <trkpt lat="45.37284" lon="5.57291">
        <ele>371.2062988</ele>
        <time>2010-09-25T18:47:32Z</time>
      </trkpt>
      <trkpt lat="45.37274" lon="5.57286">
        <ele>371.2062988</ele>
        <time>2010-09-25T18:47:36Z</time>
      </trkpt>
      <trkpt lat="45.37265" lon="5.57284">
        <ele>370.7255859</ele>
        <time>2010-09-25T18:47:40Z</time>
      </trkpt>
      <trkpt lat="45.37256" lon="5.5728">
        <ele>370.7255859</ele>
        <time>2010-09-25T18:47:44Z</time>
      </trkpt>
      <trkpt lat="45.37247" lon="5.57276">
        <ele>371.2062988</ele>
        <time>2010-09-25T18:47:48Z</time>
      </trkpt>
      <trkpt lat="45.37237" lon="5.5727">
        <ele>371.2062988</ele>
        <time>2010-09-25T18:47:52Z</time>
      </trkpt>
      <trkpt lat="45.37228" lon="5.57266">
        <ele>370.7255859</ele>
        <time>2010-09-25T18:47:56Z</time>
      </trkpt>
      <trkpt lat="45.37218" lon="5.57262">
        <ele>371.2062988</ele>
        <time>2010-09-25T18:48:00Z</time>
      </trkpt>
      <trkpt lat="45.37209" lon="5.57258">
        <ele>371.6868896</ele>
        <time>2010-09-25T18:48:04Z</time>
      </trkpt>
      <trkpt lat="45.372" lon="5.57257">
        <ele>371.6868896</ele>
        <time>2010-09-25T18:48:08Z</time>
      </trkpt>
      <trkpt lat="45.37191" lon="5.57253">
        <ele>371.6868896</ele>
        <time>2010-09-25T18:48:12Z</time>
      </trkpt>
      <trkpt lat="45.3718" lon="5.57252">
        <ele>371.6868896</ele>
        <time>2010-09-25T18:48:17Z</time>
      </trkpt>
      <trkpt lat="45.37169" lon="5.57252">
        <ele>372.1674805</ele>
        <time>2010-09-25T18:48:22Z</time>
      </trkpt>
      <trkpt lat="45.37158" lon="5.57253">
        <ele>372.1674805</ele>
        <time>2010-09-25T18:48:26Z</time>
      </trkpt>
      <trkpt lat="45.37148" lon="5.57255">
        <ele>371.6868896</ele>
        <time>2010-09-25T18:48:30Z</time>
      </trkpt>
      <trkpt lat="45.37139" lon="5.57262">
        <ele>371.6868896</ele>
        <time>2010-09-25T18:48:34Z</time>
      </trkpt>
      <trkpt lat="45.3713" lon="5.57269">
        <ele>370.244873</ele>
        <time>2010-09-25T18:48:38Z</time>
      </trkpt>
      <trkpt lat="45.3712" lon="5.57271">
        <ele>369.7642822</ele>
        <time>2010-09-25T18:48:42Z</time>
      </trkpt>
      <trkpt lat="45.3711" lon="5.57279">
        <ele>368.8029785</ele>
        <time>2010-09-25T18:48:47Z</time>
      </trkpt>
      <trkpt lat="45.37101" lon="5.57284">
        <ele>367.8415527</ele>
        <time>2010-09-25T18:48:51Z</time>
      </trkpt>
      <trkpt lat="45.37093" lon="5.57288">
        <ele>366.880249</ele>
        <time>2010-09-25T18:48:55Z</time>
      </trkpt>
      <trkpt lat="45.3708" lon="5.57294">
        <ele>365.4383545</ele>
        <time>2010-09-25T18:49:00Z</time>
      </trkpt>
      <trkpt lat="45.37071" lon="5.57297">
        <ele>364.4769287</ele>
        <time>2010-09-25T18:49:04Z</time>
      </trkpt>
      <trkpt lat="45.3706" lon="5.57303">
        <ele>363.9963379</ele>
        <time>2010-09-25T18:49:09Z</time>
      </trkpt>
      <trkpt lat="45.37048" lon="5.57305">
        <ele>363.9963379</ele>
        <time>2010-09-25T18:49:14Z</time>
      </trkpt>
      <trkpt lat="45.37037" lon="5.57304">
        <ele>363.9963379</ele>
        <time>2010-09-25T18:49:19Z</time>
      </trkpt>
      <trkpt lat="45.37027" lon="5.57302">
        <ele>363.9963379</ele>
        <time>2010-09-25T18:49:23Z</time>
      </trkpt>
      <trkpt lat="45.37017" lon="5.57299">
        <ele>363.0350342</ele>
        <time>2010-09-25T18:49:27Z</time>
      </trkpt>
      <trkpt lat="45.37007" lon="5.57296">
        <ele>362.5543213</ele>
        <time>2010-09-25T18:49:31Z</time>
      </trkpt>
      <trkpt lat="45.36998" lon="5.57293">
        <ele>363.5157471</ele>
        <time>2010-09-25T18:49:35Z</time>
      </trkpt>
      <trkpt lat="45.36986" lon="5.57288">
        <ele>363.0350342</ele>
        <time>2010-09-25T18:49:40Z</time>
      </trkpt>
      <trkpt lat="45.36976" lon="5.57286">
        <ele>363.5157471</ele>
        <time>2010-09-25T18:49:44Z</time>
      </trkpt>
      <trkpt lat="45.36966" lon="5.57282">
        <ele>363.5157471</ele>
        <time>2010-09-25T18:49:48Z</time>
      </trkpt>
      <trkpt lat="45.36958" lon="5.57276">
        <ele>363.9963379</ele>
        <time>2010-09-25T18:49:52Z</time>
      </trkpt>
      <trkpt lat="45.36947" lon="5.57269">
        <ele>363.9963379</ele>
        <time>2010-09-25T18:49:57Z</time>
      </trkpt>
      <trkpt lat="45.36937" lon="5.57263">
        <ele>364.4769287</ele>
        <time>2010-09-25T18:50:01Z</time>
      </trkpt>
      <trkpt lat="45.36928" lon="5.57258">
        <ele>364.4769287</ele>
        <time>2010-09-25T18:50:05Z</time>
      </trkpt>
      <trkpt lat="45.36918" lon="5.57256">
        <ele>364.9576416</ele>
        <time>2010-09-25T18:50:09Z</time>
      </trkpt>
      <trkpt lat="45.36908" lon="5.57255">
        <ele>364.9576416</ele>
        <time>2010-09-25T18:50:13Z</time>
      </trkpt>
      <trkpt lat="45.36899" lon="5.57252">
        <ele>365.4383545</ele>
        <time>2010-09-25T18:50:17Z</time>
      </trkpt>
      <trkpt lat="45.36888" lon="5.5725">
        <ele>365.4383545</ele>
        <time>2010-09-25T18:50:22Z</time>
      </trkpt>
      <trkpt lat="45.36878" lon="5.57248">
        <ele>365.9189453</ele>
        <time>2010-09-25T18:50:26Z</time>
      </trkpt>
      <trkpt lat="45.36868" lon="5.57246">
        <ele>365.9189453</ele>
        <time>2010-09-25T18:50:31Z</time>
      </trkpt>
      <trkpt lat="45.36858" lon="5.57245">
        <ele>365.9189453</ele>
        <time>2010-09-25T18:50:36Z</time>
      </trkpt>
      <trkpt lat="45.36847" lon="5.5724">
        <ele>366.3995361</ele>
        <time>2010-09-25T18:50:41Z</time>
      </trkpt>
      <trkpt lat="45.36835" lon="5.57235">
        <ele>366.3995361</ele>
        <time>2010-09-25T18:50:46Z</time>
      </trkpt>
      <trkpt lat="45.36825" lon="5.57227">
        <ele>366.3995361</ele>
        <time>2010-09-25T18:50:51Z</time>
      </trkpt>
      <trkpt lat="45.36815" lon="5.57222">
        <ele>365.9189453</ele>
        <time>2010-09-25T18:50:55Z</time>
      </trkpt>
      <trkpt lat="45.36803" lon="5.57214">
        <ele>365.9189453</ele>
        <time>2010-09-25T18:51:00Z</time>
      </trkpt>
      <trkpt lat="45.36794" lon="5.57207">
        <ele>365.9189453</ele>
        <time>2010-09-25T18:51:04Z</time>
      </trkpt>
      <trkpt lat="45.36783" lon="5.57199">
        <ele>365.9189453</ele>
        <time>2010-09-25T18:51:09Z</time>
      </trkpt>
      <trkpt lat="45.36773" lon="5.57192">
        <ele>366.3995361</ele>
        <time>2010-09-25T18:51:14Z</time>
      </trkpt>
      <trkpt lat="45.36763" lon="5.57182">
        <ele>367.3609619</ele>
        <time>2010-09-25T18:51:19Z</time>
      </trkpt>
      <trkpt lat="45.36754" lon="5.57173">
        <ele>366.880249</ele>
        <time>2010-09-25T18:51:24Z</time>
      </trkpt>
      <trkpt lat="45.36743" lon="5.57169">
        <ele>367.3609619</ele>
        <time>2010-09-25T18:51:29Z</time>
      </trkpt>
      <trkpt lat="45.36733" lon="5.57164">
        <ele>367.8415527</ele>
        <time>2010-09-25T18:51:34Z</time>
      </trkpt>
      <trkpt lat="45.36723" lon="5.57162">
        <ele>367.8415527</ele>
        <time>2010-09-25T18:51:39Z</time>
      </trkpt>
      <trkpt lat="45.3671" lon="5.57156">
        <ele>367.8415527</ele>
        <time>2010-09-25T18:51:44Z</time>
      </trkpt>
      <trkpt lat="45.36698" lon="5.57158">
        <ele>368.3222656</ele>
        <time>2010-09-25T18:51:49Z</time>
      </trkpt>
      <trkpt lat="45.36687" lon="5.57158">
        <ele>368.3222656</ele>
        <time>2010-09-25T18:51:54Z</time>
      </trkpt>
      <trkpt lat="45.36676" lon="5.57163">
        <ele>367.8415527</ele>
        <time>2010-09-25T18:52:00Z</time>
      </trkpt>
      <trkpt lat="45.36667" lon="5.57165">
        <ele>367.8415527</ele>
        <time>2010-09-25T18:52:04Z</time>
      </trkpt>
      <trkpt lat="45.36655" lon="5.5717">
        <ele>367.8415527</ele>
        <time>2010-09-25T18:52:09Z</time>
      </trkpt>
      <trkpt lat="45.36644" lon="5.57171">
        <ele>367.3609619</ele>
        <time>2010-09-25T18:52:13Z</time>
      </trkpt>
      <trkpt lat="45.36631" lon="5.57171">
        <ele>367.3609619</ele>
        <time>2010-09-25T18:52:18Z</time>
      </trkpt>
      <trkpt lat="45.36621" lon="5.5717">
        <ele>366.880249</ele>
        <time>2010-09-25T18:52:22Z</time>
      </trkpt>
      <trkpt lat="45.36609" lon="5.57166">
        <ele>366.880249</ele>
        <time>2010-09-25T18:52:27Z</time>
      </trkpt>
      <trkpt lat="45.36599" lon="5.57163">
        <ele>366.880249</ele>
        <time>2010-09-25T18:52:31Z</time>
      </trkpt>
      <trkpt lat="45.3659" lon="5.57161">
        <ele>366.3995361</ele>
        <time>2010-09-25T18:52:36Z</time>
      </trkpt>
      <trkpt lat="45.3658" lon="5.57158">
        <ele>366.880249</ele>
        <time>2010-09-25T18:52:40Z</time>
      </trkpt>
      <trkpt lat="45.36571" lon="5.57152">
        <ele>366.880249</ele>
        <time>2010-09-25T18:52:44Z</time>
      </trkpt>
      <trkpt lat="45.36559" lon="5.57147">
        <ele>367.3609619</ele>
        <time>2010-09-25T18:52:49Z</time>
      </trkpt>
      <trkpt lat="45.36549" lon="5.5714">
        <ele>366.880249</ele>
        <time>2010-09-25T18:52:54Z</time>
      </trkpt>
      <trkpt lat="45.36536" lon="5.57135">
        <ele>366.880249</ele>
        <time>2010-09-25T18:52:59Z</time>
      </trkpt>
      <trkpt lat="45.36526" lon="5.57132">
        <ele>366.3995361</ele>
        <time>2010-09-25T18:53:03Z</time>
      </trkpt>
      <trkpt lat="45.36517" lon="5.57129">
        <ele>366.3995361</ele>
        <time>2010-09-25T18:53:07Z</time>
      </trkpt>
      <trkpt lat="45.36508" lon="5.57128">
        <ele>365.9189453</ele>
        <time>2010-09-25T18:53:11Z</time>
      </trkpt>
      <trkpt lat="45.36497" lon="5.57125">
        <ele>366.3995361</ele>
        <time>2010-09-25T18:53:15Z</time>
      </trkpt>
      <trkpt lat="45.36488" lon="5.57121">
        <ele>366.3995361</ele>
        <time>2010-09-25T18:53:19Z</time>
      </trkpt>
      <trkpt lat="45.36478" lon="5.57119">
        <ele>365.9189453</ele>
        <time>2010-09-25T18:53:23Z</time>
      </trkpt>
      <trkpt lat="45.36468" lon="5.57118">
        <ele>365.9189453</ele>
        <time>2010-09-25T18:53:27Z</time>
      </trkpt>
      <trkpt lat="45.36458" lon="5.57118">
        <ele>365.9189453</ele>
        <time>2010-09-25T18:53:31Z</time>
      </trkpt>
      <trkpt lat="45.36448" lon="5.57118">
        <ele>365.9189453</ele>
        <time>2010-09-25T18:53:35Z</time>
      </trkpt>
      <trkpt lat="45.36441" lon="5.57126">
        <ele>366.3995361</ele>
        <time>2010-09-25T18:53:39Z</time>
      </trkpt>
      <trkpt lat="45.36436" lon="5.57141">
        <ele>366.3995361</ele>
        <time>2010-09-25T18:53:44Z</time>
      </trkpt>
      <trkpt lat="45.36432" lon="5.57154">
        <ele>365.4383545</ele>
        <time>2010-09-25T18:53:48Z</time>
      </trkpt>
      <trkpt lat="45.36428" lon="5.57167">
        <ele>364.9576416</ele>
        <time>2010-09-25T18:53:52Z</time>
      </trkpt>
      <trkpt lat="45.36426" lon="5.5718">
        <ele>364.9576416</ele>
        <time>2010-09-25T18:53:56Z</time>
      </trkpt>
      <trkpt lat="45.36423" lon="5.57195">
        <ele>363.9963379</ele>
        <time>2010-09-25T18:54:01Z</time>
      </trkpt>
      <trkpt lat="45.36421" lon="5.5721">
        <ele>363.5157471</ele>
        <time>2010-09-25T18:54:06Z</time>
      </trkpt>
      <trkpt lat="45.36425" lon="5.57222">
        <ele>363.0350342</ele>
        <time>2010-09-25T18:54:10Z</time>
      </trkpt>
      <trkpt lat="45.3643" lon="5.57235">
        <ele>362.5543213</ele>
        <time>2010-09-25T18:54:14Z</time>
      </trkpt>
      <trkpt lat="45.36433" lon="5.57248">
        <ele>362.0737305</ele>
        <time>2010-09-25T18:54:19Z</time>
      </trkpt>
      <trkpt lat="45.36436" lon="5.57261">
        <ele>362.0737305</ele>
        <time>2010-09-25T18:54:27Z</time>
      </trkpt>
      <trkpt lat="45.36437" lon="5.57275">
        <ele>360.6317139</ele>
        <time>2010-09-25T18:54:36Z</time>
      </trkpt>
      <trkpt lat="45.3644" lon="5.57292">
        <ele>360.151123</ele>
        <time>2010-09-25T18:54:41Z</time>
      </trkpt>
      <trkpt lat="45.36443" lon="5.57304">
        <ele>359.1896973</ele>
        <time>2010-09-25T18:54:45Z</time>
      </trkpt>
      <trkpt lat="45.36446" lon="5.57317">
        <ele>358.2283936</ele>
        <time>2010-09-25T18:54:49Z</time>
      </trkpt>
      <trkpt lat="45.36448" lon="5.5733">
        <ele>357.2670898</ele>
        <time>2010-09-25T18:54:53Z</time>
      </trkpt>
      <trkpt lat="45.36451" lon="5.57343">
        <ele>356.3057861</ele>
        <time>2010-09-25T18:54:57Z</time>
      </trkpt>
      <trkpt lat="45.36453" lon="5.57357">
        <ele>356.3057861</ele>
        <time>2010-09-25T18:55:01Z</time>
      </trkpt>
      <trkpt lat="45.36455" lon="5.57371">
        <ele>354.8637695</ele>
        <time>2010-09-25T18:55:05Z</time>
      </trkpt>
      <trkpt lat="45.36457" lon="5.57385">
        <ele>354.3831787</ele>
        <time>2010-09-25T18:55:09Z</time>
      </trkpt>
      <trkpt lat="45.36459" lon="5.57397">
        <ele>352.9411621</ele>
        <time>2010-09-25T18:55:13Z</time>
      </trkpt>
      <trkpt lat="45.36461" lon="5.57412">
        <ele>352.4605713</ele>
        <time>2010-09-25T18:55:17Z</time>
      </trkpt>
      <trkpt lat="45.36462" lon="5.57427">
        <ele>352.4605713</ele>
        <time>2010-09-25T18:55:22Z</time>
      </trkpt>
      <trkpt lat="45.36466" lon="5.57441">
        <ele>351.4991455</ele>
        <time>2010-09-25T18:55:27Z</time>
      </trkpt>
      <trkpt lat="45.36469" lon="5.57456">
        <ele>350.5378418</ele>
        <time>2010-09-25T18:55:32Z</time>
      </trkpt>
      <trkpt lat="45.36471" lon="5.57475">
        <ele>349.5765381</ele>
        <time>2010-09-25T18:55:37Z</time>
      </trkpt>
      <trkpt lat="45.36473" lon="5.57491">
        <ele>350.057251</ele>
        <time>2010-09-25T18:55:41Z</time>
      </trkpt>
      <trkpt lat="45.36473" lon="5.57506">
        <ele>348.6152344</ele>
        <time>2010-09-25T18:55:45Z</time>
      </trkpt>
      <trkpt lat="45.3647" lon="5.57518">
        <ele>348.1346436</ele>
        <time>2010-09-25T18:55:49Z</time>
      </trkpt>
      <trkpt lat="45.36463" lon="5.57529">
        <ele>347.6539307</ele>
        <time>2010-09-25T18:55:53Z</time>
      </trkpt>
      <trkpt lat="45.36455" lon="5.5754">
        <ele>347.1732178</ele>
        <time>2010-09-25T18:55:58Z</time>
      </trkpt>
      <trkpt lat="45.36449" lon="5.57552">
        <ele>346.692627</ele>
        <time>2010-09-25T18:56:02Z</time>
      </trkpt>
      <trkpt lat="45.36442" lon="5.57562">
        <ele>345.7313232</ele>
        <time>2010-09-25T18:56:06Z</time>
      </trkpt>
      <trkpt lat="45.36436" lon="5.57573">
        <ele>345.2506104</ele>
        <time>2010-09-25T18:56:10Z</time>
      </trkpt>
      <trkpt lat="45.36428" lon="5.57582">
        <ele>343.8085938</ele>
        <time>2010-09-25T18:56:14Z</time>
      </trkpt>
      <trkpt lat="45.36418" lon="5.5759">
        <ele>342.3666992</ele>
        <time>2010-09-25T18:56:18Z</time>
      </trkpt>
      <trkpt lat="45.36409" lon="5.57596">
        <ele>341.8859863</ele>
        <time>2010-09-25T18:56:22Z</time>
      </trkpt>
      <trkpt lat="45.364" lon="5.57605">
        <ele>339.9633789</ele>
        <time>2010-09-25T18:56:27Z</time>
      </trkpt>
      <trkpt lat="45.36391" lon="5.57612">
        <ele>339.482666</ele>
        <time>2010-09-25T18:56:31Z</time>
      </trkpt>
      <trkpt lat="45.36383" lon="5.57618">
        <ele>338.0407715</ele>
        <time>2010-09-25T18:56:35Z</time>
      </trkpt>
      <trkpt lat="45.36372" lon="5.5762">
        <ele>337.0794678</ele>
        <time>2010-09-25T18:56:41Z</time>
      </trkpt>
      <trkpt lat="45.36362" lon="5.57626">
        <ele>336.598877</ele>
        <time>2010-09-25T18:56:46Z</time>
      </trkpt>
      <trkpt lat="45.36353" lon="5.57633">
        <ele>335.6373291</ele>
        <time>2010-09-25T18:56:51Z</time>
      </trkpt>
      <trkpt lat="45.36345" lon="5.57646">
        <ele>334.6761475</ele>
        <time>2010-09-25T18:56:56Z</time>
      </trkpt>
      <trkpt lat="45.36338" lon="5.57654">
        <ele>334.1954346</ele>
        <time>2010-09-25T18:57:00Z</time>
      </trkpt>
      <trkpt lat="45.36329" lon="5.57665">
        <ele>333.7147217</ele>
        <time>2010-09-25T18:57:04Z</time>
      </trkpt>
      <trkpt lat="45.3632" lon="5.57675">
        <ele>332.75354</ele>
        <time>2010-09-25T18:57:09Z</time>
      </trkpt>
      <trkpt lat="45.36313" lon="5.57684">
        <ele>333.2341309</ele>
        <time>2010-09-25T18:57:13Z</time>
      </trkpt>
      <trkpt lat="45.36306" lon="5.57695">
        <ele>332.75354</ele>
        <time>2010-09-25T18:57:17Z</time>
      </trkpt>
      <trkpt lat="45.36299" lon="5.57705">
        <ele>332.2728271</ele>
        <time>2010-09-25T18:57:21Z</time>
      </trkpt>
      <trkpt lat="45.36294" lon="5.57715">
        <ele>332.2728271</ele>
        <time>2010-09-25T18:57:25Z</time>
      </trkpt>
      <trkpt lat="45.36287" lon="5.57724">
        <ele>332.2728271</ele>
        <time>2010-09-25T18:57:29Z</time>
      </trkpt>
      <trkpt lat="45.36281" lon="5.57737">
        <ele>332.75354</ele>
        <time>2010-09-25T18:57:34Z</time>
      </trkpt>
      <trkpt lat="45.36274" lon="5.57747">
        <ele>332.2728271</ele>
        <time>2010-09-25T18:57:38Z</time>
      </trkpt>
      <trkpt lat="45.36266" lon="5.57752">
        <ele>333.7147217</ele>
        <time>2010-09-25T18:57:43Z</time>
      </trkpt>
      <trkpt lat="45.36256" lon="5.57758">
        <ele>334.6761475</ele>
        <time>2010-09-25T18:57:48Z</time>
      </trkpt>
      <trkpt lat="45.36246" lon="5.57753">
        <ele>336.1181641</ele>
        <time>2010-09-25T18:57:53Z</time>
      </trkpt>
      <trkpt lat="45.36238" lon="5.57745">
        <ele>336.598877</ele>
        <time>2010-09-25T18:57:58Z</time>
      </trkpt>
      <trkpt lat="45.36227" lon="5.57736">
        <ele>338.5214844</ele>
        <time>2010-09-25T18:58:04Z</time>
      </trkpt>
      <trkpt lat="45.36218" lon="5.57729">
        <ele>339.482666</ele>
        <time>2010-09-25T18:58:09Z</time>
      </trkpt>
      <trkpt lat="45.36208" lon="5.57721">
        <ele>340.4440918</ele>
        <time>2010-09-25T18:58:15Z</time>
      </trkpt>
      <trkpt lat="45.36198" lon="5.57713">
        <ele>342.3666992</ele>
        <time>2010-09-25T18:58:21Z</time>
      </trkpt>
      <trkpt lat="45.36186" lon="5.57711">
        <ele>343.8085938</ele>
        <time>2010-09-25T18:58:26Z</time>
      </trkpt>
      <trkpt lat="45.36175" lon="5.5771">
        <ele>345.2506104</ele>
        <time>2010-09-25T18:58:31Z</time>
      </trkpt>
      <trkpt lat="45.36168" lon="5.57702">
        <ele>346.2120361</ele>
        <time>2010-09-25T18:58:36Z</time>
      </trkpt>
      <trkpt lat="45.3616" lon="5.57692">
        <ele>346.2120361</ele>
        <time>2010-09-25T18:58:41Z</time>
      </trkpt>
      <trkpt lat="45.36149" lon="5.57692">
        <ele>346.692627</ele>
        <time>2010-09-25T18:58:46Z</time>
      </trkpt>
      <trkpt lat="45.36142" lon="5.577">
        <ele>347.1732178</ele>
        <time>2010-09-25T18:58:50Z</time>
      </trkpt>
      <trkpt lat="45.36137" lon="5.5771">
        <ele>347.6539307</ele>
        <time>2010-09-25T18:58:54Z</time>
      </trkpt>
      <trkpt lat="45.3613" lon="5.57719">
        <ele>348.1346436</ele>
        <time>2010-09-25T18:58:58Z</time>
      </trkpt>
      <trkpt lat="45.36123" lon="5.5773">
        <ele>348.6152344</ele>
        <time>2010-09-25T18:59:03Z</time>
      </trkpt>
      <trkpt lat="45.36115" lon="5.57741">
        <ele>348.6152344</ele>
        <time>2010-09-25T18:59:08Z</time>
      </trkpt>
      <trkpt lat="45.36108" lon="5.57754">
        <ele>349.0958252</ele>
        <time>2010-09-25T18:59:13Z</time>
      </trkpt>
      <trkpt lat="45.36103" lon="5.57766">
        <ele>350.057251</ele>
        <time>2010-09-25T18:59:18Z</time>
      </trkpt>
      <trkpt lat="45.36097" lon="5.57777">
        <ele>350.5378418</ele>
        <time>2010-09-25T18:59:23Z</time>
      </trkpt>
      <trkpt lat="45.36089" lon="5.57789">
        <ele>351.9798584</ele>
        <time>2010-09-25T18:59:28Z</time>
      </trkpt>
      <trkpt lat="45.3608" lon="5.57796">
        <ele>352.4605713</ele>
        <time>2010-09-25T18:59:33Z</time>
      </trkpt>
      <trkpt lat="45.36072" lon="5.57801">
        <ele>352.9411621</ele>
        <time>2010-09-25T18:59:37Z</time>
      </trkpt>
      <trkpt lat="45.36063" lon="5.57805">
        <ele>352.9411621</ele>
        <time>2010-09-25T18:59:41Z</time>
      </trkpt>
      <trkpt lat="45.36051" lon="5.57805">
        <ele>351.9798584</ele>
        <time>2010-09-25T18:59:46Z</time>
      </trkpt>
      <trkpt lat="45.3604" lon="5.57803">
        <ele>351.4991455</ele>
        <time>2010-09-25T18:59:50Z</time>
      </trkpt>
      <trkpt lat="45.3603" lon="5.57797">
        <ele>350.5378418</ele>
        <time>2010-09-25T18:59:54Z</time>
      </trkpt>
      <trkpt lat="45.3602" lon="5.57791">
        <ele>350.057251</ele>
        <time>2010-09-25T18:59:58Z</time>
      </trkpt>
      <trkpt lat="45.36011" lon="5.57783">
        <ele>349.5765381</ele>
        <time>2010-09-25T19:00:03Z</time>
      </trkpt>
      <trkpt lat="45.36002" lon="5.57777">
        <ele>349.5765381</ele>
        <time>2010-09-25T19:00:07Z</time>
      </trkpt>
      <trkpt lat="45.35992" lon="5.5777">
        <ele>349.0958252</ele>
        <time>2010-09-25T19:00:11Z</time>
      </trkpt>
      <trkpt lat="45.35982" lon="5.57763">
        <ele>349.5765381</ele>
        <time>2010-09-25T19:00:15Z</time>
      </trkpt>
      <trkpt lat="45.35971" lon="5.5776">
        <ele>349.0958252</ele>
        <time>2010-09-25T19:00:19Z</time>
      </trkpt>
      <trkpt lat="45.35962" lon="5.57757">
        <ele>349.5765381</ele>
        <time>2010-09-25T19:00:23Z</time>
      </trkpt>
      <trkpt lat="45.3595" lon="5.57752">
        <ele>349.5765381</ele>
        <time>2010-09-25T19:00:27Z</time>
      </trkpt>
      <trkpt lat="45.35939" lon="5.57749">
        <ele>350.057251</ele>
        <time>2010-09-25T19:00:31Z</time>
      </trkpt>
      <trkpt lat="45.3593" lon="5.57744">
        <ele>350.057251</ele>
        <time>2010-09-25T19:00:35Z</time>
      </trkpt>
      <trkpt lat="45.3592" lon="5.5774">
        <ele>350.057251</ele>
        <time>2010-09-25T19:00:39Z</time>
      </trkpt>
      <trkpt lat="45.3591" lon="5.57736">
        <ele>350.5378418</ele>
        <time>2010-09-25T19:00:43Z</time>
      </trkpt>
      <trkpt lat="45.35898" lon="5.5773">
        <ele>350.5378418</ele>
        <time>2010-09-25T19:00:48Z</time>
      </trkpt>
      <trkpt lat="45.35888" lon="5.57728">
        <ele>351.0184326</ele>
        <time>2010-09-25T19:00:53Z</time>
      </trkpt>
      <trkpt lat="45.35876" lon="5.57725">
        <ele>351.0184326</ele>
        <time>2010-09-25T19:00:59Z</time>
      </trkpt>
      <trkpt lat="45.35867" lon="5.57711">
        <ele>351.0184326</ele>
        <time>2010-09-25T19:01:03Z</time>
      </trkpt>
      <trkpt lat="45.35864" lon="5.57695">
        <ele>351.9798584</ele>
        <time>2010-09-25T19:01:08Z</time>
      </trkpt>
      <trkpt lat="45.35865" lon="5.57679">
        <ele>353.421875</ele>
        <time>2010-09-25T19:01:15Z</time>
      </trkpt>
      <trkpt lat="45.35866" lon="5.57675">
        <ele>354.3831787</ele>
        <time>2010-09-25T19:01:26Z</time>
      </trkpt>
    </trkseg>
  </trk>
</gpx>